[[{"header":{"parameterUnit":"m.s-1","parameterCategory":1,"la1":30.6,"la2":28.766,"lo1":-90.7593,"lo2":-88.6598,"dy":0.0162,"dx":0.0183,"nx":116,"ny":114,"refTime":"2024-04-18T12:00:00:Z","depth":0,"parameterNumber":2,"parameterNumberName":"U-component_of_WINDS"},"data":[0.0,0.0,0.0,0.0,0.0,0.0,0.0,0.0,0.0,0.0,0.0,0.0,0.0,0.0,0.0,0.0,0.0,0.0,0.0,0.0,0.0,0.0,0.0,0.0,0.0,0.0,0.0,0.0,0.0,0.0,0.0,0.0,0.0,0.0,0.0,0.0,0.0,0.0,0.0,0.0,0.0,0.0,0.0,0.0,0.0,0.0,0.0,0.0,0.0,0.0,0.0,0.0,0.0,0.0,0.0,0.0,0.0,0.0,0.0,0.0,0.0,0.0,0.0,0.0,0.0,0.0,0.0,0.0,0.0,0.0,0.0,0.0,0.0,0.0,0.0,0.0,0.0,0.0,0.0,0.0,0.0,0.0,0.0,0.0,0.0,0.0,0.0,0.0,0.0,0.0,0.0,0.0,0.0,0.0,0.0,0.0,0.0,0.0,0.0,0.0,0.0,0.0,0.0,0.0,0.0,0.0,0.0,0.0,0.0,0.0,0.0,0.0,0.0,0.0,0.0,0.0,0.0,0.0,0.0,0.0,0.0,0.0,0.0,0.0,0.0,0.0,0.0,0.0,0.0,0.0,0.0,0.0,0.0,0.0,0.0,0.0,0.0,0.0,0.0,0.0,0.0,0.0,0.0,0.0,0.0,0.0,0.0,0.0,0.0,0.0,0.0,0.0,0.0,0.0,0.0,0.0,0.0,0.0,0.0,0.0,0.0,0.0,0.0,0.0,0.0,0.0,0.0,0.0,0.0,0.0,0.0,0.0,0.0,0.0,0.0,0.0,0.0,0.0,0.0,0.0,0.0,0.0,0.0,0.0,0.0,0.0,0.0,0.0,0.0,0.0,0.0,0.0,0.0,0.0,0.0,0.0,0.0,0.0,0.0,0.0,0.0,0.0,0.0,0.0,0.0,0.0,0.0,0.0,0.0,0.0,0.0,0.0,0.0,0.0,0.0,0.0,0.0,0.0,0.0,0.0,0.0,0.0,0.0,0.0,0.0,0.0,0.0,0.0,0.0,0.0,0.0,0.0,0.0,0.0,0.0,0.0,0.0,0.0,0.0,0.0,0.0,0.0,0.0,0.0,0.0,0.0,0.0,0.0,0.0,0.0,0.0,0.0,0.0,0.0,0.0,0.0,0.0,0.0,0.0,0.0,0.0,0.0,0.0,0.0,0.0,0.0,0.0,0.0,0.0,0.0,0.0,0.0,0.0,0.0,0.0,0.0,0.0,0.0,0.0,0.0,0.0,0.0,0.0,0.0,0.0,0.0,0.0,0.0,0.0,0.0,0.0,0.0,0.0,0.0,0.0,0.0,0.0,0.0,0.0,0.0,0.0,0.0,0.0,0.0,0.0,0.0,0.0,0.0,0.0,0.0,0.0,0.0,0.0,0.0,0.0,0.0,0.0,0.0,0.0,0.0,0.0,0.0,0.0,0.0,0.0,0.0,0.0,0.0,0.0,0.0,0.0,0.0,0.0,0.0,0.0,0.0,0.0,0.0,0.0,0.0,0.0,0.0,0.0,0.0,0.0,0.0,0.0,0.0,0.0,0.0,0.0,0.0,0.0,0.0,0.0,0.0,0.0,0.0,0.0,0.0,0.0,0.0,0.0,0.0,0.0,0.0,0.0,0.0,0.0,0.0,0.0,0.0,0.0,0.0,0.0,0.0,0.0,0.0,0.0,0.0,0.0,0.0,0.0,0.0,0.0,0.0,0.0,0.0,0.0,0.0,0.0,0.0,0.0,0.0,0.0,0.0,0.0,0.0,0.0,0.0,0.0,0.0,0.0,0.0,0.0,0.0,0.0,0.0,0.0,0.0,0.0,0.0,0.0,0.0,0.0,0.0,0.0,0.0,0.0,0.0,0.0,0.0,0.0,0.0,0.0,0.0,0.0,0.0,0.0,0.0,0.0,0.0,0.0,0.0,0.0,0.0,0.0,0.0,0.0,0.0,0.0,0.0,0.0,0.0,0.0,0.0,0.0,0.0,0.0,0.0,0.0,0.0,0.0,0.0,0.0,0.0,0.0,0.0,0.0,0.0,0.0,0.0,0.0,0.0,0.0,0.0,0.0,0.0,0.0,0.0,0.0,0.0,0.0,0.0,0.0,0.0,0.0,0.0,0.0,0.0,0.0,0.0,0.0,0.0,0.0,0.0,0.0,0.0,0.0,0.0,0.0,0.0,0.0,0.0,0.0,0.0,0.0,0.0,0.0,0.0,0.0,0.0,0.0,0.0,0.0,0.0,0.0,0.0,0.0,0.0,0.0,0.0,0.0,0.0,0.0,0.0,0.0,0.0,0.0,0.0,0.0,0.0,0.0,0.0,0.0,0.0,0.0,0.0,0.0,0.0,0.0,0.0,0.0,0.0,0.0,0.0,0.0,0.0,0.0,0.0,0.0,0.0,0.0,0.0,0.0,0.0,0.0,0.0,0.0,0.0,0.0,0.0,0.0,0.0,0.0,0.0,0.0,0.0,0.0,0.0,0.0,0.0,0.0,0.0,0.0,0.0,0.0,0.0,0.0,0.0,0.0,0.0,0.0,0.0,0.0,0.0,0.0,0.0,0.0,0.0,0.0,0.0,0.0,0.0,0.0,0.0,0.0,0.0,0.0,0.0,0.0,0.0,0.0,0.0,0.0,0.0,0.0,0.0,0.0,0.0,0.0,0.0,0.0,0.0,0.0,0.0,0.0,0.0,0.0,0.0,0.0,0.0,0.0,0.0,0.0,0.0,0.0,0.0,0.0,0.0,0.0,0.0,0.0,0.0,0.0,0.0,0.0,0.0,0.0,0.0,0.0,0.0,0.0,0.0,0.0,0.0,0.0,0.0,0.0,0.0,0.0,0.0,0.0,0.0,0.0,0.0,0.0,0.0,0.0,0.0,0.0,0.0,0.0,0.0,0.0,0.0,0.0,0.0,0.0,0.0,0.0,0.0,0.0,0.0,0.0,0.0,0.0,0.0,0.0,0.0,0.0,0.0,0.0,0.0,0.0,0.0,0.0,0.0,0.0,0.0,0.0,0.0,0.0,0.0,0.0,0.0,0.0,0.0,0.0,0.0,0.0,0.0,0.0,0.0,0.0,0.0,0.0,0.0,0.0,0.0,0.0,0.0,0.0,0.0,0.0,0.0,0.0,0.0,0.0,0.0,0.0,0.0,0.0,0.0,0.0,0.0,0.0,0.0,0.0,0.0,0.0,0.0,0.0,0.0,0.0,0.0,0.0,0.0,0.0,0.0,0.0,0.0,0.0,0.0,0.0,0.0,0.0,0.0,0.0,0.0,0.0,0.0,0.0,0.0,0.0,0.0,0.0,0.0,0.0,0.0,0.0,0.0,0.0,0.0,0.0,0.0,0.0,0.0,0.0,0.0,0.0,0.0,0.0,0.0,0.0,0.0,0.0,0.0,0.0,0.0,0.0,0.0,0.0,0.0,0.0,0.0,0.0,0.0,0.0,0.0,0.0,0.0,0.0,0.0,0.0,0.0,0.0,0.0,0.0,0.0,0.0,0.0,0.0,0.0,0.0,0.0,0.0,0.0,0.0,0.0,0.0,0.0,0.0,0.0,0.0,0.0,0.0,0.0,0.0,0.0,0.0,0.0,0.0,0.0,0.0,0.0,0.0,0.0,0.0,0.0,0.0,0.0,0.0,0.0,0.0,0.0,0.0,0.0,0.0,0.0,0.0,0.0,0.0,0.0,0.0,0.0,0.0,0.0,0.0,0.0,0.0,0.0,0.0,0.0,0.0,0.0,0.0,0.0,0.0,0.0,0.0,0.0,0.0,0.0,0.0,0.0,0.0,0.0,0.0,0.0,0.0,0.0,0.0,0.0,0.0,0.0,0.0,0.0,0.0,0.0,0.0,0.0,0.0,0.0,0.0,0.0,0.0,0.0,0.0,0.0,0.0,0.0,0.0,0.0,0.0,0.0,0.0,0.0,0.0,0.0,0.0,0.0,0.0,0.0,0.0,0.0,0.0,0.0,0.0,0.0,0.0,0.0,0.0,0.0,0.0,0.0,0.0,0.0,0.0,0.0,0.0,0.0,0.0,0.0,0.0,0.0,0.0,0.0,0.0,0.0,0.0,0.0,0.0,0.0,0.0,0.0,0.0,0.0,0.0,0.0,0.0,0.0,0.0,0.0,0.0,0.0,0.0,0.0,0.0,0.0,0.0,0.0,0.0,0.0,0.0,0.0,0.0,0.0,0.0,0.0,0.0,0.0,0.0,0.0,0.0,0.0,0.0,0.0,0.0,0.0,0.0,0.0,0.0,0.0,0.0,0.0,0.0,0.0,0.0,0.0,0.0,0.0,0.0,0.0,0.0,0.0,0.0,0.0,0.0,0.0,0.0,0.0,0.0,0.0,0.0,0.0,0.0,0.0,0.0,0.0,0.0,0.0,0.0,0.0,0.0,0.0,0.0,0.0,0.0,0.0,0.0,0.0,0.0,0.0,0.0,0.0,0.0,0.0,0.0,0.0,0.0,0.0,0.0,0.0,0.0,0.0,0.0,0.0,0.0,0.0,0.0,0.0,0.0,0.0,0.0,0.0,0.0,0.0,0.0,0.0,0.0,0.0,0.0,0.0,0.0,0.0,0.0,0.0,0.0,0.0,0.0,0.0,0.0,0.0,0.0,0.0,0.0,0.0,0.0,0.0,0.0,0.0,0.0,0.0,0.0,0.0,0.0,0.0,0.0,0.0,0.0,0.0,0.0,0.0,0.0,0.0,0.0,0.0,0.0,0.0,0.0,0.0,0.0,0.0,0.0,0.0,0.0,0.0,0.0,0.0,0.0,0.0,0.0,0.0,0.0,0.0,0.0,0.0,0.0,0.0,0.0,0.0,0.0,0.0,0.0,0.0,0.0,0.0,0.0,0.0,0.0,0.0,0.0,0.0,0.0,0.0,0.0,0.0,0.0,0.0,0.0,0.0,0.0,0.0,0.0,0.0,0.0,0.0,0.0,0.0,0.0,0.0,0.0,0.0,0.0,0.0,0.0,0.0,0.0,0.0,0.0,0.0,0.0,0.0,0.0,0.0,0.0,0.0,0.0,0.0,0.0,0.0,0.0,0.0,0.0,0.0,0.0,0.0,0.0,0.0,0.0,0.0,0.0,0.0,0.0,0.0,0.0,0.0,0.0,0.0,0.0,0.0,0.0,0.0,0.0,0.0,0.0,0.0,0.0,0.0,0.0,0.0,0.0,0.0,0.0,0.0,0.0,0.0,0.0,0.0,0.0,0.0,0.0,0.0,0.0,0.0,0.0,0.0,0.0,0.0,0.0,0.0,0.0,0.0,0.0,0.0,0.0,0.0,0.0,0.0,0.0,0.0,0.0,0.0,0.0,0.0,0.0,0.0,0.0,0.0,0.0,0.0,0.0,0.0,0.0,0.0,0.0,0.0,0.0,0.0,0.0,0.0,0.0,0.0,0.0,0.0,0.0,0.0,0.0,0.0,0.0,0.0,0.0,0.0,0.0,0.0,0.0,0.0,0.0,0.0,0.0,0.0,0.0,0.0,0.0,0.0,0.0,0.0,0.0,0.0,0.0,0.0,0.0,0.0,0.0,0.0,0.0,0.0,0.0,0.0,0.0,0.0,0.0,0.0,0.0,0.0,0.0,0.0,0.0,0.0,0.0,0.0,0.0,0.0,0.0,0.0,0.0,0.0,0.0,0.0,0.0,0.0,0.0,0.0,0.0,0.0,0.0,0.0,0.0,0.0,0.0,0.0,0.0,0.0,0.0,0.0,0.0,0.0,0.0,0.0,0.0,0.0,0.0,0.0,0.0,0.0,0.0,0.0,0.0,0.0,0.0,0.0,0.0,0.0,0.0,0.0,0.0,0.0,0.0,0.0,0.0,0.0,0.0,0.0,0.0,0.0,0.0,0.0,0.0,0.0,0.0,0.0,0.0,0.0,0.0,0.0,0.0,0.0,0.0,0.0,0.0,0.0,0.0,0.0,0.0,0.0,0.0,0.0,0.0,0.0,0.0,0.0,0.0,0.0,0.0,0.0,0.0,0.0,0.0,0.0,0.0,0.0,0.0,0.0,0.0,0.0,0.0,0.0,0.0,0.0,0.0,0.0,0.0,0.0,0.0,0.0,0.0,0.0,0.0,0.0,-0.1687,0.0,0.0,0.0,0.0,0.0,0.0,0.0,0.0,0.0,0.0,0.0,0.0,0.0,0.0,0.0,0.0,0.0,0.0,0.0,0.0,0.0,0.0,0.0,0.0,-0.6366,-0.6488,-0.6488,-0.6305,-0.6275,-0.6488,0.0,0.0,0.0,0.0,0.0,-0.5526,-0.532,-0.5131,-0.4909,-0.4434,-0.3953,-0.3525,-0.3408,-0.305,-0.2531,0.0,0.0,0.0,0.0,0.0,0.0,0.0,0.0,0.0,0.0,0.0,0.0,0.0,0.0,0.0,0.0,0.0,0.0,0.0,0.0,0.0,0.0,0.0,0.0,0.0,0.0,0.0,0.0,0.0,0.0,0.0,0.0,0.0,0.0,0.0,0.0,0.0,0.0,0.0,0.0,0.0,0.0,0.0,0.0,0.0,0.0,0.0,0.0,0.0,0.0,0.0,0.0,0.0,0.0,0.0,0.0,0.0,0.0,0.0,0.0,0.0,0.0,0.0,0.0,0.0,0.0,0.0,0.0,0.0,0.0,0.0,-0.0408,0.0,0.0,0.0,0.0,0.0,0.0,0.0,0.0,0.0,0.0,0.0,0.0,0.0,0.0,0.0,0.0,0.0,0.0,0.0,0.0,0.0,-0.6721,-0.6802,-0.6751,-0.673,-0.682,-0.67,-0.6639,-0.67,-0.6639,-0.6609,-0.6609,-0.6609,-0.657,-0.6518,-0.6098,-0.5872,-0.5855,-0.4867,-0.4257,-0.4013,-0.3999,-0.3809,-0.3351,0.0,0.0,0.0,0.0,0.0,0.0,0.0,0.0,0.0,0.0,0.0,0.0,0.0,0.0,0.0,0.0,0.0,0.0,0.0,0.0,0.0,0.0,0.0,0.0,0.0,0.0,0.0,0.0,0.0,0.0,0.0,0.0,0.0,0.0,0.0,0.0,0.0,0.0,0.0,0.0,0.0,0.0,0.0,0.0,0.0,0.0,0.0,0.0,0.0,0.0,0.0,0.0,0.0,0.0,0.0,0.0,0.0,0.0,0.0,0.0,0.0,0.0,0.0,0.0,-0.3317,-0.3354,-0.3354,-0.3188,-0.3202,-0.3181,-0.0257,-0.0316,-0.2316,-0.0121,0.0,0.0,0.0,0.0,0.0,0.0,0.0,0.0,0.0,0.0,0.0,0.0,0.0,0.0,0.0,0.0,0.0,0.0,0.0,-0.7637,-0.7934,-0.7715,-0.7676,-0.8023,-0.7413,-0.7187,-0.751,-0.7216,-0.702,-0.702,-0.702,-0.6841,-0.6518,-0.6098,-0.5859,-0.5734,-0.4848,-0.4534,-0.4746,-0.4362,-0.4243,-0.4273,-0.321,0.0,0.0,0.0,0.0,0.0,0.0,0.0,0.0,0.0,0.0,0.0,0.0,0.0,0.0,0.0,0.0,0.0,0.0,0.0,0.0,0.0,0.0,0.0,0.0,0.0,0.0,0.0,0.0,0.0,0.0,0.0,0.0,0.0,0.0,0.0,0.0,0.0,0.0,0.0,0.0,0.0,0.0,0.0,-0.3063,-0.3008,0.0,0.0,0.0,0.0,0.0,0.0,0.0,0.0,0.0,0.0,0.0,0.0,0.0,-0.3032,-0.307,-0.3476,-0.3704,-0.3707,-0.4097,-0.434,-0.4284,-0.3587,-0.3632,-0.4229,-0.277,0.0,-0.1697,-0.1366,0.0,0.0,0.0,0.0,0.0,0.0,0.0,0.0,0.0,0.0,0.0,0.0,0.0,0.0,0.0,0.0,0.0,0.0,0.0,0.0,0.0,-0.8671,-0.8838,-0.9025,-0.8958,-0.8868,-0.8785,-0.8608,-0.8368,-0.806,-0.7878,-0.7686,-0.7501,-0.6661,-0.5937,-0.536,-0.517,-0.514,-0.5171,-0.5106,-0.4855,-0.4322,-0.3779,-0.3499,-0.3506,-0.3386,0.0,0.0,0.0,0.0,0.0,0.0,0.0,0.0,0.0,0.0,0.0,0.0,0.0,0.0,0.0,0.0,0.0,0.0,0.0,0.0,0.0,0.0,0.0,0.0,0.0,0.0,0.0,0.0,0.0,0.0,0.0,0.0,0.0,0.0,0.0,0.0,0.0,0.0,0.0,-0.2653,-0.2637,-0.3065,-0.2457,-0.2135,0.0,0.0,0.0,0.0,0.0,0.0,0.0,0.0,0.0,-0.3383,-0.3448,-0.3583,-0.3709,-0.4038,-0.4371,-0.4778,-0.4581,-0.4677,-0.5058,-0.4288,-0.4181,-0.4446,-0.3923,-0.3503,-0.3124,-0.2067,-0.1431,-0.1211,0.0,0.0,0.0,0.0,-0.2666,-0.2853,0.0,0.0,0.0,0.0,0.0,0.0,0.0,0.0,0.0,0.0,0.0,0.0,-0.9374,-0.9638,-0.9805,-0.9898,-1.0163,-1.0099,-0.9618,-0.9588,-0.9361,-0.8834,-0.8551,-0.8393,-0.8319,-0.7094,-0.611,-0.5443,-0.5501,-0.5563,-0.5481,-0.5698,-0.5364,-0.4535,-0.4535,-0.4428,-0.4282,-0.4128,-0.393,0.0,0.0,0.0,0.0,0.0,0.0,0.0,0.0,0.0,0.0,0.0,0.0,0.0,0.0,0.0,0.0,0.0,0.0,0.0,0.0,0.0,0.0,0.0,0.0,0.0,0.0,0.0,0.0,0.0,0.0,0.0,0.0,0.0,0.0,0.0,0.0,0.0,0.0,-0.2643,-0.2685,-0.3236,-0.2713,-0.2544,0.0,0.0,0.0,0.0,0.0,0.0,-0.381,-0.3854,-0.4,-0.435,-0.4485,-0.4593,-0.4836,-0.4979,-0.5167,-0.5487,-0.5167,-0.5222,-0.5487,-0.5003,-0.4732,-0.4732,-0.457,-0.4519,-0.4368,-0.2721,-0.2257,-0.2511,-0.2051,-0.223,-0.2734,-0.3001,-0.3161,-0.3327,0.0,0.0,0.0,0.0,0.0,0.0,0.0,0.0,0.0,0.0,0.0,-1.0618,-1.0949,-1.0556,-1.0397,-1.0709,-1.0475,-1.0099,-0.9618,-0.9588,-0.9361,-0.8834,-0.8789,-0.8634,-0.8308,-0.7001,-0.6336,-0.6327,-0.5731,-0.5559,-0.5779,-0.5793,-0.5725,-0.552,-0.552,-0.4794,-0.3668,-0.3661,-0.3744,-0.3972,0.0,0.0,0.0,0.0,0.0,0.0,0.0,0.0,0.0,0.0,0.0,0.0,0.0,0.0,0.0,0.0,0.0,0.0,0.0,0.0,0.0,0.0,0.0,0.0,0.0,0.0,0.0,0.0,0.0,0.0,0.0,0.0,0.0,0.0,0.0,0.0,0.0,0.0,0.0,-0.3799,-0.3459,0.0,0.0,0.0,0.0,-0.5028,-0.4545,-0.4638,-0.5792,-0.5874,-0.6033,-0.6415,-0.6469,-0.6484,-0.6484,-0.6465,-0.6145,-0.5487,-0.6204,-0.615,-0.5487,-0.5487,-0.5433,-0.5433,-0.4787,-0.4519,-0.446,-0.3594,-0.2808,-0.2231,-0.2516,-0.2258,-0.1784,-0.2757,-0.3391,-0.3784,0.0,0.0,0.0,0.0,0.0,-1.1144,-1.1144,-1.1009,-1.1011,-1.1294,-1.1419,-1.1547,-1.1678,-1.2295,-1.2715,-1.2862,-1.3037,-1.2731,-1.1849,-1.1693,-1.1251,-1.0309,-0.9749,-0.91,-0.8369,-0.7937,-0.7382,-0.67,-0.6739,-0.6486,-0.5949,-0.6051,-0.6017,-0.5874,-0.5874,-0.5463,-0.4872,-0.4782,-0.461,-0.4297,-0.4244,-0.3734,0.0,0.0,0.0,0.0,0.0,0.0,0.0,0.0,0.0,0.0,0.0,0.0,0.0,0.0,0.0,0.0,0.0,0.0,0.0,0.0,0.0,0.0,0.0,0.0,0.0,0.0,0.0,0.0,0.0,0.0,0.0,0.0,0.0,0.0,0.0,0.0,0.0,-0.4669,-0.4515,0.0,-0.5763,-0.525,-0.5079,-0.5685,-0.5728,-0.5932,-0.6381,-0.6391,-0.6452,-0.6578,-0.6588,-0.6588,-0.6588,-0.6588,-0.6691,-0.6902,-0.6691,-0.6691,-0.6902,-0.6416,-0.6199,-0.6204,-0.5932,-0.5828,-0.5769,-0.505,-0.433,-0.3712,-0.38,-0.369,-0.3505,-0.388,-0.4089,-0.4268,0.0,0.0,0.0,0.0,0.0,-1.2535,-1.2535,-1.2134,-1.2056,-1.2699,-1.2788,-1.2894,-1.3069,-1.3938,-1.4583,-1.4776,-1.49,-1.4485,-1.3299,-1.3106,-1.2454,-1.1083,-1.042,-0.983,-0.9298,-0.9011,-0.8582,-0.7923,-0.7644,-0.7158,-0.6629,-0.6364,-0.6176,-0.603,-0.603,-0.5891,-0.565,-0.5501,-0.5118,-0.4609,-0.456,-0.4012,-0.3331,0.0,0.0,0.0,0.0,0.0,0.0,0.0,0.0,0.0,0.0,0.0,0.0,0.0,0.0,0.0,0.0,0.0,0.0,0.0,0.0,0.0,0.0,0.0,0.0,0.0,0.0,0.0,0.0,0.0,0.0,0.0,0.0,0.0,0.0,0.0,-0.4913,-0.5606,-0.5753,-0.6151,-0.7034,-0.6753,-0.6673,-0.7028,-0.7211,-0.7296,-0.7354,-0.7421,-0.7432,-0.7348,-0.7343,-0.7343,-0.7343,-0.7343,-0.745,-0.7723,-0.7456,-0.745,-0.767,-0.7182,-0.6876,-0.6681,-0.6625,-0.6503,-0.632,-0.5977,-0.5437,-0.4842,-0.4842,-0.4842,-0.4897,-0.5117,-0.5062,-0.4787,0.0,0.0,0.0,0.0,0.0,-1.3849,-1.3864,-1.3794,-1.3892,-1.4442,-1.4471,-1.4625,-1.5157,-1.5422,-1.5787,-1.6296,-1.5905,-1.5025,-1.3767,-1.3651,-1.2837,-1.1,-1.0735,-1.075,-1.0989,-1.012,-0.9748,-0.9887,-0.8346,-0.7671,-0.7859,-0.6795,-0.6256,-0.6037,-0.6037,-0.5952,-0.58,-0.5661,-0.5345,-0.4914,-0.4606,-0.4212,-0.3804,0.0,0.0,0.0,0.0,0.0,0.0,0.0,0.0,0.0,0.0,0.0,0.0,0.0,0.0,0.0,0.0,0.0,0.0,0.0,0.0,0.0,0.0,0.0,0.0,0.0,0.0,0.0,0.0,0.0,0.0,0.0,0.0,0.0,-0.4207,-0.5659,-0.6707,-0.6515,-0.7115,-0.7838,-0.8563,-0.8021,-0.8032,-0.9105,-0.8876,-0.8681,-0.8811,-0.9078,-0.9085,-0.8811,-0.8798,-0.8791,-0.8844,-0.8864,-0.8487,-0.7777,-0.848,-0.8427,-0.7723,-0.7723,-0.7441,-0.6832,-0.6712,-0.639,-0.5922,-0.6408,-0.6199,-0.5542,-0.5542,-0.5542,-0.5597,-0.6312,-0.6145,-0.5429,0.0,0.0,0.0,-1.3406,-1.4031,-1.4624,-1.5177,-1.4492,-1.4087,-1.4578,-1.5004,-1.5301,-1.5321,-1.6559,-1.7437,-1.7599,-1.7477,-1.6704,-1.5136,-1.479,-1.3665,-1.1499,-1.1308,-1.1269,-1.1274,-1.1445,-1.1057,-1.0224,-1.0036,-0.9526,-0.8846,-0.7859,-0.7375,-0.7251,-0.6576,-0.6112,-0.5966,-0.5925,-0.5715,-0.5379,-0.507,-0.4616,-0.4111,0.0,0.0,0.0,0.0,0.0,0.0,0.0,0.0,0.0,0.0,0.0,0.0,0.0,0.0,0.0,0.0,0.0,0.0,0.0,0.0,0.0,0.0,0.0,0.0,0.0,0.0,0.0,0.0,0.0,0.0,0.0,-0.6359,-0.6903,-0.6159,-0.6476,-0.7176,-0.8171,-0.8311,-0.8681,-0.9607,-0.9322,-0.9234,-0.9508,-0.9459,-0.9433,-0.9452,-0.9224,-0.9174,-0.9354,-0.9096,-0.922,-0.9802,-0.9888,-0.9688,-0.9242,-0.9406,-0.9152,-0.848,-0.848,-0.839,-0.8249,-0.8199,-0.8122,-0.7939,-0.7553,-0.7283,-0.7069,-0.6529,-0.5982,-0.5597,-0.6312,-0.6475,-0.6138,0.0,0.0,0.0,-1.3433,-1.3754,-1.4153,-1.4644,-1.426,-1.4059,-1.4485,-1.5629,-1.6414,-1.6488,-1.785,-1.8873,-1.9302,-1.8948,-1.7971,-1.6207,-1.5007,-1.4086,-1.3517,-1.2923,-1.2838,-1.3238,-1.2821,-1.2372,-1.1795,-1.115,-1.0547,-1.0051,-0.9053,-0.8636,-0.8793,-0.8168,-0.7754,-0.7503,-0.7126,-0.6749,-0.6489,-0.5741,-0.5051,-0.4521,-0.4618,-0.4447,-0.4131,-0.4062,-0.4055,-0.4029,-0.3839,0.0,0.0,0.0,0.0,0.0,0.0,0.0,0.0,0.0,0.0,0.0,0.0,0.0,0.0,0.0,0.0,0.0,0.0,0.0,0.0,0.0,0.0,0.0,0.0,-0.7294,-0.8358,-0.8362,-0.8402,-0.8745,-0.9731,-0.97,-0.9854,-1.0405,-1.0221,-1.0,-0.9873,-0.998,-1.0118,-1.02,-1.006,-0.9992,-1.0123,-0.9903,-0.9865,-0.993,-1.0204,-1.0217,-1.0023,-1.0133,-1.0012,-0.9614,-0.9361,-0.9071,-0.884,-0.8802,-0.8671,-0.8406,-0.8227,-0.799,0.0,0.0,0.0,0.0,0.0,-0.7074,-0.6908,0.0,0.0,0.0,-1.2553,-1.2908,-1.3261,-1.3379,-1.3733,-1.4106,-1.4438,-1.6258,-1.7683,-1.8097,-1.9101,-2.0112,-2.0926,-2.0076,-1.8709,-1.6844,-1.4667,-1.4258,-1.6101,-1.5067,-1.4893,-1.5846,-1.4381,-1.3651,-1.3882,-1.2037,-1.1301,-1.1498,-1.0406,-1.0058,-1.0363,-1.0282,-1.0007,-0.966,-0.8797,-0.8304,-0.7979,-0.6889,-0.586,-0.5003,-0.5258,-0.5163,-0.4908,-0.4801,-0.4653,-0.442,-0.4031,0.0,0.0,0.0,0.0,0.0,0.0,0.0,0.0,0.0,0.0,0.0,0.0,0.0,0.0,0.0,0.0,0.0,0.0,0.0,0.0,0.0,0.0,0.0,0.0,-0.8513,-0.9755,-1.0857,-1.1058,-1.109,-1.1159,-1.112,-1.1172,-1.1204,-1.1022,-1.0753,-1.0417,-1.0712,-1.093,-1.1107,0.0,0.0,0.0,0.0,-1.0731,-1.0029,-1.0409,-1.0562,-1.057,-1.0788,-1.0864,-1.0762,-1.0167,-0.9642,-0.9118,-0.9075,-0.8707,-0.8256,-0.8789,-0.8573,-0.7931,-0.7777,-0.7723,-0.7818,-0.7729,-0.7753,-0.7711,0.0,0.0,0.0,-1.3872,-1.4298,-1.4562,-1.4649,-1.4949,-1.5252,-1.549,-1.6766,-1.8054,-1.9012,-2.0096,-2.0781,-2.0991,-1.9735,-1.8185,-1.6351,-1.4626,-1.4571,-1.6645,-1.6195,-1.6056,-1.6468,-1.6037,-1.5459,-1.4879,-1.3723,-1.3314,-1.3561,-1.18,-1.1094,-1.1341,-1.0525,-1.0176,-1.0054,-0.9893,-0.9792,-0.9732,-0.9194,-0.7641,-0.5613,-0.5538,-0.5352,-0.5074,-0.5046,-0.5015,-0.4876,-0.4508,-0.4417,-0.4425,-0.4254,0.0,0.0,0.0,0.0,0.0,0.0,0.0,0.0,0.0,0.0,0.0,0.0,0.0,0.0,0.0,0.0,0.0,0.0,0.0,0.0,-1.0069,-1.1381,-1.2668,-1.3477,-1.3792,-1.3443,-1.2123,-1.1999,-1.2153,-1.2585,-1.256,-1.2496,-1.2425,-1.248,-1.2578,-1.2562,-1.2251,-1.2225,-1.2474,-1.2218,-1.2272,-1.2749,-1.2502,-1.2269,-1.207,0.0,0.0,-1.0813,-1.0669,-1.0537,-1.0416,-1.041,-1.0343,-1.0274,-1.0359,-1.0012,-0.9295,-0.8143,-0.8049,-0.8508,-0.8044,-0.8183,-0.8436,0.0,0.0,0.0,-1.2683,-1.2485,-1.2418,-1.2926,-1.3164,-1.3442,-1.3891,-1.5476,-1.7214,-1.8896,-1.8884,-1.9177,-2.0217,-1.8604,-1.7524,-1.7478,-1.6547,-1.6817,-1.8679,-1.8251,-1.8054,-1.8217,-1.7296,-1.6515,-1.593,-1.5121,-1.4669,-1.4409,-1.3474,-1.2942,-1.2883,-1.2161,-1.1939,-1.1863,-1.1398,-1.1062,-1.075,-1.0067,-0.897,-0.7601,-0.7398,-0.7125,-0.6724,-0.6272,-0.6165,-0.6026,-0.5142,-0.5159,-0.55,-0.512,-0.5197,-0.55,0.0,0.0,0.0,0.0,0.0,0.0,0.0,0.0,0.0,0.0,0.0,0.0,0.0,0.0,-0.9892,-0.9523,0.0,-1.1438,-1.1531,-1.2575,-1.3666,-1.4396,-1.4638,-1.4476,-1.3755,-1.3365,-1.3284,-1.3498,-1.3223,-1.3009,-1.3009,-1.3009,-1.3191,-1.3606,-1.3367,-1.335,-1.3485,-1.3341,-1.325,-1.3178,-1.3241,-1.3175,-1.3032,-1.2791,-1.2494,-1.2121,-1.1563,-1.1316,-1.1266,-1.0965,-1.0813,-1.0813,-1.0813,-1.0618,-1.021,-0.9533,-0.9287,-0.9259,-0.8982,-0.9062,-0.9193,0.0,0.0,0.0,-1.1205,-1.0757,-1.0463,-1.093,-1.122,-1.1584,-1.2205,-1.3972,-1.5984,-1.807,-1.7199,-1.7055,-1.8575,-1.7199,-1.6849,-1.8323,-1.8392,-1.9094,-2.0694,-2.0302,-2.0001,-1.9963,-1.8531,-1.7568,-1.6963,-1.6425,-1.5914,-1.5358,-1.5273,-1.5026,-1.4559,-1.4207,-1.3933,-1.3818,-1.2993,-1.2403,-1.1802,-1.0933,-1.0365,-1.0103,-0.9663,-0.9092,-0.8341,-0.7522,-0.7283,-0.7135,-0.5918,-0.6007,-0.6569,-0.6176,-0.6262,-0.6639,-0.6877,-0.7038,0.0,0.0,0.0,0.0,0.0,0.0,0.0,0.0,0.0,-1.0331,-1.0719,-1.1182,-1.1455,-1.1201,-1.208,-1.2876,-1.3121,-1.3807,-1.4565,-1.523,-1.5343,-1.5429,-1.5591,-1.4951,-1.4461,-1.4512,-1.3956,-1.3571,-1.3494,-1.3494,-1.3734,-1.4392,-1.4451,-1.4389,-1.435,-1.44,-1.4139,-1.3589,-1.3886,-1.412,-1.4279,-1.3992,-1.3851,-1.368,-1.2653,-1.211,-1.1972,-1.1425,-1.1266,-1.1358,-1.1358,-1.1308,-1.1208,-1.1208,-1.0762,-1.0167,-1.0064,-1.0012,-1.0012,0.0,0.0,0.0,0.0,0.0,-1.2465,-1.1198,-1.1765,-1.2501,-1.2921,-1.3826,-1.4948,-1.6342,-1.6335,-1.6054,-1.5644,-1.5802,-1.6241,-1.6981,-1.8085,-1.9486,-2.1261,-2.1345,-2.1088,-2.0542,-2.0222,-1.9481,-1.8344,-1.788,-1.776,-1.7905,-1.7027,-1.6599,-1.6373,-1.5769,-1.5249,-1.4926,-1.4192,-1.3721,-1.3316,-1.2987,-1.27,-1.2342,-1.1436,-1.0101,-0.8468,-0.7878,-0.757,-0.7439,-0.7029,-0.6861,-0.6874,-0.6786,-0.6703,-0.6802,-0.7943,0.0,-0.8356,-0.8666,-0.7982,-0.749,-0.8723,-0.8839,-0.9012,0.0,0.0,-1.2273,-1.257,-1.3223,-1.3877,-1.4219,-1.4707,-1.5284,-1.6098,-1.665,-1.7154,-1.7581,-1.7648,-1.7533,-1.7216,-1.6315,-1.576,-1.5884,-1.5792,-1.5581,-1.5137,-1.5108,-1.5167,-1.5235,-1.5294,-1.5245,-1.5273,-1.5245,-1.5525,-1.61,-1.5794,-1.5987,-1.6629,-1.5709,-1.5001,-1.445,-1.3834,-1.3266,-1.2774,-1.2715,-1.2987,-1.3474,-1.3474,-1.312,-1.257,-1.257,-1.219,-1.1516,-1.0914,-1.0669,-1.0669,0.0,0.0,0.0,0.0,0.0,-1.1259,-1.1086,-1.1085,-1.1351,-1.2012,-1.2338,-1.3235,-1.5171,-1.4861,-1.3986,-1.2644,-1.3598,-1.4787,-1.6023,-1.828,-2.0148,-2.1377,-2.2223,-2.2265,-2.1416,-2.1065,-2.0376,-1.9371,-1.9141,-1.8816,-1.8285,-1.7958,-1.7526,-1.7015,-1.6629,-1.6404,-1.6387,-1.584,-1.5072,-1.4288,-1.4498,-1.357,-1.1989,-1.1981,-1.0942,-0.935,-0.8503,-0.8241,0.0,0.0,-0.7311,-0.7805,-0.7555,-0.7599,-0.7907,-0.8833,-0.876,0.0,-0.9047,-0.9291,0.0,0.0,-1.1161,-1.1732,-1.292,-1.3513,-1.3867,-1.397,-1.4463,-1.4853,-1.4795,-1.4932,-1.542,0.0,-1.667,-1.7125,-1.8588,-1.8497,-1.8291,-1.826,-1.7328,-1.6456,-1.5813,-1.611,-1.6187,-1.5783,-1.6335,-1.6687,-1.6687,-1.6687,-1.6687,-1.6687,-1.6687,-1.6856,-1.7146,-1.6994,-1.7048,-1.7319,-1.6384,-1.5775,-1.5493,-1.4679,-1.4201,-1.3931,-1.3931,-1.4107,-1.4329,-1.4329,-1.4179,-1.3924,-1.3924,-1.3737,-1.3301,-1.1895,-1.1366,-1.1366,0.0,0.0,0.0,0.0,0.0,-1.01,-1.0671,-1.0392,-1.0325,-1.0964,-1.0967,-1.1559,-1.3304,-1.2806,-1.1921,-1.0899,-1.222,-1.3828,-1.5566,-1.8284,-2.0258,-2.1198,-2.2454,-2.2682,-2.1736,-2.1608,-2.1151,-2.0243,-2.0144,-1.9717,-1.8939,-1.8807,-1.8366,-1.7666,-1.7252,-1.72,-1.7195,-1.6698,-1.5899,-1.4872,-1.5113,-1.3902,-1.1914,-1.2119,-1.1337,-1.007,-0.9015,-0.8788,0.0,0.0,-0.7889,-0.8689,-0.8184,-0.8461,-0.9013,-0.944,-0.9205,-0.894,-0.9564,0.0,0.0,-1.2122,-1.2959,-1.3789,-1.4893,-1.5049,-1.5047,-1.5392,-1.5472,-1.5509,-1.5543,-1.5401,-1.5715,-1.688,-1.6961,-1.74,-1.8956,-1.8881,-1.8462,-1.8107,-1.7468,-1.653,-1.5117,-1.5903,-1.6439,-1.6218,-1.7098,-1.7578,-1.7578,-1.7578,-1.7578,-1.7578,-1.7578,-1.7688,-1.7895,-1.7895,-1.8015,-1.8221,-1.7213,-1.6688,-1.6443,-1.5251,-1.4698,-1.4698,-1.4698,-1.4789,-1.4971,-1.4971,-1.4971,-1.4971,-1.4971,-1.4835,-1.4514,-1.311,-1.258,-1.2589,0.0,0.0,0.0,0.0,0.0,-0.9912,-0.9931,-1.0035,-1.0113,-1.0133,-1.0133,-1.0167,-1.0221,-1.0029,-1.0229,-1.1028,-1.2306,-1.3903,-1.5772,-1.7936,-1.9585,-2.0584,-2.1839,-2.206,-2.1051,-2.2024,-2.2106,-2.1174,-2.0802,-2.0552,-2.0481,-1.965,-1.901,-1.856,-1.7926,-1.7439,-1.6971,-1.633,-1.5617,-1.495,-1.4522,-1.388,-1.306,-1.2067,-1.1174,-1.0269,-0.9335,0.0,0.0,-0.8417,-0.8798,-0.9308,-0.855,-0.9101,0.0,-0.9839,-0.9892,-1.0167,-1.0646,0.0,-1.0644,-1.2417,-1.3184,-1.3945,-1.5694,-1.5693,-1.5683,-1.6881,-1.6384,-1.6058,-1.7214,-1.6949,-1.6884,-1.7873,-1.8471,-1.8851,-1.8895,-1.8884,-1.8165,-1.6107,-1.6204,-1.5695,0.0,-1.5427,-1.6629,-1.6777,-1.7288,-1.7578,-1.7578,-1.7578,-1.7578,-1.7578,-1.7578,-1.795,-1.8661,-1.8661,-1.9044,-1.9734,-1.8657,-1.7846,-1.7194,-1.5475,-1.4698,-1.4698,-1.4698,-1.5005,-1.5588,-1.5588,-1.5588,-1.5588,-1.5588,-1.5231,-1.4698,-1.4652,-1.4606,-1.4514,0.0,0.0,0.0,0.0,0.0,0.0,-0.9893,-1.0016,-1.0094,-1.0094,-1.0065,0.0,0.0,0.0,0.0,0.0,-1.0975,-1.1975,-1.3237,-1.5918,-1.7853,-1.8837,-2.0845,-2.1738,-2.1397,-2.1046,-2.071,-2.0381,-1.9654,-1.9458,-1.977,-1.8977,-1.8724,-1.8866,-1.8211,-1.7783,-1.7641,-1.7144,-1.6432,-1.5565,-1.5522,-1.4356,-1.2568,-1.1913,-1.1045,-1.0036,0.0,0.0,0.0,-0.8803,-0.9032,-0.9215,-0.905,-0.9226,-0.9408,-0.9186,-1.0013,-1.0894,-1.0521,0.0,-1.2881,-1.3799,-1.5203,-1.6569,-1.7359,-1.7691,-1.7776,-1.7427,-1.672,-1.603,-1.574,-1.513,-1.5085,-1.6654,-1.7003,-1.7722,-1.9495,-1.9419,-1.899,-1.8523,-1.79,0.0,0.0,0.0,0.0,-1.7606,-1.8586,-1.9534,-2.0254,-2.0757,-2.0783,-2.033,-2.0757,-2.0884,-2.0703,-2.0703,-2.0629,-2.0428,-1.9253,-1.8379,-1.7797,-1.7222,-1.6957,-1.6957,-1.6957,-1.7081,-1.7259,-1.7259,-1.7259,-1.7259,-1.7259,-1.7136,-1.6902,-1.6511,-1.6596,-1.6693,0.0,0.0,0.0,0.0,0.0,0.0,0.0,0.0,0.0,0.0,0.0,0.0,0.0,0.0,0.0,0.0,0.0,-1.1024,-1.2009,-1.4076,-1.5724,-1.6725,-1.8663,-1.9724,-1.971,-1.9903,-2.0008,-1.9914,-1.9211,-1.9021,-1.9329,-1.8386,-1.8131,-1.8427,-1.7765,-1.7402,-1.7382,-1.6924,-1.61,-1.5207,-1.4964,-1.372,-1.1946,-1.1438,-1.0536,0.0,0.0,0.0,-0.8562,-0.888,-0.918,-0.9425,-0.9249,-0.9187,-0.9357,-1.014,-1.1037,-1.1752,-1.1815,-1.3264,-1.4914,-1.5531,-1.6859,-1.8047,-1.818,-1.8369,-1.8361,-1.7707,-1.6888,-1.6112,-1.5413,-1.4706,-1.4703,-1.6016,-1.654,-1.7563,-1.9805,-1.9951,-1.9781,-1.9632,-1.9306,-1.9021,0.0,0.0,0.0,-1.8728,-1.97,-2.0603,-2.1332,-2.1779,-2.1904,-2.171,-2.2097,-2.2159,-2.1697,-2.1697,-2.1296,-2.045,-1.9402,-1.8604,-1.8106,-1.8106,-1.7832,-1.7408,-1.7873,-1.7818,-1.7408,-1.7887,-1.8106,-1.812,-1.8381,-1.8464,-1.8451,-1.8303,-1.8481,-1.8522,0.0,0.0,0.0,0.0,0.0,0.0,0.0,0.0,0.0,0.0,0.0,0.0,0.0,0.0,0.0,0.0,0.0,0.0,-1.1986,0.0,0.0,-1.4311,-1.559,-1.6243,-1.6186,-1.849,-1.9609,-1.9487,-1.9131,-1.8955,-1.9004,-1.7672,-1.7136,-1.7126,-1.6496,-1.6238,-1.6171,-1.5528,-1.4763,-1.391,-1.2909,-1.1974,-1.1206,-1.0697,0.0,0.0,0.0,0.0,0.0,-0.8737,-0.9414,-1.0032,-0.9271,-0.9278,-1.0069,-1.2448,-1.2872,-1.2861,-1.4397,-1.557,-1.6619,-1.7436,-1.8036,-1.8328,-1.8237,-1.7879,-1.7605,-1.7662,-1.6882,-1.6191,0.0,0.0,-1.5447,-1.6101,-1.7089,-1.8302,-1.9814,-2.056,-2.0543,0.0,0.0,0.0,0.0,0.0,0.0,-2.017,0.0,-2.0969,-2.1024,-2.1066,-2.1347,-2.1819,-2.1874,-2.186,-2.1791,-2.1763,-2.1153,-1.9988,-1.9293,-1.8727,-1.8185,-1.8185,-1.747,-1.6354,-1.7647,-1.7457,-1.6368,-1.7675,-1.8238,-1.8361,-1.8972,-1.9265,-1.9362,-1.9978,-2.0202,-1.9935,0.0,0.0,0.0,0.0,0.0,0.0,0.0,0.0,0.0,0.0,0.0,0.0,0.0,0.0,0.0,0.0,0.0,0.0,0.0,0.0,0.0,0.0,0.0,0.0,0.0,0.0,0.0,-1.4954,-1.4313,-1.4469,-1.5335,-1.4428,-1.4521,-1.5331,-1.4439,-1.4003,-1.3936,-1.3065,-1.2627,-1.2391,0.0,-1.0829,-1.049,0.0,0.0,0.0,0.0,0.0,0.0,0.0,-0.9997,-1.1314,-1.1915,-1.2152,-1.2287,-1.2534,-1.3349,-1.4253,-1.457,-1.6124,-1.7752,-1.8313,-1.8917,-1.9405,-1.9345,-1.8969,-1.8339,-1.7381,-1.6205,-1.5036,0.0,0.0,0.0,-1.6201,-1.7241,0.0,-2.0333,-2.191,0.0,-2.1241,0.0,-2.2931,-2.2974,-2.3391,0.0,0.0,-2.2772,-2.2958,-2.4303,-2.4864,-2.4699,-2.3906,-2.4347,-2.4126,-2.3128,-2.2673,-2.2041,-2.1234,-2.0548,-1.9903,-1.9281,-1.9281,-1.9104,-1.8811,-1.9148,-1.9104,-1.8825,-1.9148,-1.9819,-2.0637,-2.0803,-2.1152,-2.1591,-2.1773,-2.1795,-2.1711,0.0,0.0,0.0,0.0,0.0,0.0,0.0,0.0,0.0,0.0,0.0,0.0,0.0,0.0,0.0,0.0,0.0,0.0,0.0,0.0,0.0,0.0,0.0,0.0,0.0,0.0,0.0,0.0,0.0,0.0,-1.3564,-1.2894,-1.296,-1.3574,-1.2746,-1.2351,-1.2291,-1.1511,0.0,0.0,0.0,0.0,0.0,0.0,0.0,0.0,0.0,0.0,0.0,0.0,0.0,-1.2228,-1.381,-1.4149,-1.4136,-1.5053,-1.5756,-1.6447,-1.7107,-1.845,-1.9684,-1.9945,-2.0118,-2.0027,-1.9176,-1.8574,-1.7682,-1.6089,-1.5188,0.0,-1.3207,-1.2632,0.0,0.0,0.0,0.0,-2.0366,-2.2017,-2.2968,0.0,-2.3739,0.0,-2.5347,-2.5682,-2.5985,0.0,-2.4642,-2.4103,-2.509,-2.5525,-2.539,-2.4612,-2.4986,-2.4672,-2.361,-2.2981,-2.2596,-2.2428,-2.1759,-2.1127,-2.0508,-2.069,-2.0162,-1.9177,0.0,-2.0141,-1.9893,-2.0268,-2.1126,-2.2244,-2.229,-2.267,-2.3248,-2.3901,-2.4121,-2.4044,0.0,0.0,0.0,0.0,0.0,0.0,0.0,0.0,0.0,0.0,-1.0055,-0.9921,0.0,0.0,0.0,0.0,0.0,0.0,0.0,0.0,0.0,0.0,0.0,0.0,0.0,0.0,0.0,0.0,0.0,0.0,0.0,0.0,0.0,0.0,0.0,0.0,0.0,0.0,0.0,0.0,0.0,0.0,0.0,0.0,0.0,0.0,0.0,0.0,0.0,0.0,-1.2622,-1.3074,-1.5322,-1.578,-1.5932,-1.8414,-1.8945,-1.9009,-2.0514,-2.1303,-2.1743,-2.1663,-2.1137,-2.0244,-1.8604,-1.7523,-1.6409,-1.4763,0.0,-1.3843,-1.3232,-1.3115,-1.357,-1.5049,0.0,-1.7657,-1.9918,-2.1544,-2.2925,-2.4141,-2.4963,-2.5812,-2.6798,-2.7205,-2.7742,-2.849,-2.6512,-2.5228,-2.5228,-2.5228,-2.5138,-2.4957,-2.4791,-2.4369,-2.3724,-2.3266,-2.3163,-2.3406,-2.2892,-2.2342,-2.1737,-2.2073,-2.1085,-1.9124,-2.0623,-2.099,-2.0571,-2.1387,-2.2374,-2.3487,-2.3796,-2.4173,-2.4724,-2.606,-2.6543,-2.6543,0.0,0.0,0.0,0.0,0.0,0.0,0.0,0.0,0.0,0.0,-1.1177,-1.0525,0.0,0.0,0.0,0.0,0.0,0.0,0.0,0.0,0.0,0.0,0.0,0.0,0.0,0.0,0.0,0.0,0.0,0.0,0.0,0.0,0.0,0.0,0.0,0.0,0.0,0.0,0.0,0.0,0.0,0.0,0.0,0.0,0.0,0.0,0.0,0.0,0.0,0.0,-1.2974,-1.4559,-1.7059,-1.8087,-1.857,-1.9653,-2.058,-2.1376,-2.1773,-2.2179,-2.2377,-2.1808,-2.0859,-1.9932,-1.9496,-1.7775,0.0,0.0,-1.4299,-1.3289,-1.3609,-1.3668,-1.434,-1.6395,-1.738,-1.8099,-1.8812,-2.1584,-2.3689,0.0,-2.5163,-2.6651,-2.8713,-2.7878,0.0,0.0,-2.8812,-2.855,-2.855,-2.855,-2.8012,-2.6857,-2.5686,-2.4838,-2.4282,-2.4587,-2.4319,-2.3406,-2.3739,-2.3546,-2.2911,-2.298,-2.2772,-2.2383,-2.2692,0.0,-2.2744,-2.3478,-2.4162,-2.4789,-2.6069,-2.6557,-2.6709,-2.7547,-2.7859,-2.7804,0.0,0.0,0.0,0.0,0.0,0.0,0.0,-1.1224,-1.1949,-1.1939,-1.1908,-1.1463,-1.0339,-1.0186,-0.9978,0.0,0.0,0.0,0.0,0.0,0.0,0.0,0.0,0.0,0.0,0.0,0.0,0.0,0.0,0.0,0.0,0.0,0.0,0.0,0.0,0.0,0.0,0.0,0.0,0.0,0.0,0.0,0.0,0.0,0.0,0.0,0.0,0.0,0.0,0.0,-1.1897,-1.373,-1.7169,-1.8799,-1.9534,-1.9814,-2.1006,-2.227,-2.227,-2.2909,-2.3477,-2.278,-2.1739,-2.037,-1.8549,0.0,0.0,0.0,-1.3205,-1.2694,-1.3098,-1.3164,0.0,-1.6197,-1.7353,-1.854,-2.0178,-2.2338,-2.42,-2.5405,-2.6079,-2.7049,0.0,-2.8086,-2.8095,-2.9123,-2.9173,-2.9237,-2.9419,-2.8702,-2.7998,-2.731,-2.5918,-2.5067,-2.4816,-2.5067,-2.5045,-2.4762,-2.5021,-2.4808,-2.4141,-2.4346,-2.4115,-2.3585,-2.4198,0.0,-2.3968,-2.5242,-2.5815,-2.5999,-2.7234,-2.7852,-2.8172,-2.8908,-2.9176,-2.9159,0.0,0.0,0.0,0.0,0.0,0.0,-0.9542,-1.1329,-1.2496,-1.2066,-1.2391,-1.2199,-1.0987,-1.0816,-1.0524,0.0,0.0,0.0,0.0,0.0,0.0,0.0,0.0,0.0,0.0,0.0,0.0,0.0,0.0,0.0,0.0,0.0,0.0,0.0,0.0,0.0,0.0,0.0,0.0,0.0,0.0,0.0,0.0,0.0,0.0,0.0,0.0,0.0,0.0,0.0,-1.0776,-1.2361,-1.5991,-1.7963,-1.9045,-1.9488,-2.0955,-2.253,-2.2951,-2.38,-2.438,-2.3681,-2.2613,-2.0857,-1.7734,-1.6413,0.0,-1.3155,-1.2489,-1.2446,-1.2931,-1.3035,-1.3764,0.0,-1.6823,-1.8194,-2.1032,-2.2276,-2.377,0.0,-2.6508,0.0,-2.8384,-2.8219,0.0,-2.9414,-2.9448,-2.9577,-2.9783,-2.8459,-2.7664,-2.7664,-2.6416,-2.5648,-2.5373,-2.5648,-2.5917,-2.6244,-2.6187,-2.5976,-2.5611,-2.5933,-2.558,-2.478,-2.5866,0.0,0.0,-2.6981,-2.7336,-2.6826,-2.8302,-2.9013,-2.9313,-3.0057,-3.0345,-3.0345,0.0,0.0,0.0,0.0,0.0,0.0,-0.9394,-1.0623,-1.1832,-1.2611,-1.2608,-1.222,-1.1419,-1.1381,-1.1399,0.0,0.0,0.0,0.0,0.0,0.0,0.0,0.0,0.0,0.0,0.0,0.0,0.0,0.0,0.0,0.0,0.0,0.0,0.0,0.0,0.0,0.0,0.0,0.0,0.0,0.0,0.0,0.0,0.0,0.0,0.0,0.0,0.0,0.0,0.0,0.0,-1.1474,-1.3197,-1.4866,-1.663,-1.8994,0.0,0.0,-2.4669,-2.4982,-2.4402,-2.3762,-2.264,-2.1053,-1.8537,0.0,-1.5745,-1.4617,-1.342,-1.2951,-1.4193,-1.4415,-1.5,-1.6808,0.0,-1.618,-1.8816,-1.9841,-2.1434,-2.4363,0.0,0.0,-2.9644,-2.8665,-2.8699,-3.0835,-3.0987,-3.1016,-3.1055,-2.9656,-2.8848,-2.8848,-2.8003,-2.7035,-2.5941,-2.7,-2.737,-2.7003,-2.6754,-2.6944,-2.7535,-2.7587,-2.7536,-2.7484,-2.8332,0.0,0.0,-2.8921,-2.86,-2.6979,-2.9816,-3.0543,-3.0091,-3.0818,-3.1089,-3.1089,0.0,0.0,0.0,0.0,0.0,0.0,-0.9791,-1.1157,-1.2359,-1.3165,-1.3141,-1.2931,-1.2639,-1.2224,-1.1428,-1.0042,0.0,0.0,0.0,0.0,0.0,0.0,0.0,0.0,0.0,0.0,0.0,-1.0578,0.0,0.0,0.0,0.0,0.0,0.0,0.0,0.0,0.0,0.0,0.0,0.0,0.0,0.0,0.0,0.0,0.0,0.0,0.0,0.0,0.0,0.0,0.0,0.0,-0.9992,-1.1002,0.0,0.0,-1.8089,-2.0346,-2.1689,-2.3011,-2.3849,-2.3206,-2.2541,-2.1164,-1.7746,0.0,-1.5959,-1.4025,-1.3203,-1.3051,-1.3754,-1.3889,-1.4328,0.0,0.0,0.0,-1.9425,-2.037,-2.1989,-2.5406,-2.6082,0.0,0.0,0.0,-2.8383,-2.9753,-3.0043,-3.0418,-3.114,-3.0209,-2.9651,-2.9651,-2.8924,-2.8294,-2.7811,-2.8294,-2.8446,-2.8246,-2.8142,-2.823,-2.8518,-2.8518,-2.8662,-2.8939,-2.9695,0.0,0.0,-3.0109,-2.9797,-2.7962,-3.057,-3.1394,-3.117,-3.1462,-3.1565,-3.1497,0.0,0.0,0.0,0.0,0.0,-0.8431,-0.9702,-1.0951,-1.204,-1.2749,-1.2781,-1.2719,-1.2719,-1.206,-1.1062,-0.967,-1.0113,0.0,0.0,0.0,0.0,0.0,0.0,0.0,0.0,0.0,-1.1451,-1.1451,-1.1451,-1.1126,0.0,0.0,0.0,0.0,0.0,0.0,0.0,0.0,0.0,0.0,0.0,0.0,0.0,0.0,0.0,0.0,0.0,0.0,0.0,0.0,0.0,0.0,0.0,0.0,0.0,0.0,-1.5545,-1.8305,-1.9245,-2.121,-2.2892,-2.2248,-2.1569,-2.0147,0.0,0.0,-1.5363,-1.3512,-1.3121,-1.3173,-1.3363,-1.3396,-1.3783,0.0,0.0,-1.6559,-1.9316,-2.036,-2.1887,0.0,0.0,-2.6268,0.0,-2.8433,-2.9042,-2.96,-2.9932,-3.0468,-3.1321,-3.0895,-3.0462,-3.0108,-2.96,-2.9211,-2.9011,-2.9343,-2.9462,-2.9313,-2.924,-2.9038,-2.8815,-2.9166,-2.9278,-2.9296,-3.0491,0.0,0.0,-3.1025,-3.0818,-2.9161,-3.1219,-3.2004,-3.2004,-3.2004,-3.2004,-3.1882,0.0,0.0,0.0,0.0,0.0,-0.8061,-0.8801,-0.954,-1.0301,-1.1028,-1.1113,-1.1113,-1.1113,-1.047,-1.0305,-1.1011,-1.1079,0.0,0.0,0.0,0.0,0.0,0.0,0.0,0.0,0.0,-1.2297,-1.2297,-1.2297,-1.1674,-1.0527,-1.125,0.0,0.0,0.0,0.0,0.0,0.0,0.0,0.0,0.0,0.0,0.0,0.0,0.0,0.0,0.0,0.0,0.0,0.0,0.0,0.0,0.0,-0.8783,-0.9241,0.0,-1.3621,-1.6467,-1.8459,-2.0315,-2.156,-2.0902,-1.9366,-1.7609,0.0,-1.4633,-1.3753,-1.3463,-1.3396,-1.3396,-1.3396,-1.3396,-1.3887,-1.5358,0.0,0.0,-1.7603,-1.9089,-2.0331,0.0,0.0,-2.4577,-2.7502,-2.9837,-3.1157,-3.1173,-3.1548,0.0,-3.1771,-3.1771,-3.1259,-3.0125,-3.0108,-2.9736,-2.9028,-3.0108,-3.0487,-3.0091,-2.9747,-2.9141,-2.8352,-2.9527,-2.9428,-2.8454,0.0,0.0,0.0,-3.1698,-3.1629,-3.0419,-3.1898,-3.2484,-3.2484,-3.2484,-3.2484,-3.2378,0.0,0.0,0.0,0.0,0.0,0.0,-0.9291,-0.9421,-0.9704,-1.0927,-1.0656,-1.0538,-1.1045,-1.0453,-1.0437,-1.1543,-1.18,0.0,0.0,0.0,0.0,0.0,0.0,0.0,0.0,0.0,-1.3057,-1.3057,-1.2874,-1.2483,-1.1937,-1.1521,-1.1045,-1.0484,0.0,0.0,0.0,0.0,0.0,0.0,0.0,0.0,0.0,0.0,0.0,0.0,0.0,0.0,0.0,0.0,0.0,0.0,0.0,0.0,0.0,-0.9537,-1.125,-1.3314,-1.472,-1.6194,-1.7257,-1.7043,-1.6787,-1.6187,-1.4677,-1.43,-1.4113,-1.3515,-1.3396,-1.3396,-1.3396,-1.3396,-1.3887,-1.5358,-1.5595,0.0,0.0,0.0,0.0,-2.3564,-2.6048,-2.7942,0.0,0.0,-3.0431,-3.1517,-3.1011,-3.1124,-3.2212,-3.1772,-3.1411,-3.1278,-3.1011,-3.0853,-3.0917,-3.1268,-3.1532,-3.1725,-3.1633,-3.114,-3.0387,-3.1339,-3.1234,0.0,0.0,0.0,0.0,-3.2491,-3.2373,-3.1547,-3.2588,-3.2983,-3.2983,-3.2983,-3.2983,-3.2786,0.0,0.0,0.0,0.0,0.0,0.0,-0.8801,-0.8542,-0.8491,-0.9692,-0.9455,-0.9354,-0.981,-0.9853,-1.0281,-1.1383,-1.2157,0.0,0.0,0.0,0.0,0.0,0.0,0.0,-1.3396,-1.3396,-1.3396,-1.3396,-1.351,-1.3355,-1.2975,-1.2392,-1.1947,-1.1536,-1.0892,-1.0473,0.0,0.0,0.0,0.0,0.0,0.0,-0.8289,0.0,0.0,0.0,0.0,0.0,0.0,0.0,0.0,0.0,0.0,0.0,0.0,0.0,-0.9709,-1.0896,-1.2288,-1.3772,-1.4863,-1.4614,-1.4409,-1.4131,-1.3573,0.0,-1.3261,-1.3379,-1.3853,-1.4074,-1.3498,-1.3853,-1.4362,-1.4699,-1.5933,-1.7202,0.0,0.0,0.0,-2.3693,0.0,0.0,0.0,-3.0103,-3.0976,-3.1987,-3.1582,-3.1729,-3.2692,-3.2282,-3.2101,-3.2315,-3.1636,-3.1355,-3.1586,-3.209,-3.24,-3.2484,-3.2681,-3.2175,-3.1146,-3.2072,-3.2157,0.0,0.0,0.0,0.0,-3.3742,-3.3582,-3.3136,-3.3364,-3.3437,-3.3437,-3.3437,-3.3437,-3.3237,0.0,0.0,0.0,0.0,0.0,0.0,0.0,-0.7095,-0.6909,-0.7677,-0.7727,-0.7761,-0.7893,-0.8924,-0.9917,-1.0779,-1.2155,0.0,0.0,0.0,0.0,0.0,0.0,0.0,-1.3396,-1.3396,-1.3379,-1.3363,-1.4087,-1.4142,-1.3568,-1.3653,-1.3374,-1.2771,-1.2149,-1.1476,-1.0678,-0.8827,-0.8394,-0.886,-0.7616,-0.7869,0.0,0.0,0.0,0.0,0.0,0.0,0.0,0.0,0.0,0.0,0.0,0.0,0.0,0.0,0.0,0.0,0.0,-1.2637,-1.3772,-1.3151,-1.2244,-1.1706,-1.2575,0.0,0.0,-1.3227,-1.4666,-1.5189,-1.3887,-1.4783,-1.5308,-1.3938,-1.6627,-1.82,0.0,-1.9355,0.0,0.0,-2.5754,0.0,-2.8994,-3.115,-3.2517,-3.255,-3.2952,-3.3214,-3.3243,-3.3189,-3.3153,-3.3153,-3.2023,-3.1399,-3.142,-3.2606,-3.2965,-3.2494,-3.3027,-3.2401,-3.0864,-3.205,-3.2398,0.0,0.0,0.0,0.0,-3.5049,-3.4899,-3.4825,-3.41,-3.3807,-3.3807,-3.3807,-3.3807,-3.3678,0.0,0.0,0.0,0.0,0.0,0.0,0.0,0.0,0.0,0.0,-0.7076,-0.7322,-0.8863,-0.9276,-0.9951,0.0,0.0,0.0,0.0,0.0,0.0,0.0,0.0,0.0,-1.3396,-1.3396,-1.3311,-1.3103,-1.357,-1.3626,-1.3299,-1.3627,-1.3431,-1.2786,-1.2651,-1.191,-1.0738,-0.9815,-0.9516,-0.9638,-0.9321,-0.9381,0.0,0.0,0.0,0.0,-0.8139,-0.8364,0.0,0.0,0.0,0.0,0.0,0.0,0.0,0.0,-0.8891,-0.8999,-0.9425,0.0,-1.0128,-0.9977,-1.0164,-1.0586,0.0,0.0,0.0,0.0,0.0,0.0,0.0,-1.6661,-1.7168,-1.683,-1.7963,-1.8981,-1.9241,0.0,0.0,-2.3462,-2.7903,-3.0374,-2.8649,-3.0907,-3.2648,-3.3014,-3.3154,-3.3332,-3.3634,-3.3067,-3.2738,-3.2738,-3.2456,-3.2426,-3.2757,-3.3046,-3.2995,-3.2584,-3.3314,-3.2811,-3.1313,-3.2821,-3.2954,0.0,0.0,0.0,-3.3786,-3.4,-3.4082,-3.4064,-3.3862,-3.3807,-3.3807,-3.3807,-3.3807,-3.3605,0.0,0.0,0.0,0.0,0.0,0.0,0.0,0.0,0.0,0.0,-0.5935,-0.6377,-0.7783,-0.87,-0.9639,0.0,0.0,0.0,0.0,0.0,0.0,0.0,0.0,-1.3396,-1.3396,-1.3294,-1.3305,-1.347,-1.3896,-1.4126,-1.413,-1.4177,-1.3936,-1.3426,-1.2803,-1.2054,-1.1206,-1.0294,-1.0054,-1.0264,-0.9683,0.0,0.0,0.0,0.0,0.0,-0.8244,-0.8576,0.0,-0.9158,-0.9986,-1.0961,0.0,0.0,0.0,0.0,-0.8891,-0.8891,-0.8891,-0.9145,-0.9574,-1.028,-1.047,-1.0893,-1.2331,0.0,0.0,0.0,0.0,0.0,0.0,0.0,-1.7024,-1.7258,-1.8095,0.0,0.0,0.0,-2.4472,-2.3761,-2.7459,-2.9839,0.0,-3.1534,-3.3196,-3.3465,-3.3494,-3.3578,-3.3807,-3.3385,-3.3146,-3.3146,-3.3146,-3.3076,-3.292,-3.3284,-3.3177,-3.2614,-3.3421,-3.3146,-3.199,-3.322,-3.3643,0.0,0.0,0.0,-3.4604,-3.444,-3.4357,-3.4357,-3.4357,-3.4137,-3.3807,-3.3807,-3.3807,-3.3678,0.0,0.0,0.0,0.0,0.0,0.0,0.0,0.0,0.0,0.0,0.0,0.0,0.0,0.0,0.0,0.0,0.0,0.0,0.0,0.0,0.0,0.0,-1.3173,-1.3346,-1.3346,-1.3166,-1.3345,-1.3885,-1.4485,-1.4908,-1.5134,-1.5026,-1.468,-1.417,-1.2923,-1.2173,-1.1715,-1.0533,-1.0398,-1.0842,-0.9668,0.0,0.0,0.0,0.0,0.0,0.0,0.0,0.0,-0.9887,-1.0734,-1.1696,-1.073,0.0,0.0,0.0,0.0,0.0,-0.9179,-0.9692,-1.0508,-1.1942,-1.1789,-1.1857,-1.4004,0.0,0.0,0.0,0.0,0.0,0.0,-1.6641,0.0,0.0,0.0,0.0,-2.2422,-2.3573,-2.4218,-2.4313,-2.6922,0.0,-3.0099,-3.2375,-3.3807,-3.3807,-3.3807,-3.3807,-3.3807,-3.3807,-3.3733,-3.3623,-3.3733,-3.3421,-3.2614,-3.3403,-3.3403,-3.2614,-3.3421,-3.3385,-3.2632,-3.344,-3.4174,-3.477,0.0,0.0,-3.6028,-3.5183,-3.488,-3.4972,-3.4844,-3.4412,-3.3807,-3.3807,-3.3807,-3.377,0.0,0.0,0.0,0.0,0.0,0.0,0.0,0.0,0.0,0.0,0.0,0.0,0.0,0.0,0.0,0.0,0.0,0.0,0.0,0.0,0.0,-1.2332,-1.2794,-1.3067,-1.3067,-1.3342,-1.3452,-1.3321,-1.4536,-1.5042,-1.4878,-1.5695,-1.5432,-1.4249,-1.3493,-1.263,-1.1745,-1.0997,-1.1036,-1.158,-1.0832,0.0,0.0,0.0,0.0,0.0,0.0,0.0,0.0,-0.844,-0.9765,-1.13,-0.937,0.0,0.0,0.0,0.0,0.0,-1.0432,-1.0842,-1.1147,-1.2077,-1.2212,-1.2534,-1.414,0.0,0.0,0.0,0.0,0.0,0.0,-2.0619,-2.1504,0.0,0.0,-2.4219,0.0,0.0,-2.8625,-2.7317,0.0,-3.2173,-3.0375,-3.2375,-3.3807,-3.3807,-3.3807,-3.3807,-3.3807,-3.3807,-3.3495,-3.2816,-3.344,-3.3421,-3.2614,-3.3403,-3.3403,-3.2614,-3.3421,-3.3385,-3.2632,-3.344,-3.3862,-3.3972,0.0,-3.4339,-3.5137,-3.4321,-3.4394,-3.4917,-3.4266,-3.3917,-3.3807,-3.3807,-3.3807,-3.3697,0.0,0.0,0.0,0.0,0.0,0.0,0.0,0.0,0.0,0.0,0.0,0.0,0.0,0.0,0.0,0.0,0.0,0.0,0.0,0.0,-1.2376,-1.2431,-1.251,-1.2803,-1.3306,-1.3362,-1.368,-1.4285,-1.474,-1.5125,-1.5349,-1.522,-1.4457,-1.3168,-1.2989,-1.251,-1.1775,-1.1621,-1.1646,-1.1775,0.0,0.0,0.0,0.0,0.0,0.0,0.0,0.0,0.0,0.0,-0.9907,-1.13,-0.9574,0.0,0.0,0.0,0.0,0.0,-1.0216,-1.0791,-1.157,-1.3582,-1.3481,-1.3582,-1.6272,0.0,0.0,0.0,0.0,0.0,0.0,0.0,-2.108,-2.1789,0.0,-2.7023,-2.7296,-2.8415,-2.898,0.0,0.0,-3.1586,-3.0907,-3.2632,-3.3807,-3.3807,-3.3807,-3.3807,-3.3807,-3.3807,-3.344,-3.2632,-3.2963,-3.2779,-3.1953,-3.2761,-3.2981,-3.2614,-3.3421,-3.3385,-3.2632,-3.344,-3.3807,-3.377,0.0,-3.3623,-3.4321,-3.3954,-3.4027,-3.4376,-3.4431,-3.4192,-3.3807,-3.3807,-3.3807,-3.3678,0.0,0.0,0.0,0.0,0.0,0.0,0.0,0.0,0.0,0.0,0.0,0.0,0.0,0.0,0.0,0.0,0.0,0.0,0.0,-1.2185,-1.2271,-1.2416,-1.2231,-1.2557,-1.3484,-1.3388,-1.3927,-1.5097,-1.5068,-1.5297,-1.5753,-1.4764,-1.3718,-1.2648,-1.2792,-1.2513,-1.1897,-1.206,-1.1997,-1.1805,0.0,0.0,0.0,0.0,0.0,0.0,0.0,0.0,0.0,0.0,0.0,0.0,0.0,0.0,0.0,-0.9704,-0.9162,-0.9179,-1.0453,-1.0944,-1.1823,-1.4851,-1.4479,-1.4378,-1.8048,0.0,0.0,0.0,0.0,0.0,0.0,-1.9297,0.0,-2.4478,-2.7256,-2.8846,-2.8565,-2.9043,-2.9471,-2.9704,-3.0362,-3.1091,-3.188,-3.3073,-3.3807,-3.3807,-3.3807,-3.3807,-3.3807,-3.3807,-3.3348,-3.2357,-3.2504,-3.221,-3.1403,-3.2008,-3.2412,-3.2614,-3.3421,-3.3476,-3.2908,-3.3532,-3.3807,-3.377,-3.3146,-3.3348,-3.4082,-3.388,-3.3917,-3.4119,-3.4559,-3.4357,-3.3807,-3.3807,-3.3807,-3.3715,0.0,0.0,0.0,0.0,0.0,0.0,0.0,0.0,0.0,0.0,0.0,0.0,0.0,0.0,0.0,0.0,0.0,0.0,0.0,-1.2045,-1.2086,-1.1854,-1.1848,-1.2279,-1.3217,-1.3576,-1.4105,-1.4836,-1.5424,-1.5713,-1.5685,-1.4986,-1.4412,-1.3966,-1.3727,-1.3072,-1.2164,-1.1933,-1.1826,-1.1805,-1.1805,0.0,0.0,0.0,0.0,0.0,0.0,0.0,0.0,0.0,0.0,0.0,0.0,0.0,-1.0187,-1.0775,-0.9975,-0.9518,-1.238,-1.216,-1.1823,-1.4851,-1.4479,0.0,-1.8048,-1.7101,0.0,-2.0314,0.0,0.0,0.0,-2.1895,-2.2922,-2.705,-2.8129,-2.9329,-3.1858,0.0,-3.2562,-3.334,-3.2826,-3.2742,-3.355,-3.3733,-3.3807,-3.3807,-3.3807,-3.3807,-3.3807,-3.3807,-3.3091,-3.1531,-3.221,-3.221,-3.1403,-3.1458,-3.1861,-3.2614,-3.3421,-3.377,-3.3715,-3.377,-3.3807,-3.3807,-3.3733,-3.4174,-3.4844,-3.4119,-3.4247,-3.4844,-3.4174,-3.3844,-3.3807,-3.3807,-3.3807,-3.3788,0.0,0.0,0.0,0.0,0.0,0.0,0.0,0.0,0.0,0.0,0.0,-1.0638,-1.0488,0.0,0.0,0.0,0.0,0.0,0.0,-1.1876,-1.1912,-1.179,-1.1805,-1.217,-1.2924,-1.3103,-1.3496,-1.4184,-1.5069,-1.5118,-1.4387,-1.4426,-1.3905,-1.2911,-1.2826,-1.2443,-1.1976,-1.2024,-1.194,-1.1805,-1.1805,-1.1897,0.0,0.0,0.0,0.0,0.0,0.0,0.0,0.0,-0.9549,-1.0225,-0.9788,-1.0127,-1.0555,-0.9924,-0.9332,-0.9349,-1.1415,-1.1536,-1.1925,-1.5428,-1.5172,0.0,0.0,-1.8589,-1.8589,-2.1887,-2.1972,0.0,0.0,0.0,-2.3797,-2.7687,-2.8982,-3.0063,-3.1616,-3.2284,-3.254,-3.232,-3.2045,-3.2173,-3.2981,-3.3054,-3.3256,-3.3752,-3.3348,-3.3054,-3.3054,-3.2577,-3.1788,-3.0687,-3.0944,-3.0723,-2.9934,-3.0393,-3.0815,-3.1127,-3.243,-3.333,-3.3807,-3.3807,-3.3807,-3.3807,-3.3807,-3.3972,-3.4229,-3.3935,-3.3972,-3.4229,-3.3917,-3.3807,-3.3807,-3.3807,-3.3807,-3.3807,0.0,0.0,0.0,0.0,0.0,0.0,0.0,0.0,-0.9743,0.0,0.0,0.0,0.0,-1.1536,0.0,0.0,0.0,0.0,-1.1805,-1.1805,-1.1805,-1.1805,-1.1805,-1.1999,-1.2486,-1.2463,-1.2944,-1.392,-1.472,-1.4648,-1.3788,-1.4018,-1.3514,-1.2451,-1.2372,-1.2215,-1.205,-1.2149,-1.2086,-1.1933,-1.1933,-1.2086,0.0,0.0,0.0,0.0,0.0,0.0,0.0,0.0,-0.9508,-1.0051,-0.9983,-1.0178,-1.0348,-1.006,-0.9467,-0.9213,-1.069,-1.1096,-1.1891,0.0,0.0,0.0,-1.9816,-1.9993,-2.0247,-2.3613,-2.4103,0.0,0.0,0.0,0.0,0.0,-2.9089,-3.0099,-3.0907,-3.1715,-3.2027,-3.1458,-3.1182,-3.1329,-3.2137,-3.2228,-3.2449,-3.2999,-3.254,-3.2228,0.0,-3.1696,-3.1017,-3.0228,-3.021,-2.9953,-2.936,-2.9677,-3.021,-3.098,-3.1825,-3.2651,-3.3421,-3.3421,-3.3568,-3.3807,-3.3807,-3.3807,-3.3807,-3.3807,-3.3807,-3.3807,-3.3807,-3.3807,-3.3807,-3.3807,-3.3807,-3.3807,0.0,0.0,0.0,0.0,0.0,0.0,0.0,0.0,-0.9353,-1.0618,-1.0279,0.0,0.0,0.0,0.0,0.0,0.0,0.0,-1.1805,-1.1805,-1.1805,-1.1805,-1.1805,-1.1805,-1.1805,-1.1805,-1.2591,-1.4177,-1.4528,-1.4505,-1.4185,-1.3854,-1.3456,-1.2995,-1.2722,-1.2607,-1.2572,-1.2312,-1.2205,-1.219,-1.219,-1.2356,-1.2511,0.0,0.0,0.0,0.0,0.0,0.0,0.0,-0.9401,-0.9298,-1.1553,0.0,-0.9365,-1.162,-1.0703,-0.9247,-1.0707,-1.1113,0.0,0.0,0.0,0.0,-2.1278,-2.116,-2.1292,-2.5461,0.0,-2.7285,-2.6854,0.0,0.0,-2.6976,-2.8263,-2.9292,-3.0099,-3.0889,-3.1384,-3.1366,-3.0668,-3.0503,-3.1311,-3.1384,-3.1384,-3.1384,-3.1384,-3.1384,0.0,-3.1366,-3.0999,-3.021,-3.0191,-3.0191,-3.0191,-2.9402,-3.0186,-3.2577,-3.177,-3.1825,-3.2614,-3.2614,-3.3054,-3.3807,-3.3807,-3.3807,-3.3807,-3.3807,-3.3807,-3.3807,-3.3807,-3.3807,-3.3807,-3.3807,-3.3807,-3.3807,0.0,0.0,0.0,0.0,0.0,0.0,0.0,0.0,-0.9203,-1.0054,-1.0383,0.0,0.0,0.0,0.0,0.0,0.0,0.0,-1.1805,-1.1805,-1.1805,-1.1805,-1.1805,-1.1805,-1.1805,-1.1982,-1.2307,-1.2793,-1.3412,-1.359,-1.3367,-1.4121,-1.3847,-1.2754,-1.3468,-1.3245,-1.2343,-1.2743,-1.2728,-1.2475,-1.2475,-1.2646,-1.2722,0.0,0.0,0.0,0.0,0.0,0.0,0.0,0.0,0.0,-0.9836,0.0,-1.0572,-1.1248,-1.0978,-1.0788,-1.2312,-1.2331,0.0,-1.5358,0.0,0.0,0.0,-2.1583,0.0,0.0,-2.7332,-2.7201,-2.6809,0.0,0.0,-2.7682,-2.8463,-2.9292,-3.0099,-3.0411,-3.0356,-2.9787,-2.9512,-2.9677,-3.0485,-3.0558,-3.0797,-3.1347,-3.087,-3.0558,0.0,-3.0026,-2.9604,-2.9365,-2.9365,-2.9365,-2.9365,-2.9104,-2.9342,-3.0057,-3.0411,-3.1568,-3.344,-3.344,-3.3568,-3.3807,-3.3807,-3.3807,-3.3807,-3.3807,-3.3807,-3.3807,-3.3807,-3.3807,-3.3807,-3.3807,-3.3807,-3.3807,0.0,0.0,0.0,0.0,0.0,0.0,-0.9443,-0.9175,-0.9055,-0.9443,-1.0054,-1.0529,0.0,0.0,0.0,-1.1805,-1.1805,0.0,-1.1805,-1.1805,-1.1805,-1.1805,-1.1805,-1.1805,-1.1805,-1.1961,-1.2024,-1.2024,-1.311,-1.3484,-1.3271,-1.443,-1.4182,-1.2808,-1.378,-1.3584,-1.2542,-1.295,-1.2971,-1.2759,-1.2759,-1.2924,-1.3005,0.0,0.0,0.0,0.0,0.0,0.0,0.0,0.0,0.0,0.0,0.0,0.0,-1.0758,-1.1096,-1.1773,-1.2719,-1.3058,0.0,-1.6851,-1.7912,-1.8826,-2.1109,0.0,0.0,0.0,0.0,-2.8004,-2.7892,-2.7987,0.0,-2.8358,-2.8998,-2.9549,-2.9714,-3.0008,-2.9898,-2.9085,-2.8723,-2.8705,-2.92,-2.9255,-2.9439,-2.9916,-2.9824,0.0,0.0,-2.925,-2.8994,-2.8994,-2.8994,-2.8994,-2.8994,-2.8994,-2.914,-2.9494,-2.9971,-3.1127,-3.2852,-3.3183,-3.3495,-3.3807,-3.3807,-3.3807,-3.3807,-3.3807,-3.3807,-3.3807,-3.3807,-3.3807,-3.3807,-3.3807,-3.3807,-3.3807,0.0,0.0,-0.8184,-0.88,0.0,0.0,-0.8905,-0.8905,-0.8905,-0.8905,-0.9533,-1.0189,0.0,0.0,0.0,-1.1805,-1.1805,-1.1805,-1.1805,-1.1805,-1.1805,-1.1805,-1.1805,-1.1805,-1.1805,-1.1805,-1.1811,-1.1876,-1.3231,-1.3787,-1.3626,-1.4684,-1.443,-1.3145,-1.3939,-1.3807,-1.2995,-1.3061,-1.3063,-1.3049,-1.3049,-1.3173,-1.3312,-1.25,0.0,0.0,0.0,0.0,0.0,0.0,0.0,0.0,-0.9692,-1.0419,-1.0876,-1.0271,-1.1197,-1.2432,-1.2567,0.0,0.0,-1.8082,-1.8961,0.0,-2.2101,-2.4551,-2.6683,-2.8112,0.0,-2.929,-2.9494,-2.9068,-2.8724,-2.8997,-2.9635,-2.9861,-2.9195,-2.9696,-2.9787,-2.8975,-2.8246,-2.7769,-2.7695,-2.775,-2.7787,-2.7787,-2.8558,0.0,-2.8994,-2.8994,-2.8994,-2.8994,-2.8994,-2.8994,-2.8994,-2.8994,-2.9384,-3.0099,-3.0173,-3.0577,-3.1311,-3.221,-3.3054,-3.3807,-3.3715,-3.3733,-3.3807,-3.3807,-3.3807,-3.3807,-3.3807,-3.3807,-3.3807,-3.3807,-3.3807,-3.3807,0.0,0.0,-0.8725,-0.8875,0.0,0.0,-0.8905,-0.8905,-0.8905,-0.8905,-0.989,-1.0648,-1.0783,-1.1401,0.0,-1.1805,-1.1805,-1.1805,-1.1805,-1.1805,-1.1805,-1.1805,-1.1805,-1.1805,-1.1805,-1.1805,-1.2024,-1.2435,-1.2334,-1.2775,-1.3684,-1.4519,-1.4516,-1.3906,-1.5188,-1.4722,-1.3028,-1.3549,-1.3599,-1.3311,-1.3311,-1.3346,-1.3244,-1.1874,-1.1248,0.0,0.0,0.0,0.0,0.0,0.0,0.0,-0.9095,-0.9641,-1.0322,-1.0741,-1.1959,-1.343,-1.458,-1.4699,0.0,0.0,-1.9384,-2.1521,-2.4637,-2.5819,-2.6467,-2.7386,-2.8588,-2.9457,-2.9176,-2.9538,-2.9753,-2.9515,-2.9345,-2.9439,-2.9879,-2.9549,-2.8962,-2.8154,-2.7897,-2.7548,-2.6924,-2.742,-2.7787,-2.7787,0.0,0.0,-2.8994,-2.8994,-2.8994,-2.8994,-2.8994,-2.8994,-2.8994,-2.8994,-2.9085,0.0,-2.9898,-3.0283,-3.0503,-3.1953,-3.3054,-3.3752,-3.3128,-3.322,-3.3807,-3.3807,-3.3807,-3.3807,-3.3807,-3.3807,-3.3807,-3.3807,-3.3807,-3.3807,0.0,0.0,0.0,0.0,0.0,0.0,0.0,0.0,-0.9713,-0.9413,-1.0488,-1.1401,-1.1715,-1.2358,0.0,0.0,-1.2762,-1.2613,-1.2284,-1.2291,-1.2134,-1.1805,-1.1805,-1.1805,-1.1805,-1.2104,-1.2409,-1.2712,-1.2906,-1.3382,-1.41,-1.485,-1.5043,-1.4847,-1.5591,-1.5108,-1.3707,-1.3705,-1.3577,-1.3396,-1.3396,-1.3193,-1.2803,-1.1975,-1.1214,-1.047,-0.9709,0.0,0.0,0.0,0.0,0.0,0.0,0.0,-1.047,-1.0145,-1.1398,-1.3125,-1.4225,0.0,0.0,-1.9232,0.0,-2.283,-2.5132,-2.5669,-2.5918,-2.7025,-2.8506,-2.9413,-2.8818,-2.9533,-3.0015,-2.9423,-2.9137,-2.914,-2.9586,-2.8943,-2.8282,-2.7842,-2.7108,-2.6631,-2.6612,-2.6979,-2.7383,-2.7769,0.0,-2.8994,-2.8994,-2.8994,-2.8994,-2.8994,-2.8994,-2.8994,-2.8994,-2.8994,-2.8994,-2.8994,-2.9439,-2.9843,-3.0246,-3.188,-3.2834,-3.322,-3.3201,-3.3421,-3.3807,-3.3807,-3.3807,-3.3807,-3.3807,-3.3807,-3.3807,-3.3807,-3.3807,-3.3807,0.0,0.0,0.0,0.0,0.0,0.0,0.0,0.0,0.0,-1.0443,-1.1416,-1.2358,-1.2897,-1.3361,-1.363,0.0,0.0,0.0,-1.2666,-1.2741,-1.2561,-1.1999,-1.1969,-1.2029,-1.2149,-1.2591,-1.2907,-1.3129,-1.3946,-1.4599,-1.5069,-1.5657,-1.5927,-1.5967,-1.5849,-1.5308,-1.4427,-1.3565,-1.3278,-1.3379,-1.3108,-1.2736,-1.2263,-1.2009,-1.1113,-0.9984,-0.9849,-0.9421,-0.8891,-0.8891,0.0,0.0,0.0,0.0,-1.0483,-0.9247,-1.0416,-1.2263,-1.3007,0.0,-1.7693,-2.1075,-2.2479,0.0,-2.4691,-2.4882,-2.523,-2.6727,-2.8167,-2.9006,-2.8424,-2.9211,-2.9769,-2.9104,-2.8865,-2.8796,-2.8796,-2.8099,-2.753,-2.7402,-2.6211,-2.5658,-2.6337,-2.6521,-2.6924,-2.7732,0.0,-2.8994,-2.8994,-2.8994,-2.8994,-2.8994,-2.8994,-2.8994,-2.8994,-2.8994,-2.8994,-2.8994,-2.8994,-2.9342,-3.0044,-3.1531,-3.2265,-3.243,-3.2944,-3.333,-3.3587,-3.344,-3.355,-3.3788,-3.3642,-3.3678,-3.3807,-3.3807,-3.3807,-3.3807,0.0,0.0,0.0,0.0,0.0,0.0,0.0,0.0,0.0,0.0,-1.3062,-1.357,-1.366,-1.3226,-1.2936,-1.2936,-1.2403,-1.2029,-1.1939,0.0,0.0,-1.2681,-1.2666,-1.2927,-1.3525,-1.3047,-1.3329,-1.4447,-1.4588,-1.5576,-1.7349,-1.7221,-1.7294,-1.749,-1.683,-1.5781,-1.441,-1.3024,-1.282,-1.3278,-1.1957,-1.1773,-1.2145,-1.0825,-1.017,-0.9916,-0.9281,-0.8976,-0.8891,-0.8891,-0.8891,0.0,0.0,0.0,-0.9145,-0.8959,-1.0026,-1.1434,0.0,0.0,-1.8082,0.0,-2.0906,-2.2019,0.0,0.0,-2.4541,0.0,-2.6947,-2.7592,-2.7839,-2.8567,-2.9122,-2.9012,-2.8429,-2.7952,-2.7952,-2.7273,-2.6502,-2.5807,-2.5531,-2.5439,-2.555,-2.619,-2.6924,0.0,-2.8558,-2.8994,-2.8994,-2.8994,-2.8994,-2.8994,-2.8994,-2.8994,-2.8994,-2.8994,-2.8994,-2.8994,-2.8994,-2.9049,-2.92,-3.0099,-3.0907,-3.1531,-3.0944,-3.1476,-3.2724,-3.2008,-3.254,-3.3733,-3.3036,-3.3201,-3.3807,-3.3807,-3.3807,-3.3807,0.0,0.0,0.0,0.0,0.0,0.0,0.0,0.0,0.0,0.0,0.0,-1.4498,-1.4872,-1.4303,-1.3925,-1.3925,-1.3301,-1.2762,-1.2373,-1.2269,-1.2426,-1.2786,-1.2456,-1.2538,-1.3226,-1.2966,-1.3249,-1.4199,-1.4382,-1.5855,0.0,-1.8162,-1.8174,-1.8403,-1.8065,-1.6881,-1.5071,-1.4428,-1.3616,-1.272,-1.2043,-1.1468,-1.0944,-1.0254,-0.9743,-0.9337,-0.901,-0.8891,-0.8891,-0.8891,-0.8891,-0.8891,-0.8891,0.0,0.0,0.0,-0.9349,0.0,-1.3362,-1.5037,-1.6809,0.0,-2.0602,-2.0679,-2.3519,0.0,-2.3142,-2.4813,-2.5403,-2.5877,-2.6713,-2.7661,-2.8338,-2.8338,-2.7658,-2.7291,-2.7732,-2.6722,-2.5786,-2.5439,-2.5017,-2.5071,-2.597,-2.6392,-2.7126,0.0,-2.8792,-2.8792,-2.8356,-2.8778,-2.8796,-2.8338,-2.8778,-2.8796,-2.8338,-2.8338,-2.8338,-2.8338,-2.8796,-2.8994,-2.8994,-2.9384,-2.9971,-3.0723,-3.0834,-3.1274,-3.1935,-3.2027,-3.2504,-3.3146,-3.3238,-3.3495,-3.3807,-3.3807,-3.3807,-3.3733,0.0,0.0,0.0,0.0,0.0,0.0,0.0,0.0,0.0,0.0,0.0,-1.5231,-1.5754,0.0,0.0,0.0,-1.3929,-1.3256,-1.2606,-1.2224,-1.2291,-1.2786,-1.2314,-1.2358,-1.3032,-1.2891,-1.3154,-1.3945,-1.4419,0.0,-1.8594,-1.879,-1.8993,0.0,-1.8978,-1.798,-1.639,-1.5832,-1.4546,-1.2838,-1.2652,-1.1654,0.0,0.0,-0.9777,-0.9433,-0.9247,-0.9298,-0.9433,-0.9247,-0.9179,-0.9145,-0.8959,-0.8891,0.0,0.0,0.0,0.0,0.0,0.0,-1.5559,-2.0035,-1.9891,-1.9318,0.0,0.0,-2.1378,0.0,-2.3894,-2.4499,-2.5117,-2.6343,-2.7237,-2.7237,-2.6626,-2.6377,-2.6984,-2.5928,-2.5109,-2.5109,-2.4557,-2.474,-2.6153,-2.63,0.0,0.0,-2.8388,-2.8136,-2.753,-2.8062,-2.8136,-2.7512,-2.8081,-2.8099,-2.7493,-2.7493,-2.7493,-2.7493,-2.8099,-2.848,-2.8705,-2.8705,-2.9145,-2.9934,-3.0522,-3.0907,-3.1127,-3.1531,-3.2063,-3.2651,-3.3036,-3.344,-3.3807,-3.3807,-3.3807,-3.3715,0.0,0.0,0.0,0.0,0.0,0.0,0.0,0.0,0.0,0.0,0.0,-1.5769,-1.5799,-1.5214,-1.4543,-1.3914,-1.3226,-1.2576,-1.1895,-1.2426,-1.2771,-1.2801,-1.2771,0.0,-1.3735,-1.3145,-1.3281,-1.4272,0.0,0.0,-1.7531,-1.9152,-1.9934,-1.99,-1.9215,-1.8826,-1.8589,0.0,0.0,0.0,0.0,0.0,0.0,0.0,0.0,0.0,0.0,-1.0402,-1.0876,-1.0183,-0.9933,-0.9815,-0.9128,-0.8891,0.0,0.0,0.0,0.0,0.0,-1.4005,0.0,-1.7456,0.0,0.0,0.0,0.0,0.0,-2.0477,-2.2459,-2.3789,-2.3033,-2.4433,-2.5707,-2.5707,-2.5303,-2.4996,-2.5032,-2.4598,-2.4263,-2.4263,-2.4226,-2.452,-2.5384,-2.5476,0.0,0.0,-2.6722,-2.6722,-2.6667,-2.6704,-2.6722,-2.6667,-2.6704,-2.6704,-2.6667,-2.6667,-2.6667,-2.6667,-2.6704,-2.7126,-2.786,-2.786,-2.8301,-2.9049,-2.9104,-2.9567,-3.021,-2.947,-3.0558,-3.254,-3.1806,-3.2449,-3.3807,-3.3807,-3.3807,-3.3788,0.0,0.0,0.0,0.0,0.0,0.0,0.0,0.0,0.0,0.0,0.0,0.0,0.0,-1.5214,-1.4528,-1.387,-1.2792,-1.2224,-1.2441,-1.2666,-1.2801,-1.2801,-1.2801,-1.2921,-1.3136,-1.2493,-1.2546,0.0,0.0,-1.4722,-1.7085,-1.7441,-1.8457,-2.0035,-2.0771,-2.001,-1.82,-1.8369,0.0,0.0,0.0,0.0,0.0,0.0,0.0,0.0,0.0,0.0,0.0,-1.0575,-1.0001,0.0,0.0,0.0,0.0,0.0,0.0,0.0,0.0,0.0,0.0,-1.7726,-1.7777,-1.75,-1.9041,-1.9491,-1.9713,-2.0108,-2.1643,-2.2668,-2.1883,-2.3414,-2.4832,-2.4832,-2.4248,-2.4068,-2.4807,-2.4302,-2.3976,-2.417,-2.419,-2.452,-2.5329,-2.5403,0.0,0.0,0.0,-2.5823,-2.5823,-2.5823,-2.5823,-2.5823,-2.6337,-2.6355,-2.5823,-2.5823,-2.5823,-2.5841,-2.6869,-2.7512,-2.7824,-2.8338,-2.8741,-2.8994,-2.8994,-2.914,-2.9457,-2.9696,-3.0577,-3.1843,-3.2082,-3.2834,-3.3807,-3.3807,-3.3807,-3.3733,0.0,0.0,0.0,0.0,0.0,-1.2358,-1.3017,-1.3705,-1.4378,-1.5064,0.0,0.0,0.0,0.0,-1.4857,-1.4199,-1.2912,-1.2314,-1.2771,-1.2801,-1.2711,-1.2486,-1.2906,-1.2912,-1.2486,-1.2584,-1.2629,0.0,0.0,0.0,0.0,-1.6541,-1.7685,-1.9309,-2.0602,-2.0331,0.0,0.0,0.0,-1.5361,0.0,0.0,-1.3041,0.0,0.0,0.0,0.0,0.0,0.0,0.0,0.0,0.0,0.0,0.0,0.0,0.0,0.0,0.0,-1.2854,0.0,0.0,0.0,0.0,-1.7037,-1.8251,0.0,-1.9613,-1.9613,-2.1059,-2.2158,-2.1651,-2.2746,-2.3702,-2.3702,-2.3323,-2.3312,-2.4058,-2.3907,-2.3795,-2.3996,-2.4113,-2.441,-2.4962,0.0,0.0,0.0,0.0,0.0,-2.5017,-2.5017,-2.5017,-2.5017,-2.5511,-2.5529,-2.5017,-2.5017,-2.5017,-2.5017,-2.608,-2.6869,-2.742,-2.7952,-2.848,-2.8994,-2.8994,-2.8994,-2.903,-2.9586,-3.043,-3.1439,-3.199,-3.2852,-3.3807,-3.3807,-3.3807,-3.3742,0.0,0.0,-1.0842,-1.0872,-1.1954,-1.3071,-1.3735,-1.4378,-1.5049,-1.5709,0.0,0.0,0.0,0.0,0.0,-1.4872,-1.361,-1.2846,-1.2861,-1.2861,-1.2576,-1.1895,-1.3121,-1.3196,-1.1895,-1.3421,-1.3572,0.0,0.0,0.0,0.0,0.0,-1.7743,-1.7777,-1.8538,-1.9672,-2.1085,0.0,-2.0247,-1.8775,0.0,-1.7405,-1.6495,0.0,0.0,0.0,-1.6462,-1.6255,0.0,-1.6479,0.0,0.0,0.0,0.0,0.0,0.0,0.0,0.0,0.0,0.0,0.0,0.0,0.0,0.0,-1.5832,0.0,-1.886,-1.8894,-2.0686,-2.226,-2.2276,-2.2293,-2.231,-2.231,-2.2527,-2.2695,-2.2695,-2.3259,-2.3671,-2.3692,-2.3996,-2.419,-2.419,0.0,0.0,0.0,-2.4171,-2.4171,-2.419,-2.419,-2.419,-2.419,-2.419,-2.419,-2.419,-2.419,-2.419,-2.419,-2.4226,-2.5071,-2.6612,-2.6631,-2.7512,-2.8994,-2.8994,-2.8994,-2.8994,-2.8994,-2.9934,-3.1366,-3.1384,-3.2357,-3.377,-3.3788,-3.3807,-3.3842,0.0,-1.0952,-1.1835,-1.2807,-1.3286,-1.375,-1.4408,-1.4677,-1.5049,0.0,0.0,0.0,0.0,-1.5379,-1.5214,-1.5499,-1.4288,-1.3735,-1.4199,-1.427,-1.3944,-1.3286,-1.3615,-1.363,-1.3256,-1.2735,-1.2546,0.0,0.0,0.0,0.0,0.0,-1.6204,-1.6255,-1.754,-1.8031,-1.8054,-1.9655,0.0,-1.7545,-2.0044,-1.8674,0.0,0.0,0.0,0.0,0.0,-1.7371,-1.7151,0.0,-1.5954,-1.48,0.0,0.0,0.0,0.0,0.0,0.0,-1.409,0.0,0.0,0.0,0.0,0.0,-1.7253,-1.7659,-1.8268,-1.8792,-1.9841,-2.0795,-2.1397,-2.1938,-2.231,-2.231,-2.236,-2.249,-2.2669,-2.2873,-2.3165,-2.3649,-2.3795,-2.3937,0.0,0.0,0.0,0.0,-2.3657,-2.3584,-2.4171,-2.419,-2.419,-2.419,-2.419,-2.419,-2.419,-2.419,-2.419,-2.4208,-2.4777,-2.5603,-2.6631,-2.72,-2.8026,-2.8994,-2.8994,-2.8994,-2.8994,-2.8994,-2.9622,-3.0595,-3.1164,-3.2027,-3.2999,-3.3587,-3.391,-3.4099,-1.1386,-1.2179,-1.2882,-1.3675,-1.4034,-1.4348,-1.4737,-1.5049,-1.5364,0.0,0.0,0.0,0.0,0.0,-1.5379,-1.5769,-1.4812,-1.4378,-1.4767,-1.4797,-1.4498,-1.384,-1.4333,-1.4378,-1.3825,-1.3718,-1.3426,0.0,0.0,0.0,0.0,0.0,0.0,-1.502,-1.6315,-1.6564,-1.6181,0.0,0.0,0.0,-2.0128,0.0,0.0,-1.9427,-1.892,0.0,0.0,0.0,-1.8735,-1.8961,-1.8115,0.0,0.0,0.0,0.0,0.0,0.0,0.0,0.0,0.0,0.0,0.0,0.0,0.0,-1.7405,-1.8065,-1.8758,0.0,-2.001,-2.1025,-2.1187,-2.1532,-2.1837,-2.1837,-2.1837,-2.2004,-2.2476,-2.2634,-2.2848,-2.3253,-2.3414,-2.361,0.0,-2.3996,-2.4054,-2.419,-2.3768,-2.3712,-2.4171,-2.419,-2.419,-2.419,-2.419,-2.419,-2.419,-2.419,-2.419,-2.4208,-2.4667,-2.5309,-2.6135,-2.6924,-2.7732,-2.8521,-2.8847,-2.8994,-2.8994,-2.8994,-2.9475,-3.0283,-3.1091,-3.188,-3.2706,-3.3495,-3.3902,-3.3988,0.0,-1.3451,-1.3944,-1.4019,-1.4513,-1.4902,-1.4902,-1.5424,-1.5799,0.0,-1.5799,0.0,0.0,0.0,0.0,0.0,-1.5259,-1.4902,-1.4902,-1.4902,-1.4648,-1.4049,-1.5109,-1.5184,-1.4049,-1.5331,-1.5134,0.0,0.0,0.0,0.0,0.0,0.0,-1.4139,-1.502,-1.5271,-1.5023,0.0,0.0,-1.9478,-1.9164,-2.0196,0.0,0.0,-2.0052,-1.9968,-2.1701,-2.1302,-2.0221,-2.1701,-2.0839,0.0,0.0,0.0,0.0,0.0,-1.6881,0.0,0.0,0.0,0.0,0.0,-1.732,0.0,-1.6965,-1.8285,-1.9478,-1.8995,-2.045,-2.1651,-2.1143,-2.1085,-2.1085,-2.1085,-2.1085,-2.1295,-2.1955,-2.2398,-2.2617,-2.247,-2.2867,0.0,-2.361,-2.3631,-2.3795,-2.4113,-2.417,-2.419,-2.419,-2.419,-2.419,-2.419,-2.419,-2.419,-2.419,-2.419,-2.419,-2.419,-2.419,-2.4667,-2.5568,-2.6264,-2.709,-2.797,-2.8705,-2.8994,-2.8994,-2.8994,-2.9439,-3.0173,-3.1035,-3.1843,-3.2577,-3.3366,-3.3742,-3.3747,-1.3451,-1.4139,-1.4767,-1.5319,-1.5529,-1.5604,-1.5604,-1.5724,-1.5799,-1.5799,-1.5799,0.0,0.0,0.0,0.0,0.0,-1.5679,-1.5604,-1.5604,-1.5604,-1.5559,-1.5424,-1.5154,-1.5139,-1.5409,-1.4683,-1.4091,-1.3675,0.0,0.0,0.0,0.0,0.0,0.0,-1.4275,-1.4159,-1.3834,0.0,0.0,-1.6661,-1.8887,0.0,-1.9722,-2.1278,-2.0322,-1.8582,-2.1329,-2.1302,-2.0137,-2.1092,-2.1136,-2.0492,0.0,0.0,0.0,-1.7896,0.0,0.0,0.0,0.0,0.0,0.0,0.0,0.0,-1.7625,-1.7456,-1.7625,0.0,-1.8775,-1.9012,-2.0035,-2.0221,-2.0221,-2.0221,-2.0221,-2.0272,-2.0424,-2.1569,-2.2019,-2.1049,-2.2024,0.0,-2.3277,-2.33,-2.3455,-2.3774,-2.4054,-2.419,-2.419,-2.419,-2.419,-2.419,-2.419,-2.419,-2.419,-2.419,-2.419,-2.419,-2.419,-2.4961,-2.6374,-2.6539,-2.7402,-2.8755,-2.892,-2.8994,-2.8994,-2.8994,-2.9085,-2.936,-3.0834,-3.1494,-3.1733,-3.254,-3.3382,-3.3918,-1.4588,-1.5079,-1.5409,-1.5739,-1.5799,-1.5799,-1.5799,-1.5799,-1.5799,-1.5799,-1.6054,0.0,0.0,0.0,0.0,0.0,0.0,0.0,0.0,-1.5799,-1.5799,-1.5799,-1.5484,-1.5469,-1.5784,-1.5154,-1.4633,-1.4303,0.0,0.0,0.0,0.0,0.0,0.0,0.0,-1.3834,-1.3794,0.0,-1.5482,-1.6647,-1.9041,0.0,-1.9672,-2.1583,-2.138,-2.0247,-2.1769,-2.1792,-2.116,-2.1177,-2.1204,0.0,0.0,-1.9519,-1.8826,0.0,-1.8099,-1.7811,0.0,0.0,0.0,-1.7811,0.0,0.0,0.0,-1.7523,-1.7896,-1.8268,-1.8633,-1.9005,-1.9384,-1.9452,-1.9452,-1.9452,-1.9123,-1.8768,-1.842,-2.0314,-2.1654,-2.143,-2.2055,0.0,-2.2923,-2.2947,-2.3165,-2.3671,-2.4016,-2.419,-2.419,-2.419,-2.419,-2.419,-2.419,-2.419,-2.419,-2.419,-2.419,-2.419,-2.419,-2.4832,-2.6007,-2.6429,-2.7273,-2.8429,-2.881,-2.8994,-2.8994,-2.8994,-2.8994,-2.9104,-3.0338,-3.0797,-3.0889,-3.1696,-3.233,-3.268,-1.5589,-1.5799,-1.5799,-1.5799,-1.5799,-1.5799,-1.5799,-1.5903,-1.6038,-1.6158,-1.6608,0.0,0.0,0.0,0.0,0.0,0.0,0.0,0.0,-1.6098,-1.6068,-1.5814,-1.5799,-1.5799,-1.5799,-1.5799,-1.5484,-1.4797,0.0,0.0,0.0,0.0,0.0,0.0,0.0,0.0,0.0,0.0,0.0,-1.7548,0.0,-2.0069,-1.9982,-2.1663,-2.2153,-2.2006,-2.2215,-2.231,-2.2164,-2.1377,-2.108,-2.1063,-2.0911,-1.9917,0.0,0.0,0.0,0.0,0.0,0.0,0.0,0.0,0.0,-1.7828,0.0,0.0,0.0,0.0,0.0,0.0,0.0,0.0,0.0,0.0,0.0,0.0,0.0,-1.9053,0.0,-2.1177,-2.1228,0.0,-2.1918,-2.2225,-2.2729,-2.3548,-2.3976,-2.419,-2.419,-2.419,-2.419,-2.419,-2.419,-2.419,-2.419,-2.419,-2.419,-2.419,-2.419,-2.4612,-2.5439,-2.6227,-2.7034,-2.7842,-2.865,-2.8994,-2.8994,-2.8994,-2.8994,-2.9067,-2.9898,-3.021,-3.0283,-3.0925,-3.1256,-3.1366,-1.5769,-1.5799,-1.5799,-1.5799,-1.5799,-1.5799,-1.5799,-1.6263,-1.6816,0.0,0.0,0.0,0.0,0.0,0.0,0.0,0.0,0.0,-1.6682,0.0,-1.6982,-1.5844,-1.5799,-1.5799,-1.5799,-1.5799,-1.5484,-1.4797,-1.4797,0.0,0.0,0.0,0.0,0.0,-1.35,0.0,0.0,0.0,-1.6905,0.0,-2.0179,-2.0283,0.0,-2.1507,-2.1658,-2.0943,-2.1945,-2.231,-2.2136,0.0,-2.0671,-2.0555,0.0,-1.9105,-1.8526,-1.8822,0.0,0.0,0.0,0.0,0.0,0.0,-1.8775,0.0,0.0,0.0,-1.7912,-1.7828,0.0,0.0,0.0,0.0,0.0,0.0,0.0,0.0,-1.68,-1.8115,-1.8707,-1.7495,-1.7342,-1.785,0.0,-2.0463,-2.1763,-2.3152,-2.3837,-2.419,-2.419,-2.419,-2.419,-2.419,-2.419,-2.419,-2.419,-2.419,-2.419,-2.419,-2.419,-2.4612,-2.5439,-2.6227,-2.7034,-2.7842,-2.865,-2.8994,-2.8994,-2.8994,-2.8994,-2.9067,-2.9898,-3.021,-3.021,-3.0301,-3.0797,-3.1292,-1.5799,-1.5799,-1.5799,-1.5799,-1.5799,-1.5933,-1.6278,-1.6861,-1.7384,0.0,0.0,0.0,0.0,0.0,0.0,0.0,0.0,-1.9465,0.0,0.0,0.0,-1.7505,-1.6742,-1.6338,-1.6338,-1.5964,-1.5664,-1.5379,-1.5379,0.0,0.0,0.0,0.0,0.0,-1.3505,0.0,-1.6413,0.0,-1.7098,0.0,0.0,0.0,0.0,-2.1366,-2.2006,-2.1591,-2.163,-2.1938,-2.2096,0.0,-2.0661,0.0,0.0,0.0,0.0,0.0,0.0,0.0,0.0,0.0,0.0,0.0,0.0,0.0,-1.8504,0.0,-1.7811,0.0,0.0,0.0,0.0,0.0,0.0,0.0,-1.639,0.0,0.0,0.0,-1.6424,0.0,0.0,0.0,0.0,0.0,0.0,0.0,-2.226,-2.2629,-2.2629,-2.3638,-2.419,-2.419,-2.419,-2.419,-2.419,-2.419,-2.419,-2.419,-2.419,-2.4612,-2.5421,-2.575,-2.6594,-2.7824,-2.8154,-2.8576,-2.8994,-2.8994,-2.8994,-2.9012,-2.9384,-2.9512,-2.9512,-2.9512,-2.9732,-3.0099,-1.6039,0.0,-1.5799,-1.5799,-1.5948,-1.6323,-1.713,-1.7802,-1.8295,0.0,0.0,0.0,-2.0168,-2.0348,0.0,0.0,-2.0976,-2.0692,0.0,0.0,-1.9166,0.0,0.0,0.0,-1.698,-1.6368,-1.5978,-1.5799,-1.5799,0.0,0.0,0.0,0.0,0.0,0.0,-1.4726,-1.6888,0.0,-1.7606,-1.9246,-1.9655,-1.9613,-1.9462,-2.1197,-2.1967,-2.2068,-2.1657,-2.1781,-2.1905,-2.0595,-2.07,0.0,-2.0415,0.0,0.0,0.0,0.0,0.0,-2.0305,0.0,0.0,0.0,0.0,0.0,0.0,0.0,0.0,0.0,0.0,0.0,0.0,0.0,0.0,0.0,0.0,-1.5561,0.0,0.0,0.0,0.0,0.0,0.0,0.0,0.0,0.0,0.0,0.0,-2.1425,-2.1207,-2.3106,-2.419,-2.419,-2.419,-2.419,-2.419,-2.419,-2.419,-2.419,-2.419,-2.4502,-2.509,-2.5311,-2.6174,-2.7475,-2.7695,-2.8264,-2.8994,-2.8994,-2.8865,-2.8705,-2.8902,-2.8888,-2.8723,-2.9182,-2.92,-2.925,-1.6682,-1.6204,0.0,-1.5799,-1.6293,-1.7115,-1.8448,-1.9196,-1.9869,0.0,0.0,0.0,0.0,0.0,0.0,0.0,0.0,-2.138,-2.0722,0.0,-2.0348,0.0,0.0,-1.7652,0.0,-1.701,-1.6383,-1.5799,-1.5799,0.0,0.0,0.0,0.0,0.0,-1.4735,-1.5393,-1.5975,-1.7625,-1.8959,-2.0094,-2.1589,-2.1903,-2.145,0.0,-2.1077,-2.1688,-2.2118,0.0,0.0,-2.0829,-2.0598,0.0,0.0,0.0,0.0,0.0,0.0,0.0,0.0,0.0,0.0,-2.1312,0.0,0.0,0.0,0.0,-1.8657,0.0,0.0,0.0,0.0,0.0,0.0,0.0,0.0,0.0,0.0,0.0,0.0,0.0,0.0,0.0,0.0,0.0,0.0,0.0,0.0,0.0,-2.046,-2.2832,-2.419,-2.419,-2.419,-2.419,-2.419,-2.419,-2.419,-2.419,-2.419,-2.4208,-2.4263,-2.5054,-2.5841,-2.6686,-2.7457,-2.8264,-2.8994,-2.8994,-2.8539,-2.7915,-2.8705,-2.8521,-2.8026,-2.9586,-2.9677,-2.9324,-1.7354,0.0,0.0,0.0,0.0,-1.7652,-1.8568,-1.9645,0.0,0.0,-2.1739,0.0,0.0,-2.3221,-2.2951,0.0,0.0,-2.3176,-2.2084,-2.2009,0.0,0.0,0.0,-1.9495,0.0,0.0,0.0,0.0,0.0,0.0,0.0,0.0,0.0,0.0,0.0,-1.5422,0.0,0.0,0.0,0.0,0.0,-2.0138,-1.9844,0.0,-2.1019,-2.1213,-2.1385,-2.1354,0.0,-2.0374,-2.0239,-2.0432,-2.0499,-2.0305,-2.0272,-2.1551,-2.1155,0.0,0.0,0.0,-2.1735,-2.2462,0.0,0.0,0.0,0.0,0.0,0.0,0.0,0.0,0.0,0.0,0.0,0.0,0.0,0.0,0.0,0.0,0.0,0.0,0.0,0.0,0.0,0.0,0.0,0.0,0.0,0.0,0.0,-2.0391,-2.241,-2.241,-2.3564,-2.419,-2.419,-2.419,-2.419,-2.419,-2.419,-2.419,-2.4208,-2.4483,-2.5346,-2.6631,-2.6888,-2.7769,-2.8957,-2.8429,-2.8044,-2.7824,-2.8099,-2.8044,-2.7934,-2.9017,-2.9214,-2.9177,-1.8119,-1.8268,0.0,0.0,0.0,0.0,0.0,0.0,0.0,0.0,-2.3251,0.0,-2.4852,0.0,-2.4448,0.0,-2.4148,-2.4014,-2.3415,-2.2936,0.0,-2.2996,-2.1754,0.0,0.0,0.0,0.0,0.0,0.0,-1.7055,0.0,0.0,0.0,0.0,0.0,-1.5342,-1.5739,-1.742,-1.8023,0.0,0.0,-1.9374,0.0,0.0,-2.0412,-2.0748,0.0,-2.0894,-2.0685,-2.04,-2.04,-2.0618,-2.0923,-2.0975,-2.1159,-2.2429,-2.1953,-2.1327,-2.2706,-2.2428,0.0,-2.2806,-2.1904,0.0,-2.0454,0.0,0.0,0.0,0.0,0.0,0.0,0.0,0.0,0.0,0.0,0.0,0.0,-1.5511,0.0,0.0,0.0,0.0,0.0,0.0,0.0,0.0,0.0,0.0,0.0,0.0,-2.1497,-2.1497,-2.3252,-2.419,-2.419,-2.419,-2.419,-2.419,-2.419,-2.419,-2.4208,-2.4502,-2.5181,-2.6209,-2.6778,-2.7457,-2.8136,-2.7897,-2.7622,-2.7402,-2.7677,-2.7787,-2.7934,-2.9017,-2.9622,-2.9934,-1.8867,-1.9286,-1.9346,0.0,-1.8957,0.0,0.0,0.0,-2.349,0.0,-2.5151,-2.5,-2.5644,-2.5181,-2.4731,-2.4597,-2.4059,-2.3939,-2.4492,-2.3445,0.0,0.0,-2.2517,-2.1844,-2.1739,0.0,0.0,0.0,0.0,0.0,0.0,0.0,0.0,0.0,-1.5814,0.0,-1.4369,-1.7244,-1.7883,-1.7104,-1.8686,-1.9694,-2.0088,-1.9099,-1.9353,-2.0314,-2.0797,-2.0665,-2.0348,-2.0797,-2.0942,-2.1054,-2.1756,-2.1979,-2.2175,-2.3341,-2.2913,-2.2407,-2.3957,-2.3543,-2.2611,-2.237,0.0,0.0,0.0,0.0,-2.0931,0.0,0.0,0.0,0.0,0.0,0.0,0.0,0.0,0.0,0.0,0.0,0.0,0.0,0.0,0.0,0.0,0.0,0.0,0.0,0.0,0.0,0.0,0.0,-2.1352,-2.1461,-2.316,-2.4116,-2.419,-2.4153,-2.4171,-2.4263,-2.4263,-2.4281,-2.4337,-2.5127,-2.5495,-2.5605,-2.709,-2.7328,-2.6722,-2.7438,-2.7291,-2.6686,-2.7493,-2.7824,-2.8044,-2.9586,-3.065,-3.1329,-1.9465,-1.9989,-2.0498,0.0,-2.0961,-2.1455,0.0,0.0,0.0,0.0,-2.6752,-2.7455,-2.7096,-2.738,-2.6782,-2.4746,-2.4911,0.0,0.0,0.0,0.0,-2.4358,-2.4522,-2.3924,-2.2458,-2.2532,-2.2128,-2.1186,0.0,0.0,-1.9151,0.0,0.0,0.0,0.0,0.0,-1.4116,-1.7637,-1.9231,-1.9341,-1.8477,-1.8525,-1.9084,0.0,-1.9176,-1.9874,-1.998,-1.9945,-1.9874,-1.998,-2.0015,-2.0192,-2.1155,-2.1479,-2.171,-2.286,-2.2955,-2.2748,-2.2652,-2.2409,-2.2198,-2.2183,-2.1323,-2.0562,0.0,0.0,0.0,0.0,0.0,0.0,0.0,0.0,0.0,0.0,0.0,0.0,0.0,0.0,0.0,-1.6411,0.0,0.0,0.0,0.0,0.0,0.0,0.0,0.0,0.0,0.0,0.0,-2.1079,-2.1765,-2.2792,-2.419,-2.3621,-2.3914,-2.509,-2.509,-2.5401,-2.5988,-2.6209,-2.6612,-2.7163,-2.6998,-2.7126,-2.7457,-2.7071,-2.6796,-2.6686,-2.7493,-2.8172,-2.8741,-2.914,-2.9824,-3.0411,-2.0139,-2.0677,-2.135,-2.2009,0.0,0.0,-2.3909,-2.4896,0.0,-2.72,-2.8083,0.0,-2.8457,-2.8801,-2.8308,-2.6527,-2.5899,0.0,-2.4941,0.0,0.0,-2.5046,-2.542,-2.4822,-2.3116,-2.343,0.0,-2.2128,0.0,0.0,-2.0094,0.0,0.0,0.0,0.0,-1.562,-1.4869,-1.7836,-1.9623,-2.0365,-1.909,-1.8986,0.0,-1.9256,-1.9555,-2.0168,-2.0468,-2.0183,-1.9735,-2.0034,-2.0139,-2.0325,-2.1561,-2.1927,-2.2141,-2.3264,-2.3264,-2.2892,-2.2909,-2.2337,-2.1758,-2.1997,-2.1215,-2.0495,-2.0958,-2.0889,-2.0562,0.0,0.0,0.0,0.0,0.0,0.0,0.0,0.0,0.0,0.0,0.0,0.0,0.0,-1.6343,0.0,0.0,0.0,0.0,0.0,0.0,0.0,0.0,0.0,0.0,-1.9308,-2.166,-2.2928,-2.2976,-2.3345,-2.3988,-2.4869,-2.4869,-2.5474,-2.6612,-2.6612,-2.6851,-2.7255,-2.6796,-2.6869,-2.7236,-2.6796,-2.6814,-2.72,-2.8007,-2.8613,-2.903,-2.9402,-2.9824,-3.0246,-2.0827,-2.138,0.0,0.0,0.0,0.0,0.0,-2.6138,0.0,-2.9295,0.0,-2.9101,-2.9415,-2.9535,-2.925,-2.8412,0.0,-2.5974,-2.6557,-2.5525,-2.5136,-2.5719,-2.5824,-2.5241,-2.3894,-2.3864,-2.355,0.0,0.0,0.0,0.0,0.0,0.0,0.0,0.0,0.0,0.0,-1.7954,-1.945,-2.0782,-2.0094,-2.0183,-2.0662,-2.0154,-2.0318,-2.0917,-2.1485,-2.0946,-2.0034,-2.0632,-2.0842,-2.1051,-2.2278,-2.2724,-2.2911,-2.3958,-2.361,-2.2964,-2.37,-2.2639,-2.1409,-2.1755,-2.132,-2.0829,-2.0894,-2.0894,-2.0894,-2.0894,-2.0975,-2.0783,0.0,0.0,0.0,0.0,0.0,0.0,0.0,0.0,0.0,0.0,0.0,0.0,0.0,0.0,0.0,0.0,0.0,0.0,0.0,0.0,0.0,-1.753,-2.1771,-2.3368,-2.1893,0.0,-2.4261,-2.4832,-2.4572,-2.5305,-2.6924,-2.6924,-2.6924,-2.6906,-2.6704,-2.6667,-2.6759,-2.6649,-2.7145,-2.8026,-2.8741,-2.8994,-2.9085,-2.9898,-3.021,-3.043,-2.1425,-2.2054,0.0,0.0,0.0,-2.6168,-2.7829,-2.8966,-2.9624,-2.9579,-3.0417,-3.0447,-2.8936,-2.9265,-2.8861,-2.7096,-2.6617,0.0,0.0,0.0,0.0,-2.6422,-2.6931,-2.6602,-2.5285,-2.5255,-2.4941,0.0,0.0,0.0,0.0,0.0,0.0,0.0,0.0,0.0,-1.9765,-1.8414,0.0,-2.147,-2.0797,-2.0617,-2.0767,-2.1186,-2.1425,-2.1545,-2.1665,-2.1545,-2.1365,-2.1485,-2.1515,-2.1665,-2.2428,-2.2724,-2.2843,-2.3543,-2.3606,-2.3368,-2.3035,-2.2284,-2.1521,-2.1054,-2.0425,-2.0,-2.0364,-2.0416,-2.0416,-2.0416,-2.0731,-2.0862,-2.0342,0.0,0.0,0.0,0.0,0.0,0.0,0.0,0.0,0.0,0.0,-1.6542,0.0,0.0,0.0,0.0,0.0,0.0,0.0,0.0,0.0,0.0,-1.9525,0.0,0.0,0.0,-2.4608,-2.8132,-2.654,-2.6741,-2.8572,-2.8572,-2.8572,-2.8521,-2.7181,-2.6979,-2.753,-2.6869,-2.7475,-2.8792,-2.8938,-2.8994,-2.9085,-2.9898,-3.021,-3.0338,-2.2622,0.0,0.0,0.0,0.0,0.0,0.0,-3.0268,-3.1195,-3.0193,-3.0612,-3.0642,-2.9699,-2.9579,-2.919,-2.8233,-2.7186,-2.6737,-2.7081,-2.6782,-2.6737,-2.7081,-2.7445,-2.6961,-2.563,-2.5944,-2.545,-2.4088,0.0,0.0,0.0,0.0,0.0,0.0,0.0,-1.9286,0.0,0.0,0.0,-2.2173,-2.1859,-2.1739,-2.1769,-2.2084,-2.2203,-2.2248,-2.2562,-2.2682,-2.2637,-2.2308,-2.2203,-2.2323,-2.2951,-2.3161,-2.3206,-2.3505,-2.3595,-2.3535,-2.3236,-2.2682,-2.2128,-2.1814,-2.1216,-2.0798,-2.0992,-2.1029,-2.0923,-2.0573,-2.0691,-2.0566,-1.9653,-1.9162,0.0,0.0,0.0,0.0,0.0,0.0,0.0,0.0,0.0,0.0,0.0,0.0,0.0,0.0,0.0,-1.3345,-1.4394,0.0,0.0,0.0,0.0,0.0,0.0,0.0,0.0,-2.775,-2.6812,-2.7287,-2.8975,-2.8576,-2.8613,-2.8902,-2.731,-2.7291,-2.8393,-2.8007,-2.8297,-2.8994,-2.8994,-2.8994,-2.9085,-2.9898,-3.0467,-3.0944,0.0,-2.4448,0.0,0.0,-2.7604,-2.9056,-2.9205,-3.0971,-3.1928,-3.0866,-3.0717,-3.0612,-3.0342,-2.9864,-2.9415,-2.8981,-2.7634,-2.6901,-2.7141,-2.6931,-2.6961,-2.735,-2.755,-2.7081,-2.6048,-2.6393,-2.5809,0.0,0.0,0.0,0.0,0.0,0.0,0.0,0.0,0.0,0.0,0.0,-2.2757,-2.2877,-2.2877,-2.2877,-2.2877,-2.2877,-2.2877,-2.2936,-2.343,-2.3595,-2.3535,-2.3041,-2.2877,-2.2951,-2.3445,-2.3595,-2.3595,-2.3595,-2.3595,-2.3595,-2.3595,-2.3146,-2.2724,-2.2724,-2.2188,-2.1695,-2.1695,-2.1695,-2.1515,-2.0857,-2.0602,-2.0168,-1.9106,-1.9098,0.0,0.0,0.0,0.0,0.0,0.0,0.0,0.0,0.0,0.0,-1.74,0.0,0.0,0.0,0.0,-1.3549,-1.3853,-1.553,-1.6682,0.0,0.0,-2.192,-2.2868,0.0,-2.5665,-2.7365,-2.6951,-2.7537,-2.8975,-2.8338,-2.8411,-2.892,-2.7493,-2.7567,-2.8778,-2.892,-2.8994,-2.9012,-2.92,-2.925,-2.9342,-3.0173,-3.0852,-3.1513,0.0,0.0,0.0,0.0,0.0,-3.0537,-3.1165,-3.1407,-3.1526,-3.1392,-3.1377,-3.0986,-2.9804,-2.9609,-2.8846,-2.7036,-2.7245,-2.7006,-2.5869,-2.6856,-2.7245,-2.6707,-2.726,-2.7565,-2.7445,-2.6856,-2.6497,0.0,0.0,-2.3804,0.0,0.0,0.0,0.0,0.0,0.0,0.0,-2.2634,-2.2996,-2.352,-2.352,-2.352,-2.352,-2.352,-2.352,-2.352,-2.358,-2.3595,-2.3595,-2.3535,-2.352,-2.352,-2.358,-2.3595,-2.3595,-2.3595,-2.3595,-2.3595,-2.3595,-2.3146,-2.2724,-2.2724,-2.2188,-2.1695,-2.1695,-2.1695,-2.1515,-2.0857,-2.0213,-1.975,-1.9615,-1.9141,-1.8842,0.0,0.0,0.0,0.0,0.0,-1.618,-1.5522,0.0,0.0,0.0,-1.5138,0.0,0.0,-1.3362,-1.3989,-1.5308,-1.5578,-1.661,-1.8623,0.0,-2.2148,-2.5348,-2.474,-2.6273,-2.9843,-2.8088,-2.7851,-2.8994,-2.892,-2.892,-2.8938,-2.8062,-2.7769,-2.797,-2.8705,-2.8994,-2.9067,-2.9806,-3.0099,-3.0191,-3.098,-3.1329,-3.1513,0.0,0.0,0.0,0.0,0.0,0.0,0.0,-3.2198,-3.2422,-3.1644,-3.1482,-3.118,-3.0238,-2.9804,-2.9101,-2.7904,-2.7664,-2.735,-2.6826,-2.7275,-2.7505,-2.7186,-2.749,-2.7625,-2.7625,-2.737,-2.6976,0.0,0.0,0.0,0.0,0.0,0.0,0.0,0.0,-2.3849,-2.3879,-2.4268,-2.4358,-2.4223,-2.4223,-2.3969,-2.3595,-2.3595,-2.3595,-2.3595,-2.3595,-2.3595,-2.3595,-2.3595,-2.3595,-2.3595,-2.3595,-2.3595,-2.3595,-2.3595,-2.3595,-2.3595,-2.3595,-2.3415,-2.3236,-2.3236,-2.3026,-2.2832,-2.2832,-2.2832,-2.2652,-2.2024,-2.1051,-2.0303,-2.0303,-1.9935,-1.9501,0.0,0.0,0.0,0.0,0.0,0.0,-1.7609,0.0,-1.7484,0.0,0.0,0.0,0.0,0.0,-1.3853,-1.4885,-1.5358,-1.6813,-1.9486,0.0,-2.2082,-2.5971,-2.5224,-2.6154,-2.8802,-2.8022,-2.7879,-2.8352,-2.8558,-2.8773,-2.8975,-2.8668,-2.8521,-2.8558,-2.8888,-2.8994,-2.9067,-2.9898,-3.021,-3.0301,-3.1091,-3.1715,-3.2173,-3.0941,0.0,-3.1001,0.0,-3.2587,-3.2811,-3.1958,-3.2617,-3.2721,-3.1405,-3.1347,-3.121,-3.0328,-2.9998,-2.9355,-2.8113,-2.7934,-2.7619,-2.7036,-2.74,-2.7535,-2.729,-2.747,0.0,-2.7625,-2.7625,-2.7385,-2.6871,-2.5959,0.0,0.0,0.0,0.0,0.0,-2.4822,-2.5091,-2.4956,-2.542,-2.5345,-2.4866,-2.4866,-2.4507,-2.3894,-2.3894,-2.3774,-2.3595,-2.3595,-2.3595,-2.3595,-2.3595,-2.3595,-2.3595,-2.3595,-2.3595,-2.3595,-2.3595,-2.3595,-2.3595,-2.3595,-2.3595,-2.3595,-2.3595,-2.3595,-2.3595,-2.3595,-2.3595,-2.343,-2.2802,-2.1784,-2.1006,-2.1006,-2.0667,-2.0187,-1.9396,0.0,0.0,0.0,-1.6826,0.0,0.0,-1.7876,-1.784,-1.9379,-1.7322,0.0,0.0,0.0,0.0,-1.5105,-1.5426,-1.6948,0.0,0.0,0.0,-2.5843,-2.5368,-2.616,-2.8234,-2.8003,-2.8003,-2.8216,-2.8345,-2.8692,-2.9168,-2.9062,-2.9122,-2.9342,-2.9342,-2.9195,-2.9122,-3.0411,-3.076,-3.0687,-3.1715,-3.2467,-3.2963,-3.4158,-3.3888,-3.3873,-3.522,-3.4906,-3.4008,-3.2706,-3.2512,-3.2048,-3.0687,-3.1106,-3.1046,-2.9729,-3.0133,-2.9445,-2.6841,-2.7829,-2.7739,-2.5764,-2.6841,-2.7275,0.0,0.0,-2.7625,-2.7625,-2.7625,-2.7625,-2.761,0.0,0.0,-2.5585,0.0,-2.5241,-2.4627,-2.5974,-2.6213,-2.56,-2.5615,-2.5615,-2.56,-2.56,-2.5211,-2.4567,-2.4567,-2.4193,-2.3595,-2.3595,-2.3595,-2.3595,-2.3595,-2.3595,-2.3595,-2.3595,-2.3595,-2.3595,-2.3595,-2.3595,-2.3595,-2.3595,-2.3595,-2.3595,-2.3595,-2.3595,-2.3595,-2.3595,-2.3595,-2.343,-2.2802,-2.2143,-2.168,-2.168,-2.1141,-2.0692,-2.0692,0.0,0.0,0.0,0.0,0.0,-1.7436,-1.7345,-1.7576,-1.8359,-1.7361,0.0,0.0,0.0,0.0,0.0,0.0,0.0,-1.99,-2.0002,0.0,-2.5073,-2.509,-2.6422,-2.8983,-2.8251,-2.8287,-2.8947,-2.8578,-2.8835,-2.9574,-2.9168,-2.9457,-3.0191,-3.0191,-2.9732,-2.9232,-3.1659,-3.21,-3.1568,-3.3183,-3.377,-3.3788,-3.154,-3.3249,-3.4639,-3.4032,-3.4644,-3.4726,-3.3395,-3.3185,-3.2706,-3.139,-3.1405,-3.1195,-3.0313,-3.0387,-2.9998,0.0,-2.8607,-2.8517,0.0,-2.7844,-2.7694,-2.7949,-2.7275,-2.6901,-2.6901,-2.6901,-2.6901,-2.6901,0.0,0.0,0.0,-2.6273,-2.6408,-2.6647,-2.7066,-2.7141,-2.6946,-2.6946,-2.6692,-2.6273,-2.6273,-2.5884,-2.5255,-2.4746,-2.4448,-2.4238,-2.3759,-2.3595,-2.3595,-2.3595,-2.3595,-2.3595,-2.3595,-2.3595,-2.3595,-2.3595,-2.3595,-2.3595,-2.3595,-2.3595,-2.3595,-2.3595,-2.3595,-2.3595,-2.3595,-2.3595,-2.355,-2.334,-2.2802,-2.2368,-2.2368,-2.1829,-2.1231,-2.0782,-2.0183,0.0,0.0,0.0,-1.7731,-1.8035,-1.7427,-1.7564,-1.9131,-1.8178,0.0,0.0,0.0,0.0,0.0,0.0,0.0,0.0,-2.2327,0.0,-2.6173,-2.5695,-2.6116,-2.7444,-2.7203,-2.7362,-2.7836,-2.8237,-2.8841,-2.962,-3.0034,-3.0534,-3.1017,-3.1017,-3.087,-3.0779,-3.21,-3.2449,-3.2357,-3.3403,-3.4156,-3.4559,-3.2227,-3.395,-3.515,-3.3891,-3.448,-3.4666,-3.3335,-3.3125,-3.2736,-3.1616,-3.1482,-3.1317,-3.0941,-3.0896,0.0,-2.9654,-2.9415,-2.94,-2.9564,-2.8786,-2.8517,-2.8951,-2.8158,-2.7709,-2.7709,-2.7709,0.0,-2.7709,-2.7709,-2.759,-2.735,-2.735,-2.756,-2.7949,-2.7679,-2.7625,-2.7625,-2.7625,-2.7335,-2.6961,-2.6961,-2.6557,-2.5929,-2.5525,-2.5211,-2.4911,-2.4238,-2.3984,-2.3939,-2.3684,-2.3595,-2.3595,-2.3595,-2.3595,-2.3595,-2.3595,-2.3595,-2.3595,-2.3595,-2.3595,-2.3595,-2.3595,-2.3595,-2.3595,-2.3595,-2.3595,-2.3595,-2.3595,-2.3295,-2.3026,-2.3026,-2.2503,-2.1934,-2.1515,-2.1036,-2.0557,-2.0124,0.0,-1.8158,0.0,0.0,0.0,0.0,-1.9958,-1.9942,0.0,0.0,0.0,0.0,0.0,0.0,-2.2479,-2.2835,0.0,-2.6674,-2.6234,-2.6539,-2.7554,-2.7554,-2.7522,-2.7514,-2.8418,-2.9337,-3.0281,-3.0664,-3.1211,-3.1843,-3.1843,-3.1659,-3.1494,-3.2614,-3.2871,-3.2742,-3.3844,-3.4394,-3.4523,-3.5225,-3.5379,-3.528,0.0,-3.4517,0.0,-3.2841,-3.2617,-3.2347,-3.1631,-3.1497,-3.1497,-3.1541,-3.1497,-3.1061,-2.9879,0.0,0.0,0.0,-2.9624,-2.9609,-2.9639,-2.9564,-2.9505,-2.9505,-2.9505,-2.9505,-2.9505,-2.946,-2.9131,-2.8532,-2.8532,-2.8532,-2.8502,-2.7859,-2.7625,-2.7625,-2.7625,-2.7625,-2.7625,-2.7625,-2.72,-2.6647,-2.6602,-2.6213,-2.56,-2.4881,-2.4627,-2.4492,-2.3939,-2.3684,-2.361,-2.3714,-2.3714,-2.3655,-2.361,-2.3595,-2.3595,-2.3595,-2.3595,-2.3595,-2.3595,-2.3595,-2.3595,-2.3595,-2.364,-2.3655,-2.361,-2.364,-2.3655,-2.361,-2.3131,-2.2742,-2.2742,-2.1635,-2.0752,-2.0662,0.0,-1.8563,0.0,0.0,0.0,-2.0586,-2.2312,-2.2547,0.0,0.0,0.0,0.0,0.0,-1.9993,-2.1407,-2.2141,-2.39,-2.6742,-2.6776,-2.752,-2.9011,-2.9011,-2.8602,-2.7926,-2.9042,-3.0208,-3.1328,-3.1011,-3.1528,-3.2635,-3.2635,-3.2221,-3.1715,-3.322,-3.3348,-3.2871,-3.4348,-3.4486,-3.399,0.0,0.0,-3.507,-3.3761,-3.449,-3.4981,-3.4143,-3.3589,-3.3021,-3.2362,-3.1839,-3.1661,-3.2228,-3.1839,-3.1556,-3.1809,-3.1016,-3.0672,-3.1046,-3.0133,-2.9789,-3.0268,-2.9355,-2.8831,-2.8831,-2.8831,-2.8831,-2.8831,-2.8308,-2.7964,-2.7814,-2.7814,-2.7814,-2.7814,-2.7685,-2.7625,-2.7625,-2.7625,-2.7625,-2.7625,-2.7625,-2.752,-2.729,-2.6782,-2.6497,-2.6273,-2.5615,-2.5,-2.4627,-2.5016,-2.4448,-2.3774,-2.4807,-2.4792,-2.4283,-2.3759,-2.3595,-2.3595,-2.3595,-2.3595,-2.3595,-2.3595,-2.3595,-2.3595,-2.3595,-2.4014,-2.4238,-2.3714,-2.4029,-2.4223,-2.3684,-2.3475,-2.3385,-2.3385,-2.2293,-2.1111,-2.0079,-1.8744,-1.774,0.0,-1.8928,-2.0267,-2.0904,-2.2448,-2.341,0.0,0.0,0.0,0.0,-2.3799,-2.3917,-2.3744,-2.4425,-2.571,-2.7537,-2.7554,-2.8027,-2.9011,-2.9011,-2.889,-2.8738,-2.9576,-3.0295,-3.0888,-3.1341,-3.2122,-3.306,-3.306,-3.3121,-3.3275,-3.3642,-3.3678,-3.3568,-3.3954,-3.4357,-3.4642,-3.3237,-3.4368,-3.515,-3.3971,-3.45,-3.4816,-3.4128,-3.3469,-3.2916,-3.2557,-3.2198,-3.2123,-3.2482,-3.2467,-3.2572,-3.2931,-3.1749,-3.1135,-3.1452,-3.0866,-3.0627,-3.0956,-3.0313,-2.9939,-2.9939,-2.9939,-2.9789,-2.9475,-2.9086,-2.8771,-2.8487,-2.8188,-2.8038,-2.8023,-2.776,-2.7625,-2.7625,-2.7625,-2.7625,-2.7625,-2.7625,-2.7625,-2.758,-2.7186,-2.7036,-2.6961,-2.6303,-2.563,-2.5136,-2.5495,-2.4926,-2.4253,-2.5285,-2.536,-2.5001,-2.4627,-2.4522,-2.4448,-2.4148,-2.4283,-2.4522,-2.4522,-2.4522,-2.4522,-2.4522,-2.4807,-2.4971,-2.4597,-2.4822,-2.4866,-2.4193,-2.4073,-2.3969,-2.3655,-2.2009,-2.0528,-1.9794,-1.8298,-1.7419,-1.7882,-1.9858,-2.1464,-2.23,-2.4295,-2.5413,-2.5113,-2.4671,0.0,-2.5456,-2.5575,-2.5575,-2.549,-2.6218,-2.7351,-2.8856,-2.8856,-2.9076,-2.9499,-2.9499,-2.9499,-2.9516,-3.026,-3.0813,-3.1219,-3.1634,-3.2196,-3.289,-3.3105,-3.3332,-3.3587,-3.411,-3.4357,-3.4449,-3.5202,-3.5532,-3.5587,-3.5504,-3.5504,-3.5325,-3.4741,-3.4637,-3.4442,-3.3888,-3.323,-3.2811,-3.2811,-3.2721,-3.2706,-3.2796,-3.3215,-3.3529,-3.3634,-3.2527,-3.1735,-3.1631,-3.1584,-3.1482,-3.1482,-3.1482,-3.1482,-3.1482,-3.1377,-3.1091,-3.0507,-3.0417,-3.0103,-2.9564,-2.8906,-2.8607,-2.8562,-2.7874,-2.7625,-2.7625,-2.7625,-2.7625,-2.7625,-2.7625,-2.7625,-2.7625,-2.7625,-2.7625,-2.755,-2.6946,-2.6318,-2.5779,-2.5869,-2.5405,-2.4911,-2.5674,-2.5839,-2.5779,-2.5869,-2.5899,-2.5734,-2.4986,-2.5181,-2.5615,-2.5615,-2.5615,-2.5615,-2.5615,-2.5689,-2.5734,-2.563,-2.5689,-2.5525,-2.4716,-2.4582,-2.4328,-2.3595,-2.1425,-1.9809,-1.969,0.0,-1.7753,-1.9392,-2.1445,-2.3086,-2.4043,-2.6354,-2.7333,-2.6265,-2.5927,-2.6152,-2.7045,-2.6472,-2.6454,-2.7182,-2.7723,-2.867,-3.0091,-3.0226,-3.0277,-3.0277,-3.0277,-3.0328,-3.0446,-3.097,-3.144,-3.1888,-3.1785,-3.1968,-3.2417,-3.2952,-3.3255,-3.3497,-3.4626,-3.5127,-3.5357,-3.678,-3.689,-3.6395,-3.5504,-3.5504,-3.5474,-3.537,-3.534,-3.531,-3.522,-3.4607,-3.4173,-3.4173,-3.3694,-3.3559,-3.4113,-3.3769,-3.3724,-3.4277,-3.3634,-3.2961,-3.2392,-3.1839,-3.1482,-3.1482,-3.1482,-3.1482,-3.1482,-3.0971,-3.0612,-3.0507,-2.9983,-2.9669,-2.9564,-2.8906,-2.8607,-2.8562,-2.7874,-2.7625,-2.7625,-2.7625,-2.7625,-2.7625,-2.7625,-2.7625,-2.7625,-2.7625,-2.7625,-2.761,-2.7455,-2.6991,-2.6527,-2.7081,-2.6452,-2.5674,-2.6886,-2.6886,-2.6542,-2.7096,-2.726,-2.7006,-2.5779,-2.554,-2.5615,-2.5615,-2.5615,-2.5615,-2.5615,-2.6033,-2.6273,-2.5719,-2.6048,-2.6063,-2.4852,-2.4582,-2.4223,-2.3011,-2.1545,-2.0348,-1.9765,0.0,-1.9561,-2.0377,-2.2639,-2.4358,-2.5098,-2.5866,-2.6782,-2.7817,-2.7173,-2.7316,-2.8748,-2.8602,-2.8805,-2.9567,-2.9076,-2.9228,-3.0091,-3.0717,-3.1021,-3.1021,-3.1021,-3.1343,-3.1918,-3.1427,-3.1551,-3.2173,-3.1545,-3.1545,-3.1985,-3.2718,-3.3509,-3.4297,-3.5123,-3.5684,-3.6138,-3.6376,-3.6413,-3.6321,-3.5504,-3.5504,-3.5504,-3.5504,-3.519,-3.4807,-3.4273,-3.3636,-3.299,-3.2442,-3.2419,-3.2629,-3.2915,-3.2987,-3.313,-3.3432,-3.3376,-3.3167,-3.2874,-3.2301,-3.1898,-3.1497,-3.1482,-3.1482,-3.1482,-3.1225,-3.1061,-3.1061,-3.0402,-3.0073,-3.0058,-2.943,-2.9131,-2.9116,-2.8801,-2.8652,-2.8652,-2.8652,-2.8652,-2.8622,-2.8263,-2.8128,-2.8083,-2.776,-2.7625,-2.7625,-2.7625,-2.7156,-2.6692,-2.735,-2.6931,-2.6303,-2.726,-2.7415,-2.7245,-2.7934,-2.7619,-2.6991,-2.6737,-2.6662,-2.6752,-2.7126,-2.7485,-2.7754,-2.7754,-2.7709,-2.759,-2.729,-2.7156,-2.6826,-2.5869,-2.539,-2.4956,-2.4358,-2.2263,0.0,0.0,-2.0767,-2.0887,-2.1201,-2.3822,-2.5727,-2.6001,-2.6808,-2.7769,-2.8818,-2.8412,-2.8741,-3.0212,-2.9842,-2.9922,-3.0666,-3.0345,-3.0345,-3.0683,-3.1021,-3.1393,-3.1782,-3.1782,-3.2171,-3.2882,-3.2544,-3.256,-3.2865,-3.2527,-3.2479,-3.2701,-3.3335,-3.3835,-3.4341,-3.5331,-3.6029,-3.6576,-3.6994,-3.7351,-3.7588,-3.5504,-3.5294,-3.5133,-3.5133,-3.4558,-3.3798,-3.3054,-3.2573,-3.1966,-3.1158,-3.1488,-3.1847,-3.1847,-3.2317,-3.2593,-3.2593,-3.2833,-3.2929,-3.2787,-3.2674,-3.2421,-3.1959,-3.1839,-3.1706,-3.1706,-3.1556,-3.1482,-3.1482,-3.1001,-3.0746,-3.0731,-3.0088,-2.9804,-2.9789,-2.9639,-2.9579,-2.9579,-2.9579,-2.9579,-2.9535,-2.9026,-2.8831,-2.8757,-2.8068,-2.7814,-2.7784,-2.7685,-2.7245,-2.6916,-2.759,-2.747,-2.7171,-2.7829,-2.8038,-2.8143,-2.8667,-2.8098,-2.7365,-2.7724,-2.797,-2.8173,-2.8697,-2.9205,-2.9579,-2.9579,-2.919,-2.8831,-2.8831,-2.8412,-2.7784,-2.6961,-2.6408,-2.5914,-2.545,0.0,0.0,0.0,-2.2233,-2.2263,-2.2577,-2.4971,-2.6587,-2.6587,-2.7613,-2.8496,-2.895,-2.9026,-2.9575,-3.0707,-3.0359,-3.0566,-3.1427,-3.1444,-3.1444,-3.1444,-3.163,-3.1985,-3.2544,-3.2544,-3.2933,-3.366,-3.3491,-3.3491,-3.3643,-3.3474,-3.3406,-3.3465,-3.3956,-3.4266,-3.4493,-3.5595,-3.6326,-3.6894,-3.7643,-3.815,-3.8546,-3.5504,-3.4758,-3.4095,-3.4095,-3.3352,-3.275,-3.268,-3.2567,-3.254,-3.2469,-3.251,-3.2538,-3.2538,-3.2579,-3.2593,-3.2593,-3.2636,-3.2374,-3.1737,-3.2539,-3.3106,-3.3319,-3.2766,-3.2437,-3.2437,-3.1839,-3.1482,-3.1482,-3.1422,-3.1465,-3.1377,-3.0761,-3.0432,-3.0417,-2.9834,-2.9579,-2.9579,-2.9579,-2.9579,-2.9579,-2.9535,-2.9505,-2.943,-2.8771,-2.8532,-2.8442,-2.7799,-2.7595,-2.7655,-2.8293,-2.8487,-2.8562,-2.922,-2.943,-2.9445,-2.949,-2.9445,-2.9235,-2.8682,-2.8966,-2.9445,-2.949,-2.9549,-2.9579,-2.9579,-2.9549,-2.9505,-2.9505,-2.9475,-2.9041,-2.779,-2.7505,-2.6826,-2.5001,0.0,0.0,-2.4268,-2.3864,-2.3924,-2.5166,-2.6063,-2.6587,-2.6587,-2.7235,-2.766,-2.771,-2.8225,-2.8856,-2.9496,-3.0015,-3.0867,-3.2171,-3.2205,-3.2205,-3.2205,-3.2899,-3.3271,-3.3322,-3.3322,-3.3711,-3.4387,-3.3711,-3.3778,-3.437,-3.3694,-3.3406,-3.3457,-3.4176,-3.4753,-3.5312,-3.6076,-3.6676,-3.7214,-3.7702,-3.7946,-3.8013,-3.4543,-3.4245,-3.4027,-3.4027,-3.3241,-3.2393,-3.1815,-3.1742,-3.1536,-3.0921,-3.0846,-3.0846,-3.0846,-3.0846,-3.0846,-3.0846,-3.1402,-3.1648,-3.1361,-3.2275,-3.3021,-3.3483,-3.2724,-3.2338,-3.2527,-3.1691,-3.1307,-3.1482,-3.1482,-3.1482,-3.1467,-3.127,-3.115,-3.1135,-3.0896,-3.0791,-3.0791,-3.0791,-3.0791,-3.0746,-3.0328,-3.0163,-3.0088,-2.9445,-2.9205,-2.9175,-2.8906,-2.8816,-2.8861,-2.9116,-2.9205,-2.925,-2.9505,-2.9579,-2.9579,-2.9579,-3.0163,-3.0642,-2.9968,-2.9953,-3.0163,-3.0163,-3.0477,-3.0791,-3.0791,-3.0462,-3.0163,-3.0163,-2.9849,-2.943,-2.8906,-2.8487,-2.8098,-2.7754,0.0,-2.6303,-2.6991,-2.6871,-2.6737,-2.6811,-2.7425,-2.7679,-2.7245,-2.7475,-2.7926,-2.8721,-2.8999,-2.9753,-3.1193,-3.1878,-3.2454,-3.2966,-3.3423,-3.344,-3.2983,-3.3271,-3.3643,-3.4083,-3.4083,-3.4472,-3.5182,-3.4912,-3.4928,-3.5182,-3.4895,-3.4776,-3.481,-3.5081,-3.5314,-3.5488,-3.5778,-3.6207,-3.6724,-3.6904,-3.7173,-3.7542,-3.3533,-3.331,-3.3101,-3.3101,-3.2321,-3.1476,-3.0833,-3.0758,-3.0558,-2.9856,-2.9792,-2.9792,-2.9792,-2.9792,-2.9792,-2.9792,-3.0419,-3.0758,-3.0758,-3.1609,-3.2514,-3.3194,-3.2413,-3.2033,-3.2203,-3.1403,-3.1025,-3.1241,-3.1241,-3.1377,-3.1693,-3.1693,-3.1827,-3.2153,-3.2153,-3.2033,-3.1839,-3.1839,-3.1719,-3.1452,-3.124,-3.1016,-3.0776,-3.0357,-3.0058,-2.9849,-2.9654,-2.9579,-2.9609,-2.9804,-3.0013,-3.0223,-3.0432,-3.0507,-3.0462,-3.0253,-3.0836,-3.1377,-3.0956,-3.0821,-3.0821,-3.0821,-3.118,-3.1482,-3.1482,-3.1165,-3.0821,-3.0821,-3.0657,-3.0372,-2.9953,-2.9684,-2.9535,-2.9579,-2.8801,-2.8368,-2.8846,-2.8906,-2.8727,-2.8263,-2.8622,-2.8727,-2.8248,-2.8255,-2.8589,-2.949,-2.9521,-3.0295,-3.2006,-3.2927,-3.3508,-3.3744,-3.4235,-3.437,-3.41,-3.41,-3.4353,-3.4844,-3.4844,-3.5115,-3.5622,-3.5622,-3.5622,-3.5622,-3.5622,-3.5622,-3.5639,-3.5876,-3.5842,-3.5673,-3.6146,-3.6406,-3.6578,-3.6955,-3.73,-3.7708,-3.2593,-3.1815,-3.118,-3.118,-3.0419,-2.9792,-2.9792,-2.9792,-2.9792,-2.9792,-2.9792,-2.9792,-2.9792,-2.9792,-2.9792,-2.9792,-2.9792,-2.9792,-2.9792,-3.0696,-3.1609,-3.2522,-3.1957,-3.1571,-3.1626,-3.0911,-3.0609,-3.0596,-3.0596,-3.1132,-3.2076,-3.2076,-3.2616,-3.3499,-3.3499,-3.3125,-3.2527,-3.2527,-3.2138,-3.1541,-3.2258,-3.2123,-3.1482,-3.1482,-3.112,-3.0432,-2.9834,-2.9609,-2.9699,-3.0313,-3.0971,-3.1601,-3.2317,-3.2527,-3.2392,-3.1676,-3.1482,-3.1482,-3.1482,-3.1482,-3.1482,-3.1482,-3.1482,-3.1482,-3.1482,-3.1482,-3.1482,-3.1482,-3.2063,-3.2108,-3.0776,-3.1091,-3.112,-2.9819,-2.9609,-2.9594,-2.9594,-2.9594,-2.9594,-2.9594,-2.9594,-2.9594,-2.9579,-2.9579,-2.9579,-2.9594,-2.9594,-3.0173,-3.1438,-3.2707,-3.3761,-3.4489,-3.4506,-3.4878,-3.5639,-3.5622,-3.5622,-3.5622,-3.5622,-3.5622,-3.5622,-3.5622,-3.5622,-3.5622,-3.5622,-3.5622,-3.569,-3.6468,-3.6332,-3.5791,-3.7313,-3.7449,-3.6949,-3.8126,-3.8589,-3.8643,-3.1609,-3.1389,-3.118,-3.118,-3.0419,-2.9792,-2.9792,-2.9792,-2.9792,-2.9792,-2.9792,-2.9792,-2.9792,-2.9792,-2.9792,-2.9792,-2.9792,-2.9792,-2.9792,-3.0075,-3.0355,-3.0646,-3.1095,-3.1429,-3.1571,-3.0764,-3.0411,-3.0596,-3.0596,-3.073,-3.1065,-3.1738,-3.2283,-3.2553,-3.3223,-3.338,-3.32,-3.32,-3.3095,-3.2931,-3.3125,-3.2811,-3.2273,-3.2736,-3.2497,-3.1943,-3.2228,-3.2033,-3.1734,-3.2392,-3.2437,-3.2332,-3.2991,-3.32,-3.308,-3.2422,-3.2213,-3.2123,-3.1601,-3.1869,-3.2108,-3.1644,-3.1482,-3.1601,-3.2123,-3.2213,-3.2362,-3.2826,-3.3066,-3.308,-3.2677,-3.2392,-3.2093,-3.1704,-3.1255,-3.0941,-3.0941,-3.0941,-3.0776,-3.0283,-3.0223,-3.0058,-2.9624,-2.9579,-2.9759,-3.0193,-3.1141,-3.1875,-3.2269,-3.354,-3.4562,-3.5326,-3.5311,-3.5885,-3.7212,-3.6163,-3.5622,-3.5622,-3.5622,-3.5622,-3.5622,-3.5622,-3.5622,-3.5622,-3.5622,-3.5926,-3.6451,-3.6688,-3.6958,-3.728,-3.7736,-3.777,-3.7601,-3.7976,-3.7974,-3.7905,-3.062,-3.062,-3.062,-3.062,-3.0216,-2.9792,-2.9792,-2.9792,-2.9792,-2.9792,-2.9792,-2.9792,-2.9792,-2.9792,-2.9792,-2.9792,-2.9792,-2.9792,-2.9792,-2.9792,-2.9792,-2.9792,-3.0343,-3.0751,-3.0884,-3.0325,-3.0155,-3.0294,-3.0294,-3.0495,-3.0821,-3.1447,-3.2129,-3.2889,-3.344,-3.3784,-3.3888,-3.3888,-3.3724,-3.3514,-3.3784,-3.3484,-3.2976,-3.3634,-3.3469,-3.2961,-3.335,-3.3245,-3.2961,-3.3365,-3.341,-3.3365,-3.3754,-3.3888,-3.3754,-3.3095,-3.2901,-3.2826,-3.2422,-3.2602,-3.2811,-3.2407,-3.2302,-3.2422,-3.2811,-3.2901,-3.3021,-3.341,-3.3709,-3.3799,-3.3544,-3.317,-3.2826,-3.2557,-3.1958,-3.1482,-3.1482,-3.1482,-3.1375,-3.0956,-3.0911,-3.0761,-3.0387,-3.0357,-3.0507,-3.0881,-3.216,-3.2974,-3.2974,-3.4257,-3.523,-3.5649,-3.5613,-3.6048,-3.6969,-3.6337,-3.6189,-3.6518,-3.6214,-3.6079,-3.6062,-3.5757,-3.5622,-3.5622,-3.5622,-3.6062,-3.6806,-3.7094,-3.7499,-3.7973,-3.8531,-3.8413,-3.7939,-3.8227,-3.8057,-3.7686,-2.9792,-2.9792,-2.9792,-2.9792,-2.9792,-2.9792,-2.9792,-2.9792,-2.9792,-2.9792,-2.9792,-2.9792,-2.9792,-2.9792,-2.9792,-2.9792,-2.9792,-2.9792,-2.9792,-2.9792,-2.9792,-2.9792,-2.9792,-2.9792,-2.9792,-2.9792,-2.9792,-2.9792,-2.9792,-3.0203,-3.1106,-3.118,-3.2105,-3.3739,-3.3808,-3.406,-3.4356,-3.442,-3.4077,-3.3585,-3.4322,-3.4173,-3.3649,-3.4307,-3.4158,-3.3589,-3.3649,-3.3634,-3.3589,-3.3589,-3.4023,-3.4562,-3.4562,-3.4562,-3.4442,-3.3784,-3.3589,-3.3574,-3.3514,-3.3529,-3.3589,-3.3589,-3.3619,-3.3664,-3.3589,-3.3589,-3.3604,-3.3664,-3.4143,-3.4382,-3.3784,-3.3619,-3.3365,-3.2706,-3.2048,-3.1541,-3.1482,-3.1482,-3.1497,-3.1556,-3.1511,-3.1526,-3.1704,-3.1704,-3.1704,-3.1704,-3.2821,-3.347,-3.347,-3.476,-3.5546,-3.5602,-3.5602,-3.5633,-3.5808,-3.6466,-3.7119,-3.7793,-3.7195,-3.6874,-3.6857,-3.6146,-3.5791,-3.5723,-3.5723,-3.6129,-3.6823,-3.7516,-3.7889,-3.8125,-3.9394,-3.9157,-3.8159,-3.87,-3.8512,-3.7895,-2.9792,-2.9792,-2.9792,-2.9792,-2.9792,-2.9792,-2.9792,-2.9792,-2.9792,-2.9792,-2.9792,-2.9792,-2.9792,-2.9792,-2.9792,-2.9792,-2.9792,-2.9792,-2.9792,-2.9792,-2.9792,-2.9792,-2.9792,-2.9792,-2.9792,-2.9792,-2.9792,-2.9792,-2.9792,-2.9934,-3.0139,-3.0833,-3.1389,-3.1815,-3.2593,-3.2947,-3.3044,-3.3825,-3.4022,-3.3972,-3.4931,-3.4876,-3.4337,-3.5026,-3.4861,-3.4337,-3.4876,-3.4726,-3.4262,-3.4262,-3.4726,-3.528,-3.528,-3.528,-3.5145,-3.4457,-3.4262,-3.4143,-3.3634,-3.3873,-3.4262,-3.4262,-3.4666,-3.4936,-3.4382,-3.4262,-3.4412,-3.4951,-3.5175,-3.5235,-3.51,-3.4637,-3.4038,-3.338,-3.2736,-3.2123,-3.1541,-3.1482,-3.1661,-3.2243,-3.1795,-3.1943,-3.2961,-3.3066,-3.3066,-3.3066,-3.3367,-3.3487,-3.3487,-3.4304,-3.5003,-3.5611,-3.5568,-3.6111,-3.7301,-3.746,-3.7343,-3.6986,-3.7463,-3.7669,-3.7669,-3.7483,-3.7094,-3.6535,-3.6535,-3.662,-3.6789,-3.6958,-3.7702,-3.8734,-3.8481,-3.8886,-3.9478,-3.8514,-3.8257,-3.8346,-2.9792,-2.9792,-2.9792,-2.9792,-2.9792,-2.9792,-2.9792,-2.9792,-2.9792,-2.9792,-2.9792,-2.9792,-2.9792,-2.9792,-2.9792,-2.9792,-2.9792,-2.9792,-2.9792,-2.9792,-2.9792,-2.9792,-2.9792,-2.9792,-2.9792,-2.9792,-2.9792,-2.9792,-2.9792,-2.9792,-2.9792,-3.0279,-3.0758,-3.1254,-3.1669,-3.2177,-3.2593,-3.3101,-3.3602,-3.4027,-3.4543,-3.4845,-3.5011,-3.537,-3.528,-3.5011,-3.537,-3.5265,-3.4966,-3.4966,-3.5205,-3.5504,-3.5504,-3.5504,-3.5429,-3.507,-3.4966,-3.4891,-3.4547,-3.4711,-3.4966,-3.4966,-3.5235,-3.5415,-3.5055,-3.4966,-3.507,-3.5429,-3.5504,-3.5504,-3.5504,-3.4936,-3.4367,-3.4023,-3.341,-3.2856,-3.2512,-3.2467,-3.2602,-3.2946,-3.2677,-3.2736,-3.3425,-3.3499,-3.3499,-3.3499,-3.3784,-3.3963,-3.3963,-3.4607,-3.5127,-3.5536,-3.5552,-3.5891,-3.6723,-3.7438,-3.7627,-3.7237,-3.8037,-3.843,-3.8396,-3.7702,-3.7144,-3.6755,-3.6383,-3.6434,-3.6772,-3.6772,-3.7449,-3.8464,-3.8447,-3.8464,-3.8497,-3.8447,-3.835,-3.8242,-2.9792,-2.9792,-2.9792,-2.9792,-2.9792,-2.9792,-2.9792,-2.9792,-2.9792,-2.9792,-2.9792,-2.9792,-2.9792,-2.9792,-2.9792,-2.9792,-2.9792,-2.9792,-2.9792,-2.9792,-2.9792,-2.9792,-2.9792,-2.9792,-2.9792,-2.9792,-2.9792,-2.9792,-2.9792,-2.9792,-2.9792,-2.9792,-3.0216,-3.097,-3.097,-3.1389,-3.2105,-3.2321,-3.289,-3.3739,-3.3945,-3.461,-3.5504,-3.5504,-3.5504,-3.5504,-3.5504,-3.5504,-3.5504,-3.5504,-3.5504,-3.5504,-3.5504,-3.5504,-3.5504,-3.5504,-3.5504,-3.5504,-3.5504,-3.5504,-3.5504,-3.5504,-3.5504,-3.5504,-3.5504,-3.5504,-3.5504,-3.5504,-3.5504,-3.5504,-3.5504,-3.504,-3.4607,-3.4502,-3.4023,-3.3619,-3.3514,-3.3499,-3.3529,-3.3649,-3.3769,-3.3799,-3.3679,-3.3769,-3.3844,-3.3844,-3.4337,-3.4651,-3.4651,-3.519,-3.5504,-3.5504,-3.5504,-3.5504,-3.5504,-3.689,-3.7632,-3.7806,-3.8629,-3.9058,-3.914,-3.777,-3.7094,-3.6924,-3.6146,-3.618,-3.6772,-3.6772,-3.7297,-3.8142,-3.8616,-3.821,-3.7483,-3.8582,-3.8531,-3.7936,-2.9792,-2.9792,-2.9792,-2.9792,-2.9792,-2.9792,-2.9792,-2.9792,-2.9792,-2.9792,-2.9792,-2.9792,-2.9792,-2.9792,-2.9792,-2.9792,-2.9792,-2.9792,-2.9792,-2.9792,-2.9792,-2.9792,-2.9792,-2.9792,-2.9792,-2.9792,-2.9792,-2.9792,-2.9792,-2.9792,-2.9792,-2.9792,-2.9869,-3.0011,-3.0011,-3.0075,-3.0216,-3.1044,-3.196,-3.289,-3.3671,-3.461,-3.5504,-3.5504,-3.5504,-3.5504,-3.5504,-3.5504,-3.5504,-3.5504,-3.5504,-3.5504,-3.5504,-3.5504,-3.5504,-3.5504,-3.5504,-3.5504,-3.5504,-3.5504,-3.5504,-3.5504,-3.5504,-3.5504,-3.5504,-3.5504,-3.5504,-3.5504,-3.5504,-3.5504,-3.5504,-3.5429,-3.5175,-3.4562,-3.4397,-3.4143,-3.3574,-3.3499,-3.3709,-3.4277,-3.4876,-3.4996,-3.4397,-3.4876,-3.5235,-3.5235,-3.531,-3.537,-3.537,-3.5459,-3.5504,-3.5504,-3.5504,-3.5504,-3.5504,-3.6352,-3.7084,-3.7806,-3.8553,-3.9287,-3.9901,-3.9073,-3.8345,-3.7719,-3.6958,-3.6688,-3.6772,-3.6772,-3.7601,-3.8802,-3.8261,-3.87,-3.958,-3.914,-3.8531,-3.7905,-2.9792,-2.9792,-2.9792,-2.9792,-2.9792,-2.9792,-2.9792,-2.9792,-2.9792,-2.9792,-2.9792,-2.9792,-2.9792,-2.9792,-2.9792,-2.9792,-2.9792,-2.9792,-2.9792,-2.9792,-2.9792,-2.9792,-2.9792,-2.9792,-2.9792,-2.9792,-2.9792,-2.9792,-2.9792,-2.9792,-2.9792,-2.9792,-2.9792,-2.9792,-2.9792,-2.9792,-2.9869,-3.0203,-3.0983,-3.1888,-3.282,-3.3822,-3.4691,-3.5279,-3.5504,-3.5504,-3.5504,-3.5504,-3.5504,-3.5504,-3.5504,-3.5504,-3.5504,-3.5504,-3.5504,-3.5504,-3.5504,-3.5504,-3.5504,-3.5504,-3.5504,-3.5504,-3.5504,-3.5504,-3.5504,-3.5504,-3.5504,-3.5504,-3.5504,-3.5504,-3.5504,-3.5504,-3.54,-3.51,-3.5055,-3.4951,-3.4651,-3.4622,-3.4726,-3.5011,-3.5325,-3.5385,-3.5085,-3.5325,-3.5504,-3.5504,-3.5504,-3.5504,-3.5504,-3.5504,-3.5504,-3.5504,-3.5504,-3.5504,-3.5504,-3.6228,-3.6783,-3.7144,-3.7905,-3.8924,-4.0054,-3.9326,-3.8819,-3.8464,-3.7736,-3.7161,-3.6806,-3.7229,-3.755,-3.7804,-3.8311,-3.9157,-3.9986,-3.9259,-3.9039,-3.9123]},{"header":{"parameterUnit":"m.s-1","parameterCategory":1,"la1":30.6,"la2":28.766,"lo1":-90.7593,"lo2":-88.6598,"dy":0.0162,"dx":0.0183,"nx":116,"ny":114,"refTime":"2024-04-18T12:00:00:Z","depth":0,"parameterNumber":3,"parameterNumberName":"V-component_of_WINDS"},"data":[0.0,0.0,0.0,0.0,0.0,0.0,0.0,0.0,0.0,0.0,0.0,0.0,0.0,0.0,0.0,0.0,0.0,0.0,0.0,0.0,0.0,0.0,0.0,0.0,0.0,0.0,0.0,0.0,0.0,0.0,0.0,0.0,0.0,0.0,0.0,0.0,0.0,0.0,0.0,0.0,0.0,0.0,0.0,0.0,0.0,0.0,0.0,0.0,0.0,0.0,0.0,0.0,0.0,0.0,0.0,0.0,0.0,0.0,0.0,0.0,0.0,0.0,0.0,0.0,0.0,0.0,0.0,0.0,0.0,0.0,0.0,0.0,0.0,0.0,0.0,0.0,0.0,0.0,0.0,0.0,0.0,0.0,0.0,0.0,0.0,0.0,0.0,0.0,0.0,0.0,0.0,0.0,0.0,0.0,0.0,0.0,0.0,0.0,0.0,0.0,0.0,0.0,0.0,0.0,0.0,0.0,0.0,0.0,0.0,0.0,0.0,0.0,0.0,0.0,0.0,0.0,0.0,0.0,0.0,0.0,0.0,0.0,0.0,0.0,0.0,0.0,0.0,0.0,0.0,0.0,0.0,0.0,0.0,0.0,0.0,0.0,0.0,0.0,0.0,0.0,0.0,0.0,0.0,0.0,0.0,0.0,0.0,0.0,0.0,0.0,0.0,0.0,0.0,0.0,0.0,0.0,0.0,0.0,0.0,0.0,0.0,0.0,0.0,0.0,0.0,0.0,0.0,0.0,0.0,0.0,0.0,0.0,0.0,0.0,0.0,0.0,0.0,0.0,0.0,0.0,0.0,0.0,0.0,0.0,0.0,0.0,0.0,0.0,0.0,0.0,0.0,0.0,0.0,0.0,0.0,0.0,0.0,0.0,0.0,0.0,0.0,0.0,0.0,0.0,0.0,0.0,0.0,0.0,0.0,0.0,0.0,0.0,0.0,0.0,0.0,0.0,0.0,0.0,0.0,0.0,0.0,0.0,0.0,0.0,0.0,0.0,0.0,0.0,0.0,0.0,0.0,0.0,0.0,0.0,0.0,0.0,0.0,0.0,0.0,0.0,0.0,0.0,0.0,0.0,0.0,0.0,0.0,0.0,0.0,0.0,0.0,0.0,0.0,0.0,0.0,0.0,0.0,0.0,0.0,0.0,0.0,0.0,0.0,0.0,0.0,0.0,0.0,0.0,0.0,0.0,0.0,0.0,0.0,0.0,0.0,0.0,0.0,0.0,0.0,0.0,0.0,0.0,0.0,0.0,0.0,0.0,0.0,0.0,0.0,0.0,0.0,0.0,0.0,0.0,0.0,0.0,0.0,0.0,0.0,0.0,0.0,0.0,0.0,0.0,0.0,0.0,0.0,0.0,0.0,0.0,0.0,0.0,0.0,0.0,0.0,0.0,0.0,0.0,0.0,0.0,0.0,0.0,0.0,0.0,0.0,0.0,0.0,0.0,0.0,0.0,0.0,0.0,0.0,0.0,0.0,0.0,0.0,0.0,0.0,0.0,0.0,0.0,0.0,0.0,0.0,0.0,0.0,0.0,0.0,0.0,0.0,0.0,0.0,0.0,0.0,0.0,0.0,0.0,0.0,0.0,0.0,0.0,0.0,0.0,0.0,0.0,0.0,0.0,0.0,0.0,0.0,0.0,0.0,0.0,0.0,0.0,0.0,0.0,0.0,0.0,0.0,0.0,0.0,0.0,0.0,0.0,0.0,0.0,0.0,0.0,0.0,0.0,0.0,0.0,0.0,0.0,0.0,0.0,0.0,0.0,0.0,0.0,0.0,0.0,0.0,0.0,0.0,0.0,0.0,0.0,0.0,0.0,0.0,0.0,0.0,0.0,0.0,0.0,0.0,0.0,0.0,0.0,0.0,0.0,0.0,0.0,0.0,0.0,0.0,0.0,0.0,0.0,0.0,0.0,0.0,0.0,0.0,0.0,0.0,0.0,0.0,0.0,0.0,0.0,0.0,0.0,0.0,0.0,0.0,0.0,0.0,0.0,0.0,0.0,0.0,0.0,0.0,0.0,0.0,0.0,0.0,0.0,0.0,0.0,0.0,0.0,0.0,0.0,0.0,0.0,0.0,0.0,0.0,0.0,0.0,0.0,0.0,0.0,0.0,0.0,0.0,0.0,0.0,0.0,0.0,0.0,0.0,0.0,0.0,0.0,0.0,0.0,0.0,0.0,0.0,0.0,0.0,0.0,0.0,0.0,0.0,0.0,0.0,0.0,0.0,0.0,0.0,0.0,0.0,0.0,0.0,0.0,0.0,0.0,0.0,0.0,0.0,0.0,0.0,0.0,0.0,0.0,0.0,0.0,0.0,0.0,0.0,0.0,0.0,0.0,0.0,0.0,0.0,0.0,0.0,0.0,0.0,0.0,0.0,0.0,0.0,0.0,0.0,0.0,0.0,0.0,0.0,0.0,0.0,0.0,0.0,0.0,0.0,0.0,0.0,0.0,0.0,0.0,0.0,0.0,0.0,0.0,0.0,0.0,0.0,0.0,0.0,0.0,0.0,0.0,0.0,0.0,0.0,0.0,0.0,0.0,0.0,0.0,0.0,0.0,0.0,0.0,0.0,0.0,0.0,0.0,0.0,0.0,0.0,0.0,0.0,0.0,0.0,0.0,0.0,0.0,0.0,0.0,0.0,0.0,0.0,0.0,0.0,0.0,0.0,0.0,0.0,0.0,0.0,0.0,0.0,0.0,0.0,0.0,0.0,0.0,0.0,0.0,0.0,0.0,0.0,0.0,0.0,0.0,0.0,0.0,0.0,0.0,0.0,0.0,0.0,0.0,0.0,0.0,0.0,0.0,0.0,0.0,0.0,0.0,0.0,0.0,0.0,0.0,0.0,0.0,0.0,0.0,0.0,0.0,0.0,0.0,0.0,0.0,0.0,0.0,0.0,0.0,0.0,0.0,0.0,0.0,0.0,0.0,0.0,0.0,0.0,0.0,0.0,0.0,0.0,0.0,0.0,0.0,0.0,0.0,0.0,0.0,0.0,0.0,0.0,0.0,0.0,0.0,0.0,0.0,0.0,0.0,0.0,0.0,0.0,0.0,0.0,0.0,0.0,0.0,0.0,0.0,0.0,0.0,0.0,0.0,0.0,0.0,0.0,0.0,0.0,0.0,0.0,0.0,0.0,0.0,0.0,0.0,0.0,0.0,0.0,0.0,0.0,0.0,0.0,0.0,0.0,0.0,0.0,0.0,0.0,0.0,0.0,0.0,0.0,0.0,0.0,0.0,0.0,0.0,0.0,0.0,0.0,0.0,0.0,0.0,0.0,0.0,0.0,0.0,0.0,0.0,0.0,0.0,0.0,0.0,0.0,0.0,0.0,0.0,0.0,0.0,0.0,0.0,0.0,0.0,0.0,0.0,0.0,0.0,0.0,0.0,0.0,0.0,0.0,0.0,0.0,0.0,0.0,0.0,0.0,0.0,0.0,0.0,0.0,0.0,0.0,0.0,0.0,0.0,0.0,0.0,0.0,0.0,0.0,0.0,0.0,0.0,0.0,0.0,0.0,0.0,0.0,0.0,0.0,0.0,0.0,0.0,0.0,0.0,0.0,0.0,0.0,0.0,0.0,0.0,0.0,0.0,0.0,0.0,0.0,0.0,0.0,0.0,0.0,0.0,0.0,0.0,0.0,0.0,0.0,0.0,0.0,0.0,0.0,0.0,0.0,0.0,0.0,0.0,0.0,0.0,0.0,0.0,0.0,0.0,0.0,0.0,0.0,0.0,0.0,0.0,0.0,0.0,0.0,0.0,0.0,0.0,0.0,0.0,0.0,0.0,0.0,0.0,0.0,0.0,0.0,0.0,0.0,0.0,0.0,0.0,0.0,0.0,0.0,0.0,0.0,0.0,0.0,0.0,0.0,0.0,0.0,0.0,0.0,0.0,0.0,0.0,0.0,0.0,0.0,0.0,0.0,0.0,0.0,0.0,0.0,0.0,0.0,0.0,0.0,0.0,0.0,0.0,0.0,0.0,0.0,0.0,0.0,0.0,0.0,0.0,0.0,0.0,0.0,0.0,0.0,0.0,0.0,0.0,0.0,0.0,0.0,0.0,0.0,0.0,0.0,0.0,0.0,0.0,0.0,0.0,0.0,0.0,0.0,0.0,0.0,0.0,0.0,0.0,0.0,0.0,0.0,0.0,0.0,0.0,0.0,0.0,0.0,0.0,0.0,0.0,0.0,0.0,0.0,0.0,0.0,0.0,0.0,0.0,0.0,0.0,0.0,0.0,0.0,0.0,0.0,0.0,0.0,0.0,0.0,0.0,0.0,0.0,0.0,0.0,0.0,0.0,0.0,0.0,0.0,0.0,0.0,0.0,0.0,0.0,0.0,0.0,0.0,0.0,0.0,0.0,0.0,0.0,0.0,0.0,0.0,0.0,0.0,0.0,0.0,0.0,0.0,0.0,0.0,0.0,0.0,0.0,0.0,0.0,0.0,0.0,0.0,0.0,0.0,0.0,0.0,0.0,0.0,0.0,0.0,0.0,0.0,0.0,0.0,0.0,0.0,0.0,0.0,0.0,0.0,0.0,0.0,0.0,0.0,0.0,0.0,0.0,0.0,0.0,0.0,0.0,0.0,0.0,0.0,0.0,0.0,0.0,0.0,0.0,0.0,0.0,0.0,0.0,0.0,0.0,0.0,0.0,0.0,0.0,0.0,0.0,0.0,0.0,0.0,0.0,0.0,0.0,0.0,0.0,0.0,0.0,0.0,0.0,0.0,0.0,0.0,0.0,0.0,0.0,0.0,0.0,0.0,0.0,0.0,0.0,0.0,0.0,0.0,0.0,0.0,0.0,0.0,0.0,0.0,0.0,0.0,0.0,0.0,0.0,0.0,0.0,0.0,0.0,0.0,0.0,0.0,0.0,0.0,0.0,0.0,0.0,0.0,0.0,0.0,0.0,0.0,0.0,0.0,0.0,0.0,0.0,0.0,0.0,0.0,0.0,0.0,0.0,0.0,0.0,0.0,0.0,0.0,0.0,0.0,0.0,0.0,0.0,0.0,0.0,0.0,0.0,0.0,0.0,0.0,0.0,0.0,0.0,0.0,0.0,0.0,0.0,0.0,0.0,0.0,0.0,0.0,0.0,0.0,0.0,0.0,0.0,0.0,0.0,0.0,0.0,0.0,0.0,0.0,0.0,0.0,0.0,0.0,0.0,0.0,0.0,0.0,0.0,0.0,0.0,0.0,0.0,0.0,0.0,0.0,0.0,0.0,0.0,0.0,0.0,0.0,0.0,0.0,0.0,0.0,0.0,0.0,0.0,0.0,0.0,0.0,0.0,0.0,0.0,0.0,0.0,0.0,0.0,0.0,0.0,0.0,0.0,0.0,0.0,0.0,0.0,0.0,0.0,0.0,0.0,0.0,0.0,0.0,0.0,0.0,0.0,0.0,0.0,0.0,0.0,0.0,0.0,0.0,0.0,0.0,0.0,0.0,0.0,0.0,0.0,0.0,0.0,0.0,0.0,0.0,0.0,0.0,0.0,0.0,0.0,0.0,0.0,0.0,0.0,0.0,0.0,0.0,0.0,0.0,0.0,0.0,0.0,0.0,0.0,0.0,0.0,0.0,0.0,0.0,0.0,0.0,0.0,0.0,0.0,0.0,0.0,0.0,0.0,0.0,0.0,0.0,0.0,0.0,0.0,0.0,0.0,0.0,0.0,0.0,0.0,0.0,0.0,0.0,0.0,0.0,0.0,0.0,0.0,0.0,0.0,0.0,0.0,0.0,0.0,0.0,0.0,0.0,0.0,0.0,0.0,0.0,0.0,0.0,0.0,0.0,0.0,0.0,0.0,0.0,0.0,0.0,0.0,0.0,0.0,0.0,0.0,0.0,0.0,0.0,0.0,0.0,0.0,0.0,0.0,0.0,0.0,0.0,0.0,0.0,0.0,0.0,0.0,0.0,0.0,0.0,0.0,0.0,0.0,0.0,0.0,0.0,0.0,0.0,0.0,0.0,0.0,0.0,0.0,0.0,0.0,0.0,0.0,0.0,0.0,0.0,0.0,0.0,0.0,0.0,0.0,0.0,0.0,0.0,0.0,0.0,0.0,0.0,0.0,0.0,0.0,0.0,0.0,0.0,0.0,1.7517,0.0,0.0,0.0,0.0,0.0,0.0,0.0,0.0,0.0,0.0,0.0,0.0,0.0,0.0,0.0,0.0,0.0,0.0,0.0,0.0,0.0,0.0,0.0,0.0,1.3969,1.3913,1.3913,1.3997,1.4011,1.3913,0.0,0.0,0.0,0.0,0.0,1.4302,1.4421,1.4489,1.4566,1.5593,1.6787,1.8137,1.8616,1.7985,1.6447,0.0,0.0,0.0,0.0,0.0,0.0,0.0,0.0,0.0,0.0,0.0,0.0,0.0,0.0,0.0,0.0,0.0,0.0,0.0,0.0,0.0,0.0,0.0,0.0,0.0,0.0,0.0,0.0,0.0,0.0,0.0,0.0,0.0,0.0,0.0,0.0,0.0,0.0,0.0,0.0,0.0,0.0,0.0,0.0,0.0,0.0,0.0,0.0,0.0,0.0,0.0,0.0,0.0,0.0,0.0,0.0,0.0,0.0,0.0,0.0,0.0,0.0,0.0,0.0,0.0,0.0,0.0,0.0,0.0,0.0,0.0,1.6987,0.0,0.0,0.0,0.0,0.0,0.0,0.0,0.0,0.0,0.0,0.0,0.0,0.0,0.0,0.0,0.0,0.0,0.0,0.0,0.0,0.0,1.378,1.3719,1.3766,1.3798,1.3754,1.3813,1.3842,1.3813,1.3842,1.3856,1.3856,1.3856,1.3853,1.3899,1.411,1.4353,1.4676,1.6972,1.9402,2.1921,2.2677,2.16,1.9004,0.0,0.0,0.0,0.0,0.0,0.0,0.0,0.0,0.0,0.0,0.0,0.0,0.0,0.0,0.0,0.0,0.0,0.0,0.0,0.0,0.0,0.0,0.0,0.0,0.0,0.0,0.0,0.0,0.0,0.0,0.0,0.0,0.0,0.0,0.0,0.0,0.0,0.0,0.0,0.0,0.0,0.0,0.0,0.0,0.0,0.0,0.0,0.0,0.0,0.0,0.0,0.0,0.0,0.0,0.0,0.0,0.0,0.0,0.0,0.0,0.0,0.0,0.0,0.0,1.8811,1.9023,1.9023,1.9051,1.8633,1.8042,1.9627,2.0701,2.1143,1.8437,0.0,0.0,0.0,0.0,0.0,0.0,0.0,0.0,0.0,0.0,0.0,0.0,0.0,0.0,0.0,0.0,0.0,0.0,0.0,1.3295,1.3074,1.3295,1.3362,1.3157,1.3443,1.3588,1.3479,1.3572,1.363,1.363,1.363,1.3721,1.3899,1.411,1.4969,1.6534,1.9444,2.1799,2.359,2.3823,2.4062,2.4235,2.2842,0.0,0.0,0.0,0.0,0.0,0.0,0.0,0.0,0.0,0.0,0.0,0.0,0.0,0.0,0.0,0.0,0.0,0.0,0.0,0.0,0.0,0.0,0.0,0.0,0.0,0.0,0.0,0.0,0.0,0.0,0.0,0.0,0.0,0.0,0.0,0.0,0.0,0.0,0.0,0.0,0.0,0.0,0.0,1.576,1.7061,0.0,0.0,0.0,0.0,0.0,0.0,0.0,0.0,0.0,0.0,0.0,0.0,0.0,1.7196,1.7189,1.9715,2.1004,2.1023,2.3235,2.4303,2.4293,2.4366,2.43,2.3985,2.1403,0.0,2.0418,2.0834,0.0,0.0,0.0,0.0,0.0,0.0,0.0,0.0,0.0,0.0,0.0,0.0,0.0,0.0,0.0,0.0,0.0,0.0,0.0,0.0,0.0,1.3743,1.4352,1.4235,1.5283,1.5516,1.4477,1.4469,1.4066,1.3088,1.3176,1.3312,1.3394,1.381,1.5775,1.9329,2.308,2.5841,2.7566,2.8591,2.9011,2.8917,2.8225,2.6134,2.3114,2.2658,0.0,0.0,0.0,0.0,0.0,0.0,0.0,0.0,0.0,0.0,0.0,0.0,0.0,0.0,0.0,0.0,0.0,0.0,0.0,0.0,0.0,0.0,0.0,0.0,0.0,0.0,0.0,0.0,0.0,0.0,0.0,0.0,0.0,0.0,0.0,0.0,0.0,0.0,0.0,1.6071,1.6885,1.7606,1.7761,1.6779,0.0,0.0,0.0,0.0,0.0,0.0,0.0,0.0,0.0,1.7608,1.9066,1.9815,1.9772,2.2333,2.3583,2.3484,2.4716,2.5234,2.5141,2.5283,2.5321,2.5216,2.376,2.3095,2.2952,2.1463,2.1123,2.1333,0.0,0.0,0.0,0.0,1.4741,1.5978,0.0,0.0,0.0,0.0,0.0,0.0,0.0,0.0,0.0,0.0,0.0,0.0,1.2962,1.47,1.5844,1.5763,1.6998,1.7059,1.5317,1.5197,1.4415,1.2675,1.2797,1.2924,1.2995,1.4707,1.7871,2.2455,2.6446,2.9301,3.1083,3.2314,3.249,3.1768,3.1768,2.9632,2.5938,2.535,2.3482,0.0,0.0,0.0,0.0,0.0,0.0,0.0,0.0,0.0,0.0,0.0,0.0,0.0,0.0,0.0,0.0,0.0,0.0,0.0,0.0,0.0,0.0,0.0,0.0,0.0,0.0,0.0,0.0,0.0,0.0,0.0,0.0,0.0,0.0,0.0,0.0,0.0,0.0,1.6924,1.7965,1.8588,1.9302,1.8695,0.0,0.0,0.0,0.0,0.0,0.0,1.8518,1.8529,1.8818,1.9421,2.133,2.2325,2.2274,2.42,2.5118,2.501,2.5118,2.5107,2.501,2.5152,2.5224,2.5224,2.5274,2.5303,2.5091,2.2571,2.1935,2.2477,2.1798,2.0366,1.8569,1.7697,1.7927,1.8631,0.0,0.0,0.0,0.0,0.0,0.0,0.0,0.0,0.0,0.0,0.0,1.4155,1.3951,1.6177,1.7563,1.7306,1.7608,1.7059,1.5317,1.5197,1.4415,1.2675,1.261,1.2741,1.2979,1.7772,2.2098,2.5858,2.881,3.1129,3.2776,3.2852,3.2468,3.1711,3.1711,3.0267,2.7865,2.7807,2.5824,2.2524,0.0,0.0,0.0,0.0,0.0,0.0,0.0,0.0,0.0,0.0,0.0,0.0,0.0,0.0,0.0,0.0,0.0,0.0,0.0,0.0,0.0,0.0,0.0,0.0,0.0,0.0,0.0,0.0,0.0,0.0,0.0,0.0,0.0,0.0,0.0,0.0,0.0,0.0,0.0,2.1007,2.3497,0.0,0.0,0.0,0.0,1.7251,1.7263,1.8429,2.0709,2.0828,2.194,2.4365,2.4573,2.4629,2.4629,2.4776,2.4877,2.501,2.4883,2.4896,2.501,2.501,2.5022,2.5022,2.5214,2.5303,2.5293,2.5174,2.5137,2.4881,2.2516,2.1483,2.092,1.7657,1.852,2.1188,0.0,0.0,0.0,0.0,0.0,1.1692,1.1692,1.1252,1.1059,1.1493,1.2794,1.364,1.3553,1.6316,1.8159,1.8031,1.9147,1.9235,1.7734,1.6394,1.4999,1.3557,1.2534,1.3179,1.5658,2.0949,2.4722,2.6873,3.0715,3.2982,3.3737,3.4314,3.4122,3.3314,3.3314,3.2216,3.0334,2.9775,2.7547,2.437,2.3765,2.1177,0.0,0.0,0.0,0.0,0.0,0.0,0.0,0.0,0.0,0.0,0.0,0.0,0.0,0.0,0.0,0.0,0.0,0.0,0.0,0.0,0.0,0.0,0.0,0.0,0.0,0.0,0.0,0.0,0.0,0.0,0.0,0.0,0.0,0.0,0.0,0.0,0.0,2.1731,2.2441,0.0,2.1891,2.1457,2.0755,1.9663,2.1193,2.2533,2.3404,2.3441,2.387,2.4766,2.4804,2.4804,2.4804,2.4804,2.4756,2.4678,2.4756,2.4756,2.4678,2.4809,2.4864,2.4883,2.4949,2.4994,2.4987,2.5102,2.5197,2.5216,2.4334,2.3975,2.3806,2.2579,2.2899,2.3899,0.0,0.0,0.0,0.0,0.0,1.1587,1.1587,1.0926,1.0808,1.1842,1.29,1.3827,1.4515,1.7213,1.8919,1.8743,1.9953,1.9846,1.7809,1.6403,1.4842,1.3034,1.2697,1.4643,1.9064,2.3173,2.6414,2.8813,3.215,3.4041,3.4506,3.5191,3.5026,3.4199,3.4199,3.341,3.2045,3.1198,2.9025,2.614,2.5534,2.2754,1.8888,0.0,0.0,0.0,0.0,0.0,0.0,0.0,0.0,0.0,0.0,0.0,0.0,0.0,0.0,0.0,0.0,0.0,0.0,0.0,0.0,0.0,0.0,0.0,0.0,0.0,0.0,0.0,0.0,0.0,0.0,0.0,0.0,0.0,0.0,0.0,1.989,2.2073,2.2861,2.3364,2.3746,2.336,2.2895,2.2461,2.4345,2.5236,2.4629,2.4853,2.4891,2.461,2.4591,2.4591,2.4591,2.4591,2.4559,2.4495,2.4578,2.4559,2.4512,2.4639,2.4381,2.3888,2.4511,2.4483,2.4006,2.4657,2.5041,2.5203,2.5203,2.5203,2.5192,2.5149,2.516,2.5214,0.0,0.0,0.0,0.0,0.0,1.1265,1.1277,1.0254,1.0186,1.2172,1.3377,1.4818,1.676,1.8876,1.9936,1.942,1.9817,1.872,1.5357,1.5094,1.3827,1.1097,1.3197,1.712,2.2911,2.4432,2.7337,3.184,3.3165,3.4249,3.5088,3.5369,3.5032,3.4237,3.4237,3.3757,3.2891,3.2102,3.0314,2.7871,2.612,2.3889,2.1304,0.0,0.0,0.0,0.0,0.0,0.0,0.0,0.0,0.0,0.0,0.0,0.0,0.0,0.0,0.0,0.0,0.0,0.0,0.0,0.0,0.0,0.0,0.0,0.0,0.0,0.0,0.0,0.0,0.0,0.0,0.0,0.0,0.0,1.3868,1.851,2.2111,2.2351,2.5227,2.7112,2.6954,2.7079,2.6689,2.5535,2.6337,2.6135,2.4374,2.4942,2.4961,2.4208,2.4171,2.4153,2.4134,2.4189,2.4303,2.4478,2.4284,2.4303,2.4495,2.4495,2.3601,2.2174,2.4001,2.3846,2.2495,2.4124,2.4864,2.4998,2.4998,2.4998,2.4986,2.4855,2.4877,2.5003,0.0,0.0,0.0,1.1249,1.0815,1.0674,1.0976,0.9914,0.9502,1.0738,1.2259,1.3537,1.4413,1.6998,1.8617,1.8464,1.8579,1.7992,1.6303,1.4985,1.3845,1.2827,1.5564,1.9226,2.377,2.6799,2.9771,3.2676,3.3612,3.4348,3.4832,3.5088,3.5073,3.4859,3.5053,3.4661,3.3833,3.3603,3.241,3.0506,2.8756,2.6178,2.3312,0.0,0.0,0.0,0.0,0.0,0.0,0.0,0.0,0.0,0.0,0.0,0.0,0.0,0.0,0.0,0.0,0.0,0.0,0.0,0.0,0.0,0.0,0.0,0.0,0.0,0.0,0.0,0.0,0.0,0.0,0.0,1.7472,1.9767,1.9684,2.1017,2.3111,2.6115,2.6767,2.7121,2.7511,2.7073,2.6628,2.6303,2.6528,2.6454,2.597,2.4346,2.3591,2.3899,2.3391,2.2964,2.2679,2.4021,2.4439,2.3921,2.3878,2.3998,2.4284,2.4284,2.4026,2.3621,2.4154,2.4098,2.3727,2.4323,2.4588,2.4651,2.4799,2.4917,2.4986,2.4855,2.4814,2.4617,0.0,0.0,0.0,1.0214,0.9676,0.9368,0.951,0.8653,0.8531,1.0096,1.1251,1.2425,1.3652,1.5932,1.7218,1.6705,1.7136,1.6612,1.4721,1.3631,1.3782,1.5345,1.7625,2.095,2.5565,2.8134,3.0622,3.3077,3.3814,3.4498,3.5052,3.5323,3.5628,3.5932,3.6099,3.5711,3.4926,3.5025,3.4323,3.3001,3.1751,2.9017,2.564,2.5225,2.3707,2.176,2.1395,2.1357,2.1222,1.9748,0.0,0.0,0.0,0.0,0.0,0.0,0.0,0.0,0.0,0.0,0.0,0.0,0.0,0.0,0.0,0.0,0.0,0.0,0.0,0.0,0.0,0.0,0.0,0.0,1.9125,2.2356,2.4635,2.4931,2.5949,2.8667,2.8574,2.8418,2.8782,2.8081,2.7475,2.7126,2.742,2.7244,2.6399,2.5216,2.4274,2.3562,2.3909,2.3671,2.2837,2.4186,2.4667,2.4198,2.3728,2.3588,2.3795,2.3917,2.3631,2.3029,2.3858,2.3823,2.3254,2.4062,2.4409,0.0,0.0,0.0,0.0,0.0,2.467,2.4494,0.0,0.0,0.0,0.9205,0.8382,0.7811,0.7608,0.7035,0.7461,0.9785,1.0358,1.1429,1.3761,1.533,1.5784,1.4789,1.5545,1.4882,1.207,1.193,1.3829,1.8039,1.9285,2.2394,2.7725,2.8687,3.0481,3.3105,3.3758,3.4525,3.5386,3.5702,3.6268,3.7055,3.7077,3.6707,3.6052,3.6293,3.5968,3.5261,3.4634,3.2007,2.8371,2.737,2.5956,2.4394,2.3599,2.2871,2.2221,2.2017,0.0,0.0,0.0,0.0,0.0,0.0,0.0,0.0,0.0,0.0,0.0,0.0,0.0,0.0,0.0,0.0,0.0,0.0,0.0,0.0,0.0,0.0,0.0,0.0,2.0426,2.3696,2.8469,2.9186,2.9466,3.0045,3.0143,3.0082,2.9966,2.9284,2.8571,2.7862,2.8461,2.8106,2.6327,0.0,0.0,0.0,0.0,2.5129,2.3772,2.4523,2.4882,2.4751,2.3673,2.3165,2.3212,2.3522,2.2854,2.1612,2.3337,2.3289,2.2081,2.3508,2.421,2.4408,2.4478,2.4495,2.4424,2.4145,2.4219,2.4458,0.0,0.0,0.0,0.8501,0.7804,0.73,0.7344,0.6617,0.6751,0.8675,0.9631,1.0795,1.2643,1.4137,1.496,1.4698,1.4273,1.3579,1.2603,1.2826,1.4763,1.8731,2.036,2.3471,2.8381,2.8783,3.0177,3.2648,3.313,3.38,3.4648,3.5266,3.6005,3.6808,3.7009,3.7005,3.6877,3.692,3.6866,3.664,3.5872,3.4116,3.1833,3.1013,2.9598,2.806,2.7907,2.7734,2.7302,2.5245,2.4428,2.4169,2.3525,0.0,0.0,0.0,0.0,0.0,0.0,0.0,0.0,0.0,0.0,0.0,0.0,0.0,0.0,0.0,0.0,0.0,0.0,0.0,0.0,2.0991,2.4131,2.7323,2.9574,3.0439,3.0552,2.9817,2.9699,2.934,2.8433,2.8209,2.8066,2.7906,2.8031,2.7923,2.7565,2.5685,2.4655,2.4749,2.4506,2.4085,2.3481,2.4537,2.4742,2.4077,0.0,0.0,2.3189,2.3277,2.3122,2.2856,2.3244,2.3231,2.2941,2.3267,2.3588,2.3901,2.4338,2.441,2.4026,2.1951,2.2483,2.3989,0.0,0.0,0.0,0.7212,0.6123,0.5335,0.5387,0.4889,0.4926,0.6112,0.734,0.8677,1.01,1.1347,1.21,1.2087,1.1909,1.2157,1.2992,1.4008,1.624,1.9943,2.1655,2.4398,2.8458,2.9072,3.0259,3.2127,3.2989,3.3938,3.5002,3.533,3.6297,3.7683,3.7429,3.7296,3.734,3.7873,3.7647,3.6883,3.661,3.5646,3.4285,3.3029,3.1489,3.0018,3.0155,2.932,2.8051,2.7412,2.6236,2.5068,2.5168,2.3934,2.2059,0.0,0.0,0.0,0.0,0.0,0.0,0.0,0.0,0.0,0.0,0.0,0.0,0.0,0.0,1.8409,1.7631,0.0,2.1856,2.2753,2.5222,2.7864,3.0353,3.1038,3.1221,3.1076,3.0373,2.9661,2.9113,2.8357,2.7897,2.7897,2.7897,2.7811,2.7589,2.6377,2.5374,2.4837,2.5357,2.5184,2.427,2.5167,2.5444,2.5034,2.368,2.3131,2.3284,2.3065,2.2947,2.2972,2.3117,2.3189,2.3189,2.3189,2.33,2.3482,2.3744,2.3883,2.381,2.2513,2.2859,2.3794,0.0,0.0,0.0,0.5926,0.4649,0.3628,0.3525,0.3244,0.3322,0.4025,0.5294,0.658,0.7717,0.8575,0.9068,0.9009,0.978,1.1099,1.2889,1.5027,1.7728,2.115,2.2746,2.5144,2.851,2.9369,3.0429,3.1903,3.3124,3.4322,3.5534,3.5549,3.6501,3.8177,3.7747,3.7516,3.7454,3.8553,3.8172,3.6868,3.6911,3.6445,3.5525,3.37,3.2238,3.1128,3.1035,2.9485,2.7588,2.8453,2.7096,2.5173,2.5975,2.5593,2.4143,2.0704,2.0733,0.0,0.0,0.0,0.0,0.0,0.0,0.0,0.0,0.0,1.9127,1.8754,1.9367,1.9841,1.9401,2.0923,2.2875,2.4678,2.6105,2.7979,3.0882,3.1284,3.1459,3.1967,3.0997,3.0149,2.9755,2.8614,2.7824,2.7666,2.7666,2.7547,2.721,2.7178,2.6502,2.498,2.6385,2.6592,2.5291,2.5708,2.587,2.576,2.3992,2.3167,2.3224,2.2709,2.2538,2.2634,2.2915,2.2972,2.2905,2.2905,2.293,2.2979,2.2979,2.3212,2.3522,2.3566,2.3588,2.3588,0.0,0.0,0.0,0.0,0.0,0.411,0.3585,0.318,0.3379,0.4703,0.5238,0.5964,0.7233,0.7487,0.7443,0.7212,0.9308,1.0954,1.1671,1.5243,1.8735,2.1825,2.3091,2.5469,2.9201,2.9424,3.0432,3.2258,3.3451,3.4484,3.5331,3.5698,3.6006,3.6346,3.7376,3.7507,3.6942,3.8211,3.8217,3.7345,3.6675,3.5864,3.4852,3.252,3.1793,3.1883,3.0463,2.9271,2.8256,2.7676,2.6771,2.588,2.6004,2.546,2.4321,2.1822,0.0,2.0554,1.6737,1.44,1.3512,1.5418,1.6624,1.7592,0.0,0.0,2.2961,2.1993,2.2902,2.4036,2.4628,2.5473,2.6606,2.8166,2.9132,3.0014,3.1074,3.1193,3.0989,3.0428,3.0523,2.9955,2.8219,2.7913,2.7539,2.6892,2.6841,2.6808,2.6791,2.6758,2.6673,2.6454,2.6673,2.6489,2.5891,2.5276,2.4736,2.4309,2.2857,2.2345,2.2683,2.2032,2.1969,2.2349,2.236,2.2158,2.1774,2.1774,2.1943,2.2218,2.2218,2.2451,2.2848,2.3141,2.3277,2.3277,0.0,0.0,0.0,0.0,0.0,0.3389,0.3284,0.2687,0.2491,0.3163,0.3596,0.4268,0.5372,0.5704,0.5686,0.5302,0.7576,0.9649,1.1168,1.4606,1.7904,2.0825,2.2714,2.4946,2.7659,2.9261,3.064,3.1766,3.349,3.4655,3.5312,3.5436,3.5934,3.6697,3.6701,3.6845,3.7024,3.7091,3.6841,3.6272,3.5218,3.4014,3.2716,3.1008,3.0063,2.9429,2.7811,2.6338,0.0,0.0,2.4682,2.3668,2.5302,2.4472,2.2643,2.1456,2.0512,0.0,1.7661,1.7024,0.0,0.0,1.9828,2.1165,2.2491,2.3884,2.476,2.432,2.505,2.5727,2.5625,2.5862,2.6708,0.0,2.8873,2.9218,3.0482,3.0332,2.9703,2.8662,2.8002,2.7253,2.6318,2.6549,2.6158,2.4775,2.5395,2.5819,2.5819,2.5819,2.5819,2.5819,2.5819,2.5709,2.554,2.5195,2.4922,2.4734,2.3291,2.274,2.2862,2.1762,2.1354,2.1554,2.1554,2.1415,2.1244,2.1244,2.1321,2.1442,2.1442,2.1562,2.1811,2.2609,2.2923,2.2923,0.0,0.0,0.0,0.0,0.0,0.2754,0.2959,0.2304,0.1844,0.1933,0.2231,0.2722,0.3472,0.4007,0.4192,0.386,0.626,0.8683,1.0799,1.3966,1.6999,1.9767,2.1874,2.4007,2.6251,2.8545,3.0206,3.1172,3.3034,3.415,3.4521,3.4638,3.5094,3.5822,3.5568,3.5658,3.605,3.581,3.5295,3.4616,3.355,3.2163,3.0636,2.9079,2.7712,2.6407,2.511,2.3821,0.0,0.0,2.2277,2.1641,2.3271,2.263,2.1105,2.0359,1.8979,1.7737,1.7987,0.0,0.0,2.1102,2.2446,2.3883,2.5795,2.6065,2.5931,2.6,2.6135,2.6067,2.5614,2.538,2.5898,2.7955,2.7952,2.8118,2.9329,2.9075,2.8159,2.6469,2.5297,2.4164,2.2949,2.4488,2.4955,2.3597,2.4532,2.5221,2.5221,2.5221,2.5221,2.5221,2.5221,2.5144,2.4973,2.4973,2.491,2.4736,2.3368,2.276,2.2841,2.158,2.0991,2.0991,2.0991,2.0926,2.0797,2.0797,2.0797,2.0797,2.0797,2.0894,2.1118,2.1927,2.2235,2.2252,0.0,0.0,0.0,0.0,0.0,0.2702,0.2707,0.2202,0.1806,0.1809,0.1809,0.1839,0.1871,0.264,0.3152,0.3136,0.6002,0.8562,1.039,1.3455,1.6434,1.9194,2.0454,2.2546,2.5651,2.7076,2.868,3.0523,3.188,3.2574,3.2618,3.3194,3.3093,3.2473,3.3714,3.3859,3.3308,3.4429,3.4072,3.2616,3.1866,3.0635,2.8991,2.6632,2.4806,2.3477,2.296,0.0,0.0,1.983,1.9878,2.0784,1.9432,1.9741,0.0,1.8504,1.6545,1.5287,1.6954,0.0,1.7369,2.1292,2.2835,2.4154,2.7046,2.7182,2.6758,2.7015,2.5966,2.5086,2.5282,2.4777,2.4798,2.6251,2.7001,2.7428,2.7492,2.7476,2.643,2.3767,2.3035,2.1308,0.0,2.1528,2.4309,2.4184,2.4804,2.5221,2.5221,2.5221,2.5221,2.5221,2.5221,2.4934,2.443,2.443,2.4158,2.3623,2.2334,2.194,2.2307,2.1397,2.0991,2.0991,2.0991,2.0748,2.0314,2.0314,2.0314,2.0314,2.0314,2.0583,2.0991,2.1023,2.1055,2.1118,0.0,0.0,0.0,0.0,0.0,0.0,0.2697,0.2198,0.1803,0.1803,0.1957,0.0,0.0,0.0,0.0,0.0,0.4687,0.6434,0.8191,1.125,1.3949,1.6018,1.8852,2.0901,2.1965,2.4534,2.6153,2.6803,2.8464,2.9538,3.0011,3.0518,3.0857,3.1091,3.1862,3.2081,3.1824,3.174,3.1565,3.1218,2.966,2.8481,2.7262,2.4025,2.2275,2.1159,0.0,0.0,0.0,1.682,1.6809,1.7331,1.8054,1.7723,1.6714,1.4918,1.5272,1.6305,1.6594,0.0,1.937,2.187,2.3522,2.4915,2.6477,2.6983,2.6857,2.6081,2.4673,2.3323,2.2479,2.1211,2.1148,2.3674,2.3618,2.406,2.6466,2.508,2.3451,2.247,2.0774,0.0,0.0,0.0,0.0,2.0253,2.1858,2.2872,2.2893,2.3256,2.3285,2.2878,2.3256,2.3194,2.2593,2.2593,2.2316,2.181,2.0556,1.9795,1.9508,1.9211,1.9082,1.9082,1.9082,1.897,1.8835,1.8835,1.8835,1.8835,1.8835,1.8948,1.9104,1.9417,1.9345,1.9287,0.0,0.0,0.0,0.0,0.0,0.0,0.0,0.0,0.0,0.0,0.0,0.0,0.0,0.0,0.0,0.0,0.0,0.5288,0.6934,0.9272,1.132,1.295,1.58,1.7527,1.7982,2.0882,2.2615,2.3112,2.5264,2.6544,2.6973,2.7648,2.8188,2.8648,2.9132,2.9395,2.9362,2.9019,2.8748,2.8302,2.6182,2.4752,2.3572,2.0636,1.8813,0.0,0.0,0.0,1.4109,1.428,1.4692,1.523,1.5859,1.5215,1.4137,1.3829,1.4915,1.64,1.7191,1.8943,2.1006,2.3025,2.4531,2.5655,2.6206,2.6479,2.6222,2.4939,2.346,2.1874,2.0177,1.8823,1.8651,2.0872,2.0609,2.1212,2.4349,2.2951,2.1399,2.0869,1.9391,1.8288,0.0,0.0,0.0,1.881,2.04,2.1428,2.1425,2.1779,2.1904,2.171,2.2097,2.2063,2.1697,2.1697,2.1296,2.054,1.9572,1.8767,1.8106,1.8106,1.791,1.756,1.7951,1.7896,1.756,1.7965,1.8106,1.812,1.83,1.8383,1.8451,1.8953,1.8971,1.8848,0.0,0.0,0.0,0.0,0.0,0.0,0.0,0.0,0.0,0.0,0.0,0.0,0.0,0.0,0.0,0.0,0.0,0.0,0.6576,0.0,0.0,1.0208,1.1536,1.2805,1.4008,1.6358,1.8206,1.9487,2.2007,2.3303,2.3364,2.4435,2.4933,2.5035,2.5524,2.5735,2.5754,2.6101,2.5441,2.3971,2.1591,1.9829,1.8376,1.6551,0.0,0.0,0.0,0.0,0.0,1.2193,1.3508,1.4529,1.3179,1.2596,1.2829,1.5101,1.5409,1.5672,1.8594,2.0475,2.2155,2.4557,2.5639,2.6174,2.6166,2.5654,2.4796,2.3545,2.2201,2.0538,0.0,0.0,1.7156,1.7961,1.8167,1.9035,2.1341,2.1198,2.0364,0.0,0.0,0.0,0.0,0.0,0.0,1.9908,0.0,2.0877,2.0933,2.0974,2.1162,2.1629,2.1684,2.167,2.1602,2.1574,2.0969,1.9814,1.9293,1.8645,1.8027,1.8027,1.747,1.657,1.757,1.7457,1.6584,1.7598,1.8001,1.8043,1.8563,1.8767,1.8862,1.9462,1.968,1.959,0.0,0.0,0.0,0.0,0.0,0.0,0.0,0.0,0.0,0.0,0.0,0.0,0.0,0.0,0.0,0.0,0.0,0.0,0.0,0.0,0.0,0.0,0.0,0.0,0.0,0.0,0.0,1.4006,1.5281,1.6354,1.7257,1.7897,1.867,1.9623,2.0337,2.0663,2.0661,2.0508,2.0207,1.9733,0.0,1.7162,1.6545,0.0,0.0,0.0,0.0,0.0,0.0,0.0,1.2512,1.416,1.478,1.494,1.4905,1.5004,1.6559,1.8408,1.9248,2.1109,2.3134,2.4302,2.4431,2.407,2.326,2.3217,2.2546,1.9645,1.8077,1.6554,0.0,0.0,0.0,1.5921,1.6078,0.0,2.0601,2.0521,0.0,1.9721,0.0,1.9585,1.9535,1.9978,0.0,0.0,2.0594,2.0854,2.1313,2.1709,2.166,2.0965,2.1351,2.1158,2.0283,1.9883,1.933,1.8621,1.81,1.7532,1.6909,1.6909,1.6754,1.6496,1.6793,1.6754,1.6509,1.6793,1.6853,1.6786,1.6921,1.7205,1.7562,1.771,1.7807,1.7817,0.0,0.0,0.0,0.0,0.0,0.0,0.0,0.0,0.0,0.0,0.0,0.0,0.0,0.0,0.0,0.0,0.0,0.0,0.0,0.0,0.0,0.0,0.0,0.0,0.0,0.0,0.0,0.0,0.0,0.0,1.3863,1.4383,1.4975,1.5684,1.6314,1.6615,1.6611,1.6593,0.0,0.0,0.0,0.0,0.0,0.0,0.0,0.0,0.0,0.0,0.0,0.0,0.0,1.4573,1.6458,1.6862,1.6847,1.7939,1.9284,2.0584,2.1506,2.2581,2.3563,2.3981,2.3245,2.2047,2.0654,2.0359,1.9638,1.6881,1.5797,0.0,1.2753,1.1626,0.0,0.0,0.0,0.0,1.8826,1.8971,1.8933,0.0,1.9656,0.0,2.0434,2.0704,2.0669,0.0,2.0494,2.0768,2.1146,2.1418,2.1305,2.0743,2.0966,2.0702,1.9811,1.9284,1.8709,1.8081,1.7542,1.6956,1.6386,1.6092,1.5752,1.5391,0.0,1.5525,1.5334,1.6122,1.6358,1.6236,1.6797,1.7006,1.7046,1.7445,1.7606,1.7711,0.0,0.0,0.0,0.0,0.0,0.0,0.0,0.0,0.0,0.0,0.305,0.3152,0.0,0.0,0.0,0.0,0.0,0.0,0.0,0.0,0.0,0.0,0.0,0.0,0.0,0.0,0.0,0.0,0.0,0.0,0.0,0.0,0.0,0.0,0.0,0.0,0.0,0.0,0.0,0.0,0.0,0.0,0.0,0.0,0.0,0.0,0.0,0.0,0.0,0.0,1.4648,1.5443,1.8019,1.8475,1.8654,2.1465,2.1987,2.2061,2.3703,2.3868,2.3521,2.3435,2.208,2.0332,1.8685,1.7831,1.6844,1.4957,0.0,1.4026,1.2557,1.2283,1.2654,1.373,0.0,1.4751,1.6492,1.706,1.7671,1.8524,1.9155,1.9717,2.0194,2.0594,2.0528,1.9856,2.0344,2.0704,2.0704,2.0704,2.063,2.0481,2.0345,2.0089,1.9643,1.9094,1.8507,1.7879,1.7329,1.676,1.6232,1.5672,1.4971,1.428,1.471,1.4562,1.4138,1.5753,1.6256,1.6067,1.7289,1.7402,1.6992,1.791,1.8242,1.8242,0.0,0.0,0.0,0.0,0.0,0.0,0.0,0.0,0.0,0.0,0.3713,0.3445,0.0,0.0,0.0,0.0,0.0,0.0,0.0,0.0,0.0,0.0,0.0,0.0,0.0,0.0,0.0,0.0,0.0,0.0,0.0,0.0,0.0,0.0,0.0,0.0,0.0,0.0,0.0,0.0,0.0,0.0,0.0,0.0,0.0,0.0,0.0,0.0,0.0,0.0,1.4729,1.6457,1.878,1.9825,2.0177,2.0174,2.0851,2.1657,2.1868,2.2374,2.2672,2.2192,2.1042,1.9759,1.8582,1.7468,0.0,0.0,1.3103,1.2611,1.1882,1.1725,1.214,1.3396,1.3949,1.4268,1.424,1.6045,1.737,0.0,1.8199,1.9274,2.0387,1.9977,0.0,0.0,2.0551,2.0648,2.0648,2.0648,2.0259,1.9423,1.8576,1.8379,1.8886,1.8193,1.7832,1.7879,1.7168,1.6564,1.6042,1.5942,1.5797,1.5672,1.5742,0.0,1.5631,1.6287,1.6221,1.5869,1.6768,1.7164,1.718,1.7719,1.792,1.797,0.0,0.0,0.0,0.0,0.0,0.0,0.0,0.4224,0.4677,0.4703,0.4781,0.4631,0.4021,0.4038,0.4031,0.0,0.0,0.0,0.0,0.0,0.0,0.0,0.0,0.0,0.0,0.0,0.0,0.0,0.0,0.0,0.0,0.0,0.0,0.0,0.0,0.0,0.0,0.0,0.0,0.0,0.0,0.0,0.0,0.0,0.0,0.0,0.0,0.0,0.0,0.0,1.2647,1.4596,1.8573,2.0071,2.0316,1.9988,2.1006,2.2173,2.2173,2.2415,2.2474,2.1903,2.0361,1.8503,1.6556,0.0,0.0,0.0,1.1032,1.0699,1.0233,1.0147,0.0,1.2769,1.3255,1.3657,1.4393,1.5497,1.6477,1.7136,1.7674,1.8331,0.0,1.8855,1.8595,1.8554,1.8585,1.9169,2.0504,2.0098,1.9605,1.9123,1.8148,1.7797,1.8112,1.7797,1.7455,1.7178,1.6798,1.6342,1.5828,1.551,1.5437,1.5536,1.5416,0.0,1.5123,1.6392,1.6367,1.5699,1.6935,1.7236,1.7011,1.7456,1.7617,1.7607,0.0,0.0,0.0,0.0,0.0,0.0,0.3807,0.4751,0.5401,0.5215,0.5778,0.5819,0.4806,0.4759,0.4741,0.0,0.0,0.0,0.0,0.0,0.0,0.0,0.0,0.0,0.0,0.0,0.0,0.0,0.0,0.0,0.0,0.0,0.0,0.0,0.0,0.0,0.0,0.0,0.0,0.0,0.0,0.0,0.0,0.0,0.0,0.0,0.0,0.0,0.0,0.0,1.0406,1.1885,1.6705,1.8602,1.9045,1.9319,2.0502,2.1852,2.2456,2.2389,2.2048,2.151,1.9744,1.7501,1.475,1.359,0.0,1.0094,0.9454,0.9252,0.9181,0.917,0.9863,0.0,1.2167,1.2563,1.412,1.4397,1.4997,0.0,1.6806,0.0,1.7823,1.7719,0.0,1.6982,1.7002,1.7859,1.9901,1.9106,1.8572,1.8572,1.7734,1.73,1.7357,1.73,1.7073,1.6639,1.6363,1.6074,1.5772,1.5276,1.5143,1.5334,1.5236,0.0,0.0,1.6453,1.6507,1.5566,1.7174,1.7433,1.6924,1.7353,1.7519,1.7519,0.0,0.0,0.0,0.0,0.0,0.0,0.4109,0.5039,0.5771,0.5814,0.6184,0.626,0.5724,0.5582,0.5498,0.0,0.0,0.0,0.0,0.0,0.0,0.0,0.0,0.0,0.0,0.0,0.0,0.0,0.0,0.0,0.0,0.0,0.0,0.0,0.0,0.0,0.0,0.0,0.0,0.0,0.0,0.0,0.0,0.0,0.0,0.0,0.0,0.0,0.0,0.0,0.0,0.9417,1.1935,1.3985,1.5644,1.6584,0.0,0.0,2.1069,2.1243,2.0749,2.0116,1.9082,1.751,1.4878,0.0,1.2301,1.0717,0.9573,0.9153,1.0171,1.033,1.0552,1.1231,0.0,1.0407,1.1194,1.1687,1.2562,1.4208,0.0,0.0,1.7288,1.6717,1.6737,1.7803,1.7891,1.7997,1.8202,1.7382,1.6908,1.6908,1.6495,1.6325,1.6606,1.6384,1.6527,1.712,1.5996,1.5713,1.6058,1.6007,1.5978,1.6028,1.6357,0.0,0.0,1.6782,1.6596,1.5576,1.7301,1.7723,1.7373,1.7793,1.7949,1.7949,0.0,0.0,0.0,0.0,0.0,0.0,0.4696,0.5593,0.6331,0.66,0.6987,0.7168,0.697,0.6671,0.6173,0.5368,0.0,0.0,0.0,0.0,0.0,0.0,0.0,0.0,0.0,0.0,0.0,0.6324,0.0,0.0,0.0,0.0,0.0,0.0,0.0,0.0,0.0,0.0,0.0,0.0,0.0,0.0,0.0,0.0,0.0,0.0,0.0,0.0,0.0,0.0,0.0,0.0,0.8237,0.9191,0.0,0.0,1.478,1.6772,1.8119,1.9309,2.0012,1.9472,1.8499,1.691,1.399,0.0,1.1595,0.9594,0.8822,0.8556,0.8763,0.8806,0.9172,0.0,0.0,0.0,1.1962,1.2059,1.2695,1.4668,1.5059,0.0,0.0,0.0,1.6387,1.7178,1.6825,1.7035,1.7978,1.7441,1.7119,1.7119,1.6699,1.6501,1.6628,1.6501,1.6589,1.6888,1.6412,1.6299,1.6465,1.6465,1.6134,1.5631,1.6039,0.0,0.0,1.6094,1.6179,1.5261,1.6598,1.7045,1.6924,1.7083,1.7139,1.7101,0.0,0.0,0.0,0.0,0.0,0.4319,0.505,0.5823,0.6436,0.685,0.7158,0.7306,0.7306,0.6963,0.6387,0.5555,0.5606,0.0,0.0,0.0,0.0,0.0,0.0,0.0,0.0,0.0,0.6611,0.6611,0.6611,0.6851,0.0,0.0,0.0,0.0,0.0,0.0,0.0,0.0,0.0,0.0,0.0,0.0,0.0,0.0,0.0,0.0,0.0,0.0,0.0,0.0,0.0,0.0,0.0,0.0,0.0,0.0,1.2365,1.4823,1.5865,1.7718,1.9208,1.8668,1.7466,1.574,0.0,0.0,1.0509,0.8525,0.8119,0.8033,0.7754,0.7695,0.8119,0.0,0.0,0.9754,1.1953,1.2113,1.2637,0.0,0.0,1.5166,0.0,1.6416,1.6768,1.709,1.6421,1.6457,1.7541,1.7302,1.7235,1.7383,1.709,1.6865,1.6665,1.6517,1.6584,1.6924,1.6459,1.6262,1.622,1.667,1.6313,1.525,1.5873,0.0,0.0,1.5469,1.5534,1.4698,1.5736,1.6219,1.6219,1.6219,1.6219,1.6157,0.0,0.0,0.0,0.0,0.0,0.4631,0.503,0.5508,0.5947,0.6367,0.6416,0.6416,0.6416,0.6045,0.598,0.6357,0.6396,0.0,0.0,0.0,0.0,0.0,0.0,0.0,0.0,0.0,0.71,0.71,0.71,0.7154,0.7303,0.7768,0.0,0.0,0.0,0.0,0.0,0.0,0.0,0.0,0.0,0.0,0.0,0.0,0.0,0.0,0.0,0.0,0.0,0.0,0.0,0.0,0.0,0.533,0.5553,0.0,1.0546,1.3276,1.4882,1.6747,1.8091,1.7539,1.5964,1.3944,0.0,1.0294,0.9017,0.793,0.7695,0.7695,0.7695,0.7695,0.7978,0.8867,0.0,0.0,1.0214,1.1077,1.1738,0.0,0.0,1.4189,1.5958,1.7227,1.7988,1.7998,1.7129,0.0,1.6627,1.6627,1.6884,1.7393,1.7383,1.7168,1.6675,1.6178,1.6381,1.7373,1.5984,1.5251,1.5155,1.6706,1.6565,1.5129,0.0,0.0,0.0,1.5204,1.4665,1.4023,1.4874,1.5234,1.5234,1.5234,1.5234,1.5184,0.0,0.0,0.0,0.0,0.0,0.0,0.5391,0.5439,0.5575,0.6309,0.6152,0.6084,0.6377,0.6035,0.6179,0.7143,0.702,0.0,0.0,0.0,0.0,0.0,0.0,0.0,0.0,0.0,0.7501,0.7501,0.7774,0.8068,0.832,0.8332,0.8513,0.8836,0.0,0.0,0.0,0.0,0.0,0.0,0.0,0.0,0.0,0.0,0.0,0.0,0.0,0.0,0.0,0.0,0.0,0.0,0.0,0.0,0.0,0.593,0.7768,0.9852,1.1295,1.2709,1.3727,1.3557,1.2708,1.1546,1.023,0.9286,0.848,0.7842,0.7695,0.7695,0.7695,0.7695,0.7978,0.8867,0.9004,0.0,0.0,0.0,0.0,1.2595,1.3996,1.5093,0.0,0.0,1.6609,1.7023,1.5801,1.518,1.5624,1.5411,1.5746,1.6807,1.7456,1.7456,1.6612,1.6451,1.624,1.5904,1.5429,1.5104,1.4821,1.554,1.5488,0.0,0.0,0.0,0.0,1.4128,1.3909,1.3554,1.4001,1.4171,1.4171,1.4171,1.4171,1.4086,0.0,0.0,0.0,0.0,0.0,0.0,0.5107,0.4932,0.4902,0.5596,0.5459,0.54,0.5664,0.5862,0.6362,0.7287,0.7486,0.0,0.0,0.0,0.0,0.0,0.0,0.0,0.7695,0.7695,0.7695,0.7695,0.8118,0.859,0.9085,0.8962,0.9167,0.9679,0.914,0.8788,0.0,0.0,0.0,0.0,0.0,0.0,0.6925,0.0,0.0,0.0,0.0,0.0,0.0,0.0,0.0,0.0,0.0,0.0,0.0,0.0,0.595,0.7246,0.8805,1.0284,1.1302,1.1113,1.0373,0.9576,0.9112,0.0,0.7656,0.7686,0.7958,0.8085,0.7754,0.7958,0.825,0.8486,0.9199,0.9932,0.0,0.0,0.0,1.1878,0.0,0.0,0.0,1.5173,1.5698,1.6035,1.4811,1.421,1.4641,1.4457,1.4714,1.55,1.6294,1.6497,1.592,1.5651,1.5367,1.5234,1.4807,1.4409,1.403,1.487,1.4825,0.0,0.0,0.0,0.0,1.3462,1.3228,1.3136,1.3142,1.3171,1.3171,1.3171,1.3171,1.3092,0.0,0.0,0.0,0.0,0.0,0.0,0.0,0.4117,0.4009,0.4477,0.4506,0.4526,0.4649,0.5658,0.6533,0.7034,0.7856,0.0,0.0,0.0,0.0,0.0,0.0,0.0,0.7695,0.7695,0.7725,0.7754,0.8256,0.888,0.9634,0.9649,1.0032,1.0669,1.0194,0.9629,0.9,0.7407,0.7012,0.7369,0.639,0.6574,0.0,0.0,0.0,0.0,0.0,0.0,0.0,0.0,0.0,0.0,0.0,0.0,0.0,0.0,0.0,0.0,0.0,0.9056,1.0284,0.9776,0.8733,0.7933,0.8284,0.0,0.0,0.7598,0.8425,0.877,0.7978,0.8535,0.8838,0.8007,0.96,1.0508,0.0,1.04,0.0,0.0,1.1873,0.0,1.329,1.4443,1.5163,1.5092,1.4243,1.3673,1.36,1.3578,1.3563,1.3563,1.4174,1.4558,1.4651,1.4009,1.4163,1.498,1.4019,1.3338,1.2863,1.4353,1.434,0.0,0.0,0.0,0.0,1.3279,1.2788,1.2761,1.2412,1.2305,1.2305,1.2305,1.2305,1.2258,0.0,0.0,0.0,0.0,0.0,0.0,0.0,0.0,0.0,0.0,0.4487,0.4755,0.6035,0.6435,0.6968,0.0,0.0,0.0,0.0,0.0,0.0,0.0,0.0,0.0,0.7695,0.7695,0.7841,0.8148,0.8939,0.9586,1.0067,1.0791,1.0973,1.0681,1.0568,0.9993,0.905,0.8236,0.7985,0.8051,0.7821,0.7872,0.0,0.0,0.0,0.0,0.6799,0.6895,0.0,0.0,0.0,0.0,0.0,0.0,0.0,0.0,0.5108,0.5195,0.5663,0.0,0.6421,0.6295,0.629,0.6424,0.0,0.0,0.0,0.0,0.0,0.0,0.0,0.9619,0.9912,0.9717,1.0371,1.0794,1.0447,0.0,0.0,0.9959,1.1844,1.2971,1.2383,1.4085,1.4879,1.4099,1.3818,1.3382,1.2659,1.2446,1.2322,1.2322,1.2459,1.3019,1.3905,1.3772,1.3331,1.2671,1.2622,1.2349,1.1785,1.2599,1.3064,0.0,0.0,0.0,1.3822,1.2797,1.2405,1.2398,1.2325,1.2305,1.2305,1.2305,1.2305,1.2231,0.0,0.0,0.0,0.0,0.0,0.0,0.0,0.0,0.0,0.0,0.3984,0.4445,0.5603,0.6467,0.7297,0.0,0.0,0.0,0.0,0.0,0.0,0.0,0.0,0.7695,0.7695,0.787,0.8193,0.8664,0.9506,1.0263,1.0941,1.0977,1.0937,1.0824,1.0321,0.9849,0.9403,0.8637,0.8437,0.8612,0.8089,0.0,0.0,0.0,0.0,0.0,0.6887,0.7007,0.0,0.7027,0.7123,0.729,0.0,0.0,0.0,0.0,0.5108,0.5108,0.5108,0.5253,0.5527,0.5905,0.6045,0.6289,0.7119,0.0,0.0,0.0,0.0,0.0,0.0,0.0,0.9534,0.9914,0.9979,0.0,0.0,0.0,1.0577,0.9903,1.1025,1.1754,0.0,1.2981,1.3665,1.3098,1.3025,1.2806,1.2305,1.2151,1.2064,1.2064,1.2064,1.2367,1.2885,1.3027,1.2652,1.187,1.2164,1.2064,1.1643,1.2091,1.2579,0.0,0.0,0.0,1.3457,1.2791,1.2505,1.2505,1.2505,1.2425,1.2305,1.2305,1.2305,1.2258,0.0,0.0,0.0,0.0,0.0,0.0,0.0,0.0,0.0,0.0,0.0,0.0,0.0,0.0,0.0,0.0,0.0,0.0,0.0,0.0,0.0,0.0,0.8033,0.7783,0.7783,0.8267,0.8749,0.9278,1.0096,1.0981,1.1877,1.1018,1.0764,1.0922,0.9916,0.9639,0.983,0.8838,0.8725,0.9138,0.8077,0.0,0.0,0.0,0.0,0.0,0.0,0.0,0.0,0.7552,0.7586,0.7559,0.7002,0.0,0.0,0.0,0.0,0.0,0.5273,0.5596,0.6097,0.6895,0.6807,0.6846,0.8126,0.0,0.0,0.0,0.0,0.0,0.0,0.9177,0.0,0.0,0.0,0.0,1.0515,1.0867,1.0719,0.9947,1.02,0.0,1.0955,1.1784,1.2305,1.2305,1.2305,1.2305,1.2305,1.2305,1.2278,1.2238,1.2278,1.2164,1.187,1.2158,1.2158,1.187,1.2164,1.2151,1.1877,1.2171,1.2438,1.2741,0.0,0.0,1.3113,1.2806,1.2782,1.2815,1.2768,1.2525,1.2305,1.2305,1.2305,1.2291,0.0,0.0,0.0,0.0,0.0,0.0,0.0,0.0,0.0,0.0,0.0,0.0,0.0,0.0,0.0,0.0,0.0,0.0,0.0,0.0,0.0,0.9209,0.8589,0.8205,0.8205,0.8999,0.9595,1.0038,1.1054,1.1805,1.2319,1.2207,1.1682,1.0786,1.0167,0.9912,0.9855,0.9227,0.9302,0.9717,0.9089,0.0,0.0,0.0,0.0,0.0,0.0,0.0,0.0,0.6926,0.7292,0.773,0.647,0.0,0.0,0.0,0.0,0.0,0.5993,0.626,0.6436,0.6973,0.7051,0.7236,0.8205,0.0,0.0,0.0,0.0,0.0,0.0,1.1547,1.2166,0.0,0.0,1.091,0.0,0.0,1.0774,1.0146,0.0,1.171,1.1056,1.1784,1.2305,1.2305,1.2305,1.2305,1.2305,1.2305,1.2191,1.1944,1.2171,1.2164,1.187,1.2158,1.2158,1.187,1.2164,1.2151,1.1877,1.2171,1.2325,1.2365,0.0,1.2498,1.2876,1.2492,1.2518,1.2795,1.2472,1.2345,1.2305,1.2305,1.2305,1.2265,0.0,0.0,0.0,0.0,0.0,0.0,0.0,0.0,0.0,0.0,0.0,0.0,0.0,0.0,0.0,0.0,0.0,0.0,0.0,0.0,0.9116,0.9074,0.8965,0.8923,0.9018,0.962,1.0308,1.1061,1.1777,1.2357,1.2822,1.2052,1.1093,1.0013,0.9568,0.9556,0.988,0.9453,0.9515,0.988,0.0,0.0,0.0,0.0,0.0,0.0,0.0,0.0,0.0,0.0,0.7364,0.7766,0.6518,0.0,0.0,0.0,0.0,0.0,0.5898,0.623,0.668,0.7842,0.7783,0.7842,0.9395,0.0,0.0,0.0,0.0,0.0,0.0,0.0,1.051,0.9644,0.0,1.2102,1.1167,1.1265,1.127,0.0,0.0,1.1496,1.1249,1.1877,1.2305,1.2305,1.2305,1.2305,1.2305,1.2305,1.2171,1.1877,1.1997,1.1931,1.163,1.1924,1.2004,1.187,1.2164,1.2151,1.1877,1.2171,1.2305,1.2291,0.0,1.2238,1.2492,1.2358,1.2385,1.2512,1.2532,1.2445,1.2305,1.2305,1.2305,1.2258,0.0,0.0,0.0,0.0,0.0,0.0,0.0,0.0,0.0,0.0,0.0,0.0,0.0,0.0,0.0,0.0,0.0,0.0,0.0,0.9434,0.9289,0.9062,0.9343,0.9592,0.9752,1.0273,1.0979,1.1955,1.2366,1.261,1.27,1.1431,1.029,0.9274,0.904,0.9259,0.9764,0.9593,0.9672,0.9905,0.0,0.0,0.0,0.0,0.0,0.0,0.0,0.0,0.0,0.0,0.0,0.0,0.0,0.0,0.0,0.5575,0.5263,0.5273,0.6035,0.6318,0.6826,0.8574,0.8359,0.826,1.042,0.0,0.0,0.0,0.0,0.0,0.0,0.9621,0.0,0.9642,1.1569,1.2617,1.1469,1.1587,1.1832,1.1776,1.1427,1.1316,1.1603,1.2037,1.2305,1.2305,1.2305,1.2305,1.2305,1.2305,1.2138,1.1777,1.183,1.1724,1.143,1.165,1.1797,1.187,1.2164,1.2184,1.1977,1.2204,1.2305,1.2291,1.2064,1.2138,1.2405,1.2331,1.2345,1.2418,1.2579,1.2505,1.2305,1.2305,1.2305,1.2271,0.0,0.0,0.0,0.0,0.0,0.0,0.0,0.0,0.0,0.0,0.0,0.0,0.0,0.0,0.0,0.0,0.0,0.0,0.0,0.9581,0.9528,0.9816,0.9854,0.9944,1.0142,1.1043,1.1783,1.2339,1.2885,1.2499,1.124,1.064,0.9859,0.894,0.9303,0.9454,0.9461,0.975,0.988,0.9905,0.9905,0.0,0.0,0.0,0.0,0.0,0.0,0.0,0.0,0.0,0.0,0.0,0.0,0.0,0.5911,0.6221,0.573,0.5468,0.7112,0.6985,0.6826,0.8574,0.8359,0.0,1.042,0.9873,0.0,1.1728,0.0,0.0,0.0,1.1277,1.1056,1.2327,1.2158,1.1924,1.1832,0.0,1.2013,1.2217,1.2029,1.1917,1.2211,1.2278,1.2305,1.2305,1.2305,1.2305,1.2305,1.2305,1.2044,1.1476,1.1724,1.1724,1.143,1.145,1.1597,1.187,1.2164,1.2291,1.2271,1.2291,1.2305,1.2305,1.2278,1.2438,1.2768,1.2418,1.2465,1.2768,1.2438,1.2318,1.2305,1.2305,1.2305,1.2298,0.0,0.0,0.0,0.0,0.0,0.0,0.0,0.0,0.0,0.0,0.0,0.8926,0.8801,0.0,0.0,0.0,0.0,0.0,0.0,0.979,0.9776,0.9893,0.9905,1.0077,1.0513,1.0849,1.1324,1.1902,1.2148,1.1548,1.0168,1.0481,1.0103,0.921,0.9361,0.9548,0.9698,0.9607,0.9712,0.9905,0.9905,0.9764,0.0,0.0,0.0,0.0,0.0,0.0,0.0,0.0,0.638,0.6704,0.5969,0.5936,0.6094,0.5701,0.5361,0.537,0.6557,0.666,0.6885,0.8863,0.876,0.0,0.0,1.0732,1.0732,1.2637,1.2686,0.0,0.0,0.0,0.9918,1.1752,1.1636,1.139,1.1585,1.175,1.1844,1.1764,1.1663,1.171,1.2004,1.2031,1.2104,1.2285,1.2138,1.2031,1.2031,1.1857,1.157,1.1169,1.1263,1.1182,1.0895,1.1062,1.1216,1.1329,1.1804,1.2131,1.2305,1.2305,1.2305,1.2305,1.2305,1.2365,1.2458,1.2351,1.2365,1.2458,1.2345,1.2305,1.2305,1.2305,1.2305,1.2305,0.0,0.0,0.0,0.0,0.0,0.0,0.0,0.0,0.8139,0.0,0.0,0.0,0.0,0.9679,0.0,0.0,0.0,0.0,0.9905,0.9905,0.9905,0.9905,0.9905,1.0069,1.0431,1.0458,1.0766,1.1424,1.1295,1.0839,1.0064,1.0279,0.9909,0.9046,0.9155,0.9331,0.9542,0.9449,0.9528,0.975,0.975,0.9528,0.0,0.0,0.0,0.0,0.0,0.0,0.0,0.0,0.6086,0.6434,0.591,0.5847,0.5944,0.5779,0.5438,0.5292,0.6172,0.6406,0.6865,0.0,0.0,0.0,1.1498,1.1543,1.1572,1.3157,1.3361,0.0,0.0,0.0,0.0,0.0,1.1094,1.0955,1.1249,1.1543,1.1657,1.145,1.1349,1.1403,1.1697,1.173,1.181,1.2011,1.1844,1.173,0.0,1.1536,1.1289,1.1002,1.0995,1.0902,1.0759,1.0802,1.0995,1.1276,1.1583,1.1884,1.2164,1.2164,1.2218,1.2305,1.2305,1.2305,1.2305,1.2305,1.2305,1.2305,1.2305,1.2305,1.2305,1.2305,1.2305,1.2305,0.0,0.0,0.0,0.0,0.0,0.0,0.0,0.0,0.7814,0.8949,0.8625,0.0,0.0,0.0,0.0,0.0,0.0,0.0,0.9905,0.9905,0.9905,0.9905,0.9905,0.9905,0.9905,0.9905,1.0242,1.0977,1.0507,1.0539,1.0934,0.9973,0.9076,0.8319,0.8662,0.8828,0.8844,0.9235,0.9408,0.9396,0.9396,0.9143,0.876,0.0,0.0,0.0,0.0,0.0,0.0,0.0,0.5704,0.5341,0.667,0.0,0.538,0.6709,0.6149,0.5312,0.6182,0.6416,0.0,0.0,0.0,0.0,1.2285,1.2217,1.1985,1.3184,0.0,1.3604,1.238,0.0,0.0,1.1174,1.0849,1.0661,1.0955,1.1243,1.1423,1.1416,1.1162,1.1102,1.1396,1.1423,1.1423,1.1423,1.1423,1.1423,0.0,1.1416,1.1283,1.0995,1.0989,1.0989,1.0989,1.0701,1.1061,1.1857,1.1563,1.1583,1.187,1.187,1.2031,1.2305,1.2305,1.2305,1.2305,1.2305,1.2305,1.2305,1.2305,1.2305,1.2305,1.2305,1.2305,1.2305,0.0,0.0,0.0,0.0,0.0,0.0,0.0,0.0,0.7688,0.8437,0.8713,0.0,0.0,0.0,0.0,0.0,0.0,0.0,0.9905,0.9905,0.9905,0.9905,0.9905,0.9905,0.9905,0.9659,0.9659,0.9861,1.0015,0.9738,0.9102,0.966,0.9473,0.8684,0.974,0.9846,0.9259,0.9734,0.9591,0.8981,0.8981,0.8773,0.8381,0.0,0.0,0.0,0.0,0.0,0.0,0.0,0.0,0.0,0.5736,0.0,0.6104,0.6494,0.6338,0.6197,0.7073,0.7119,0.0,0.8867,0.0,0.0,0.0,1.2461,0.0,0.0,1.3553,1.2468,1.4105,0.0,0.0,1.2109,1.1356,1.0661,1.0955,1.1069,1.1049,1.0842,1.0742,1.0802,1.1096,1.1122,1.1209,1.141,1.1236,1.1122,0.0,1.0929,1.0775,1.0688,1.0688,1.0688,1.0688,1.0665,1.0752,1.1014,1.1069,1.149,1.2171,1.2171,1.2218,1.2305,1.2305,1.2305,1.2305,1.2305,1.2305,1.2305,1.2305,1.2305,1.2305,1.2305,1.2305,1.2305,0.0,0.0,0.0,0.0,0.0,0.0,0.7889,0.7631,0.7531,0.7889,0.8437,0.8874,0.0,0.0,0.0,0.9905,0.9905,0.0,0.9905,0.9905,0.9905,0.9905,0.9905,0.9905,0.9905,0.9686,0.9607,0.9607,0.9569,0.9311,0.8825,0.9551,0.9431,0.8639,0.9604,0.9645,0.8987,0.9323,0.9125,0.8606,0.8606,0.8393,0.8009,0.0,0.0,0.0,0.0,0.0,0.0,0.0,0.0,0.0,0.0,0.0,0.0,0.6211,0.6406,0.6797,0.7306,0.7539,0.0,0.968,1.0342,1.0869,1.2187,0.0,0.0,0.0,0.0,1.2395,1.3831,1.2242,0.0,1.1819,1.1277,1.0755,1.0815,1.0922,1.0882,1.0658,1.0454,1.0448,1.0628,1.0648,1.0715,1.0889,1.0855,0.0,0.0,1.0719,1.0624,1.0624,1.0624,1.0624,1.0624,1.0624,1.0678,1.0735,1.0909,1.1329,1.1957,1.2078,1.2191,1.2305,1.2305,1.2305,1.2305,1.2305,1.2305,1.2305,1.2305,1.2305,1.2305,1.2305,1.2305,1.2305,0.0,0.0,0.6837,0.7319,0.0,0.0,0.7406,0.7406,0.7406,0.7406,0.7964,0.855,0.0,0.0,0.0,0.9905,0.9905,0.9905,0.9905,0.9905,0.9905,0.9905,0.9905,0.9905,0.9905,0.9905,0.9867,0.979,0.9265,0.9212,0.9586,0.9627,0.9193,0.8374,0.8837,0.8753,0.8319,0.8361,0.8322,0.8233,0.8233,0.8033,0.7647,0.7217,0.0,0.0,0.0,0.0,0.0,0.0,0.0,0.0,0.5596,0.6016,0.6279,0.596,0.6465,0.7178,0.7256,0.0,0.0,1.0439,1.0947,0.0,1.2696,1.3192,1.3669,1.4478,0.0,1.2964,1.2444,1.1892,1.1387,1.0841,1.086,1.0868,1.0698,1.0808,1.0842,1.0618,1.0281,1.0107,1.008,1.01,1.0114,1.0114,1.0394,0.0,1.0624,1.0624,1.0624,1.0624,1.0624,1.0624,1.0624,1.0624,1.0695,1.0955,1.0982,1.1129,1.1396,1.1724,1.2031,1.2305,1.2271,1.2278,1.2305,1.2305,1.2305,1.2305,1.2305,1.2305,1.2305,1.2305,1.2305,1.2305,0.0,0.0,0.7256,0.7381,0.0,0.0,0.7406,0.7406,0.7406,0.7406,0.8298,0.8975,0.9088,0.9566,0.0,0.9905,0.9905,0.9905,0.9905,0.9905,0.9905,0.9905,0.9905,0.9905,0.9905,0.9905,0.9607,0.9035,0.9464,0.9627,0.9537,0.9839,0.9563,0.8816,0.9676,0.9424,0.834,0.8757,0.8497,0.7841,0.7841,0.7783,0.7608,0.6855,0.6494,0.0,0.0,0.0,0.0,0.0,0.0,0.0,0.5224,0.5566,0.5989,0.6201,0.6904,0.7715,0.8418,0.8486,0.0,0.0,1.1191,1.2176,1.3238,1.3512,1.3705,1.4181,1.3331,1.258,1.3219,1.2084,1.1272,1.1775,1.1191,1.0715,1.0875,1.0755,1.0541,1.0247,1.0154,1.0027,0.98,0.998,1.0114,1.0114,0.0,0.0,1.0624,1.0624,1.0624,1.0624,1.0624,1.0624,1.0624,1.0624,1.0658,0.0,1.0882,1.1022,1.1102,1.163,1.2031,1.2285,1.2058,1.2091,1.2305,1.2305,1.2305,1.2305,1.2305,1.2305,1.2305,1.2305,1.2305,1.2305,0.0,0.0,0.0,0.0,0.0,0.0,0.0,0.0,0.8114,0.7864,0.8801,0.9566,0.983,1.037,0.0,0.0,1.0709,1.0583,1.0307,1.0268,1.0182,0.9905,0.9905,0.9905,0.9905,1.0157,1.0094,0.971,1.0129,0.9857,0.8983,0.9369,0.9355,0.8965,0.9508,0.9213,0.8359,0.8399,0.8158,0.7695,0.7695,0.7579,0.7355,0.6914,0.6475,0.6045,0.5605,0.0,0.0,0.0,0.0,0.0,0.0,0.0,0.6045,0.5827,0.6547,0.754,0.8213,0.0,0.0,1.1103,0.0,1.2916,1.3223,1.3291,1.3277,1.289,1.2469,1.2334,1.268,1.1783,1.1073,1.1368,1.0967,1.0678,1.0768,1.0534,1.0294,1.0134,0.9866,0.9693,0.9686,0.982,0.9967,1.0107,0.0,1.0624,1.0624,1.0624,1.0624,1.0624,1.0624,1.0624,1.0624,1.0624,1.0624,1.0624,1.0715,1.0862,1.1009,1.1603,1.1951,1.2091,1.2084,1.2164,1.2305,1.2305,1.2305,1.2305,1.2305,1.2305,1.2305,1.2305,1.2305,1.2305,0.0,0.0,0.0,0.0,0.0,0.0,0.0,0.0,0.0,0.8763,0.9579,1.037,1.0822,1.1211,1.1437,0.0,0.0,0.0,1.0581,1.0643,1.0493,1.0069,1.0044,1.0094,1.0194,1.0518,1.0687,1.0632,1.0701,1.0034,0.8744,0.9131,0.9288,0.9219,0.915,0.8838,0.8371,0.7832,0.7627,0.7686,0.753,0.7316,0.708,0.6934,0.6416,0.5793,0.5715,0.5439,0.5108,0.5108,0.0,0.0,0.0,0.0,0.6022,0.5312,0.5983,0.708,0.7472,0.0,1.0215,1.2168,1.2978,0.0,1.2717,1.2815,1.2648,1.1414,1.1667,1.194,1.1556,1.1213,1.0835,1.0665,1.0577,1.0481,1.0481,1.0227,1.002,0.9973,0.9475,0.9339,0.9586,0.9653,0.98,1.0094,0.0,1.0624,1.0624,1.0624,1.0624,1.0624,1.0624,1.0624,1.0624,1.0624,1.0624,1.0624,1.0624,1.0752,1.0935,1.1476,1.1744,1.1804,1.1991,1.2131,1.2225,1.2171,1.2211,1.2298,1.2245,1.2258,1.2305,1.2305,1.2305,1.2305,0.0,0.0,0.0,0.0,0.0,0.0,0.0,0.0,0.0,0.0,1.096,1.1387,1.1462,1.1098,1.0806,1.0806,1.0408,1.0094,1.0018,0.0,0.0,1.0593,1.0581,1.0847,1.1349,1.0947,1.0602,1.0353,1.0357,1.0261,1.0067,1.0399,1.0391,1.0098,0.9717,0.9111,0.8362,0.752,0.7365,0.7627,0.6868,0.6797,0.7012,0.625,0.5901,0.5754,0.5331,0.5156,0.5108,0.5108,0.5108,0.0,0.0,0.0,0.5253,0.5146,0.5759,0.6602,0.0,0.0,1.0439,0.0,1.207,1.2205,0.0,0.0,1.2102,0.0,1.1093,1.1218,1.0478,1.0539,1.0672,1.0631,1.0347,1.0174,1.0174,0.9927,0.9646,0.9329,0.923,0.9196,0.9236,0.9532,0.98,0.0,1.0394,1.0624,1.0624,1.0624,1.0624,1.0624,1.0624,1.0624,1.0624,1.0624,1.0624,1.0624,1.0624,1.0645,1.0628,1.0955,1.1249,1.1476,1.1263,1.1456,1.1911,1.165,1.1844,1.2278,1.2024,1.2084,1.2305,1.2305,1.2305,1.2305,0.0,0.0,0.0,0.0,0.0,0.0,0.0,0.0,0.0,0.0,0.0,1.2165,1.2479,1.2002,1.1633,1.1633,1.1161,1.0709,1.0383,1.0295,1.0381,1.0681,1.0406,1.0521,1.1098,1.0831,1.0825,1.1044,1.0739,1.0999,0.0,1.1404,1.0974,1.0625,1.043,0.9746,0.8701,0.833,0.7861,0.7344,0.6953,0.6621,0.6318,0.595,0.5625,0.5391,0.5176,0.5108,0.5108,0.5108,0.5108,0.5108,0.5108,0.0,0.0,0.0,0.537,0.0,0.7715,0.8682,0.9753,0.0,1.1895,1.1521,1.179,0.0,1.1538,1.1112,1.1178,1.1118,1.0523,1.0342,1.0314,1.0314,1.0067,0.9933,1.0094,0.9726,0.9385,0.9196,0.9044,0.9125,0.9452,0.9606,0.9873,0.0,1.0551,1.0551,1.0321,1.0474,1.0481,1.0314,1.0474,1.0481,1.0314,1.0314,1.0314,1.0314,1.0481,1.0624,1.0624,1.0695,1.0909,1.1182,1.1223,1.1383,1.1623,1.1657,1.183,1.2064,1.2098,1.2191,1.2305,1.2305,1.2305,1.2278,0.0,0.0,0.0,0.0,0.0,0.0,0.0,0.0,0.0,0.0,0.0,1.278,1.316,0.0,0.0,0.0,1.1688,1.1123,1.0531,1.0257,1.0268,1.0681,1.0332,1.037,1.0935,1.0769,1.094,1.1394,1.1014,0.0,1.2424,1.1799,1.1356,0.0,1.0957,1.0381,0.9463,0.9141,0.8398,0.7412,0.7305,0.6729,0.0,0.0,0.5645,0.5419,0.5312,0.5341,0.5419,0.5312,0.5273,0.5253,0.5146,0.5108,0.0,0.0,0.0,0.0,0.0,0.0,0.9028,1.1626,1.1484,1.0874,0.0,0.0,1.1129,0.0,1.1333,1.1424,1.1052,1.071,1.0523,1.0523,1.0154,0.9928,1.0089,0.9566,0.9077,0.9077,0.8938,0.9005,0.9519,0.9573,0.0,0.0,1.0403,1.0241,1.002,1.0214,1.0241,1.0013,1.0221,1.0227,1.0007,1.0007,1.0007,1.0007,1.0227,1.0436,1.0448,1.0448,1.0608,1.0895,1.1109,1.1249,1.1329,1.1476,1.167,1.1884,1.2024,1.2171,1.2305,1.2305,1.2305,1.2271,0.0,0.0,0.0,0.0,0.0,0.0,0.0,0.0,0.0,0.0,0.0,1.3173,1.3198,1.271,1.2203,1.1676,1.1098,1.0506,0.9981,1.0381,1.0669,1.0694,1.0669,0.0,1.1525,1.0982,1.0755,1.0853,0.0,0.0,1.0902,1.1394,1.1567,1.1547,1.1094,1.0869,1.0732,0.0,0.0,0.0,0.0,0.0,0.0,0.0,0.0,0.0,0.0,0.6006,0.6279,0.5879,0.5764,0.5695,0.5244,0.5108,0.0,0.0,0.0,0.0,0.0,0.8086,0.0,1.0078,0.0,0.0,0.0,0.0,0.0,1.066,1.1505,1.2121,1.1799,1.1654,1.1648,1.1648,1.0871,1.029,1.0305,0.9442,0.8831,0.8831,0.8818,0.8925,0.9176,0.921,0.0,0.0,0.9726,0.9726,0.9706,0.9719,0.9726,0.9706,0.9719,0.9719,0.9706,0.9706,0.9706,0.9706,0.9719,0.9873,1.014,1.014,1.0301,1.0645,1.0665,1.0762,1.0995,1.0799,1.1122,1.1844,1.1577,1.181,1.2305,1.2305,1.2305,1.2298,0.0,0.0,0.0,0.0,0.0,0.0,0.0,0.0,0.0,0.0,0.0,0.0,0.0,1.271,1.219,1.1638,1.0734,1.0257,1.0393,1.0581,1.0694,1.0694,1.0694,1.0794,1.1023,1.0483,1.0388,0.0,0.0,1.0404,1.1308,1.0899,1.1035,1.1626,1.1992,1.1553,1.0508,1.0605,0.0,0.0,0.0,0.0,0.0,0.0,0.0,0.0,0.0,0.0,0.0,0.6136,0.5803,0.0,0.0,0.0,0.0,0.0,0.0,0.0,0.0,0.0,0.0,1.0234,1.0264,1.0002,1.0609,1.1084,1.1324,1.1261,1.1997,1.2565,1.213,1.1738,1.1448,1.1448,1.0987,1.0527,1.0339,0.9819,0.9263,0.8857,0.8804,0.8925,0.9157,0.9183,0.0,0.0,0.0,0.9399,0.9399,0.9399,0.9399,0.9399,0.9586,0.9593,0.9399,0.9399,0.9399,0.9406,0.978,1.0013,1.0127,1.0314,1.0461,1.0624,1.0624,1.0678,1.0722,1.0808,1.1129,1.159,1.1677,1.1951,1.2305,1.2305,1.2305,1.2278,0.0,0.0,0.0,0.0,0.0,1.037,1.0922,1.15,1.2065,1.2584,0.0,0.0,0.0,0.0,1.2467,1.1914,1.0834,1.0332,1.0669,1.0694,1.0618,1.0431,1.0781,1.0834,1.0431,1.0281,1.0226,0.0,0.0,0.0,0.0,1.0386,1.0574,1.1204,1.1895,1.1738,0.0,0.0,0.0,0.8824,0.0,0.0,0.7491,0.0,0.0,0.0,0.0,0.0,0.0,0.0,0.0,0.0,0.0,0.0,0.0,0.0,0.0,0.0,0.7384,0.0,0.0,0.0,0.0,0.9787,1.0537,0.0,1.1381,1.1381,1.2158,1.2793,1.25,1.2094,1.1817,1.1817,1.1438,1.1057,1.0837,1.021,0.9614,0.9211,0.8956,0.8884,0.9024,0.0,0.0,0.0,0.0,0.0,0.9044,0.9044,0.9044,0.9044,0.9285,0.9292,0.9044,0.9044,0.9044,0.9044,0.9492,0.978,0.998,1.0174,1.0436,1.0624,1.0624,1.0624,1.0638,1.0768,1.1076,1.1443,1.1643,1.1957,1.2305,1.2305,1.2305,1.2198,0.0,0.0,0.9138,0.9163,1.0031,1.0919,1.1525,1.2065,1.2572,1.3123,0.0,0.0,0.0,0.0,0.0,1.2479,1.137,1.0731,1.0744,1.0744,1.0506,0.9981,1.101,1.1073,0.9981,1.0485,1.0321,0.0,0.0,0.0,0.0,0.0,1.0244,1.0264,1.0703,1.1357,1.2112,0.0,1.1689,1.084,0.0,1.0049,0.9476,0.0,0.0,0.0,0.9456,0.9385,0.0,0.9466,0.0,0.0,0.0,0.0,0.0,0.0,0.0,0.0,0.0,0.0,0.0,0.0,0.0,0.0,0.9141,0.0,1.0889,1.0908,1.1943,1.2852,1.2861,1.2871,1.2881,1.2881,1.2295,1.1814,1.1814,1.0661,0.9865,0.9814,0.9211,0.8804,0.8804,0.0,0.0,0.0,0.8798,0.8798,0.8804,0.8804,0.8804,0.8804,0.8804,0.8804,0.8804,0.8804,0.8804,0.8804,0.8818,0.9125,0.9686,0.9693,1.0013,1.0624,1.0624,1.0624,1.0624,1.0624,1.0895,1.1416,1.1423,1.1777,1.2291,1.2298,1.2305,1.215,0.0,0.919,0.9931,1.0747,1.1148,1.1538,1.209,1.2316,1.2572,0.0,0.0,0.0,0.0,1.2847,1.271,1.2947,1.1989,1.1525,1.1914,1.1921,1.1701,1.1148,1.1425,1.1437,1.1123,1.0498,1.0205,0.0,0.0,0.0,0.0,0.0,0.9355,0.9385,1.0127,1.041,1.0371,1.1348,0.0,1.0079,1.1572,1.0781,0.0,0.0,0.0,0.0,0.0,1.0029,0.9902,0.0,0.9164,0.8545,0.0,0.0,0.0,0.0,0.0,0.0,0.8135,0.0,0.0,0.0,0.0,0.0,0.9961,1.0195,1.0547,1.085,1.1455,1.2067,1.2353,1.2666,1.2881,1.2881,1.2715,1.2403,1.1864,1.1466,1.0864,0.9917,0.9614,0.9309,0.0,0.0,0.0,0.0,0.8611,0.8584,0.8798,0.8804,0.8804,0.8804,0.8804,0.8804,0.8804,0.8804,0.8804,0.8811,0.9018,0.9319,0.9693,0.99,1.02,1.0624,1.0624,1.0624,1.0624,1.0624,1.0782,1.1136,1.1343,1.1657,1.2011,1.2225,1.1842,1.1162,0.9554,1.0219,1.0809,1.1475,1.1776,1.204,1.2366,1.2572,1.2835,0.0,0.0,0.0,0.0,0.0,1.2847,1.3173,1.2429,1.2065,1.2391,1.2416,1.2165,1.1613,1.2027,1.2065,1.16,1.1208,1.0824,0.0,0.0,0.0,0.0,0.0,0.0,0.898,0.9515,0.9708,0.9627,0.0,0.0,0.0,1.1621,0.0,0.0,1.1273,1.0979,0.0,0.0,0.0,1.0871,1.0947,1.0459,0.0,0.0,0.0,0.0,0.0,0.0,0.0,0.0,0.0,0.0,0.0,0.0,0.0,1.0049,1.043,1.083,0.0,1.1553,1.2139,1.2171,1.2432,1.2607,1.2607,1.2607,1.2512,1.2267,1.1972,1.1516,1.072,1.0364,0.9961,0.0,0.9211,0.9113,0.8804,0.8651,0.8631,0.8798,0.8804,0.8804,0.8804,0.8804,0.8804,0.8804,0.8804,0.8804,0.8811,0.8978,0.9212,0.9512,0.98,1.0094,1.0381,1.0571,1.0624,1.0624,1.0624,1.0728,1.1022,1.1316,1.1603,1.1904,1.2191,1.1922,1.1372,0.0,1.1286,1.1701,1.1763,1.2178,1.2504,1.2504,1.2885,1.3198,0.0,1.3198,0.0,0.0,0.0,0.0,0.0,1.2747,1.2504,1.2504,1.2504,1.2291,1.1789,1.2622,1.2685,1.1789,1.2195,1.1718,0.0,0.0,0.0,0.0,0.0,0.0,0.8921,0.898,0.9131,0.9387,0.0,0.0,1.1302,1.1064,1.166,0.0,0.0,1.1636,1.1587,1.2529,1.2361,1.1734,1.2529,1.2031,0.0,0.0,0.0,0.0,0.0,0.9746,0.0,0.0,0.0,0.0,0.0,1.0,0.0,0.9795,1.0557,1.1302,1.0967,1.1807,1.25,1.2207,1.2112,1.2112,1.2112,1.2112,1.2295,1.2676,1.2288,1.1837,1.1697,1.1215,0.0,0.9961,0.9909,0.9614,0.8956,0.8857,0.8804,0.8804,0.8804,0.8804,0.8804,0.8804,0.8804,0.8804,0.8804,0.8804,0.8804,0.8804,0.8978,0.9243,0.9559,0.986,1.018,1.0448,1.0624,1.0624,1.0624,1.0715,1.0982,1.1296,1.159,1.1857,1.2144,1.2198,1.1951,1.1286,1.1864,1.2391,1.2797,1.2973,1.3035,1.3035,1.3135,1.3198,1.3198,1.3198,0.0,0.0,0.0,0.0,0.0,1.3098,1.3035,1.3035,1.3035,1.2998,1.2885,1.2659,1.2647,1.2872,1.2157,1.1616,1.1323,0.0,0.0,0.0,0.0,0.0,0.0,0.8963,0.8592,0.8108,0.0,0.0,0.9619,1.0959,0.0,1.1387,1.2285,1.1792,1.0783,1.2314,1.2361,1.1685,1.2178,1.2141,1.1772,0.0,0.0,0.0,1.0332,0.0,0.0,0.0,0.0,0.0,0.0,0.0,0.0,1.0176,1.0078,1.0176,0.0,1.084,1.0977,1.1626,1.1734,1.1734,1.1734,1.1734,1.1763,1.1851,1.2328,1.2205,1.0957,1.1283,0.0,1.0669,1.0618,1.032,0.9666,0.9113,0.8804,0.8804,0.8804,0.8804,0.8804,0.8804,0.8804,0.8804,0.8804,0.8804,0.8804,0.8804,0.9085,0.9599,0.9659,0.9973,1.0537,1.0598,1.0624,1.0624,1.0624,1.0658,1.0759,1.1223,1.1463,1.155,1.1844,1.1576,1.1021,1.2241,1.2597,1.2872,1.3148,1.3198,1.3198,1.3198,1.3198,1.3198,1.3198,1.3471,0.0,0.0,0.0,0.0,0.0,0.0,0.0,0.0,1.3198,1.3198,1.3198,1.2935,1.2922,1.3185,1.2659,1.2278,1.2002,0.0,0.0,0.0,0.0,0.0,0.0,0.0,0.8856,0.8329,0.0,0.9349,1.0102,1.116,0.0,1.1357,1.2461,1.2344,1.1689,1.2568,1.2645,1.2217,1.2227,1.218,0.0,0.0,1.127,1.0869,0.0,1.0449,1.0283,0.0,0.0,0.0,1.0283,0.0,0.0,0.0,1.0117,1.0332,1.0547,1.0812,1.1028,1.1191,1.123,1.123,1.123,1.1096,1.0891,1.0635,1.1728,1.2376,1.1818,1.21,0.0,1.1366,1.1316,1.0864,0.9865,0.9159,0.8804,0.8804,0.8804,0.8804,0.8804,0.8804,0.8804,0.8804,0.8804,0.8804,0.8804,0.8804,0.9038,0.9466,0.9619,0.9927,1.0347,1.0557,1.0624,1.0624,1.0624,1.0624,1.0665,1.1042,1.1209,1.1243,1.1536,1.1449,1.1093,1.3023,1.3198,1.3198,1.3198,1.3198,1.3198,1.3198,1.3286,1.3398,1.3498,1.3935,0.0,0.0,0.0,0.0,0.0,0.0,0.0,0.0,1.3448,1.3423,1.321,1.3198,1.3198,1.3198,1.3198,1.2935,1.2416,0.0,0.0,0.0,0.0,0.0,0.0,0.0,0.0,0.0,0.0,0.0,1.0912,0.0,1.1762,1.1947,1.2634,1.2919,1.2898,1.289,1.2881,1.2861,1.2466,1.2355,1.2345,1.2256,1.1674,0.0,0.0,0.0,0.0,0.0,0.0,0.0,0.0,0.0,1.0293,0.0,0.0,0.0,0.0,0.0,0.0,0.0,0.0,0.0,0.0,0.0,0.0,0.0,1.0945,0.0,1.2227,1.2256,0.0,1.1654,1.1447,1.0963,1.0056,0.9263,0.8804,0.8804,0.8804,0.8804,0.8804,0.8804,0.8804,0.8804,0.8804,0.8804,0.8804,0.8804,0.8958,0.9196,0.9546,0.984,1.0134,1.0428,1.0624,1.0624,1.0624,1.0624,1.0651,1.0882,1.0995,1.1022,1.1256,1.1376,1.1416,1.3173,1.3198,1.3198,1.3198,1.3198,1.3198,1.3198,1.3647,1.4173,0.0,0.0,0.0,0.0,0.0,0.0,0.0,0.0,0.0,1.406,0.0,1.4249,1.3235,1.3198,1.3198,1.3198,1.3198,1.2935,1.2416,1.2416,0.0,0.0,0.0,0.0,0.0,0.9763,0.0,0.0,0.0,0.9859,0.0,1.165,1.243,0.0,1.2859,1.2949,1.296,1.2926,1.2881,1.2909,0.0,1.2917,1.2844,0.0,1.1996,1.1521,1.1032,0.0,0.0,0.0,0.0,0.0,0.0,1.084,0.0,0.0,0.0,1.0342,1.0293,0.0,0.0,0.0,0.0,0.0,0.0,0.0,0.0,0.9651,1.0459,1.0801,1.005,0.9962,1.0254,0.0,1.0258,1.0033,1.0612,0.951,0.8804,0.8804,0.8804,0.8804,0.8804,0.8804,0.8804,0.8804,0.8804,0.8804,0.8804,0.8804,0.8958,0.9196,0.9546,0.984,1.0134,1.0428,1.0624,1.0624,1.0624,1.0624,1.0651,1.0882,1.0995,1.0995,1.1029,1.1209,1.139,1.3198,1.3198,1.3198,1.3198,1.3198,1.3311,1.3659,1.4211,1.4651,0.0,0.0,0.0,0.0,0.0,0.0,0.0,0.0,1.6333,0.0,0.0,0.0,1.4689,1.4048,1.3709,1.3709,1.3396,1.3085,1.2847,1.2847,0.0,0.0,0.0,0.0,0.0,1.0504,0.0,1.0406,0.0,1.0893,0.0,0.0,0.0,0.0,1.3093,1.2898,1.2909,1.2614,1.2666,1.2822,0.0,1.2785,0.0,0.0,0.0,0.0,0.0,0.0,0.0,0.0,0.0,0.0,0.0,0.0,0.0,1.0684,0.0,1.0283,0.0,0.0,0.0,0.0,0.0,0.0,0.0,0.9463,0.0,0.0,0.0,0.9482,0.0,0.0,0.0,0.0,0.0,0.0,0.0,0.9392,0.863,0.863,0.8721,0.8804,0.8804,0.8804,0.8804,0.8804,0.8804,0.8804,0.8804,0.8804,0.8958,0.919,0.9372,0.9679,1.0127,1.0247,1.0401,1.0624,1.0624,1.0624,1.0631,1.0695,1.0742,1.0742,1.0742,1.0822,1.0955,1.3458,0.0,1.3198,1.3198,1.3323,1.3697,1.4437,1.5004,1.5419,0.0,0.0,0.0,1.6923,1.7074,0.0,0.0,1.7601,1.7363,0.0,0.0,1.6082,0.0,0.0,0.0,1.4311,1.3735,1.3348,1.3198,1.3198,0.0,0.0,0.0,0.0,0.0,0.0,1.0997,1.0967,0.0,1.1653,1.2678,1.181,1.2435,1.3882,1.3181,1.3004,1.3064,1.2567,1.2703,1.3032,1.2253,1.2685,0.0,1.2327,0.0,0.0,0.0,0.0,0.0,1.1901,0.0,0.0,0.0,0.0,0.0,0.0,0.0,0.0,0.0,0.0,0.0,0.0,0.0,0.0,0.0,0.0,0.8984,0.0,0.0,0.0,0.0,0.0,0.0,0.0,0.0,0.0,0.0,0.0,0.844,0.8354,0.8639,0.8804,0.8804,0.8804,0.8804,0.8804,0.8804,0.8804,0.8804,0.8804,0.8918,0.907,0.915,0.9462,1.0,1.008,1.0287,1.0624,1.0624,1.0577,1.0448,1.0591,1.0514,1.0454,1.0621,1.0628,1.0719,1.406,1.3596,0.0,1.3198,1.3672,1.4425,1.548,1.6107,1.6672,0.0,0.0,0.0,0.0,0.0,0.0,0.0,0.0,1.794,1.7388,0.0,1.7074,0.0,0.0,1.4878,0.0,1.4337,1.3808,1.3198,1.3198,0.0,0.0,0.0,0.0,0.0,1.1721,1.1442,1.0928,1.1446,1.1675,1.1719,1.2528,1.3226,1.3731,0.0,1.3299,1.3684,1.3094,0.0,0.0,1.3142,1.2996,0.0,0.0,0.0,0.0,0.0,0.0,0.0,0.0,0.0,0.0,1.2305,0.0,0.0,0.0,0.0,1.0771,0.0,0.0,0.0,0.0,0.0,0.0,0.0,0.0,0.0,0.0,0.0,0.0,0.0,0.0,0.0,0.0,0.0,0.0,0.0,0.0,0.0,0.7957,0.848,0.8804,0.8804,0.8804,0.8804,0.8804,0.8804,0.8804,0.8804,0.8804,0.8811,0.8831,0.9057,0.9406,0.9713,0.9993,1.0287,1.0624,1.0624,1.0388,1.016,1.0448,1.0381,1.02,1.0768,1.0802,1.0745,1.4626,0.0,0.0,0.0,0.0,1.4878,1.558,1.6484,0.0,0.0,1.8242,0.0,0.0,1.9484,1.9258,0.0,0.0,1.9447,1.853,1.8468,0.0,0.0,0.0,1.6358,0.0,0.0,0.0,0.0,0.0,0.0,0.0,0.0,0.0,0.0,0.0,1.2049,0.0,0.0,0.0,0.0,0.0,1.3905,1.3575,0.0,1.4244,1.4376,1.4154,1.4201,0.0,1.3872,1.4171,1.4507,1.344,1.3696,1.426,1.3014,1.2649,0.0,0.0,0.0,1.2549,1.2969,0.0,0.0,0.0,0.0,0.0,0.0,0.0,0.0,0.0,0.0,0.0,0.0,0.0,0.0,0.0,0.0,0.0,0.0,0.0,0.0,0.0,0.0,0.0,0.0,0.0,0.0,0.0,0.8187,0.8602,0.8602,0.8752,0.8804,0.8804,0.8804,0.8804,0.8804,0.8804,0.8804,0.8811,0.8911,0.9225,0.9693,0.9786,1.0107,1.0611,1.0347,1.0207,1.0127,1.0227,1.0207,1.0167,1.0561,1.0705,1.0692,1.5203,1.5329,0.0,0.0,0.0,0.0,0.0,0.0,0.0,0.0,1.951,0.0,2.0853,0.0,2.0514,0.0,2.0263,2.015,1.9648,1.9246,0.0,1.9296,1.8254,0.0,0.0,0.0,0.0,0.0,0.0,1.4374,0.0,0.0,0.0,0.0,0.0,1.2369,1.186,1.2541,1.2974,0.0,0.0,1.4533,0.0,0.0,1.5035,1.5005,0.0,1.4835,1.4959,1.4484,1.4753,1.5118,1.4246,1.4687,1.5303,1.4084,1.3851,1.385,1.3442,1.3145,0.0,1.3233,1.2646,0.0,1.2412,0.0,0.0,0.0,0.0,0.0,0.0,0.0,0.0,0.0,0.0,0.0,0.0,0.8955,0.0,0.0,0.0,0.0,0.0,0.0,0.0,0.0,0.0,0.0,0.0,0.0,0.8522,0.8522,0.8694,0.8804,0.8804,0.8804,0.8804,0.8804,0.8804,0.8804,0.8811,0.8918,0.9165,0.9539,0.9746,0.9993,1.0241,1.0154,1.0053,0.9973,1.0074,1.0114,1.0167,1.0561,1.0782,1.0895,1.5831,1.6183,1.6233,0.0,1.5906,0.0,0.0,0.0,1.971,0.0,2.1104,2.1071,2.1518,2.1129,2.0844,2.0731,2.0188,2.0087,2.0643,1.9673,0.0,0.0,1.8894,1.8329,1.8242,0.0,0.0,0.0,0.0,0.0,0.0,0.0,0.0,0.0,1.321,0.0,1.1176,1.3172,1.3232,1.2144,1.4017,1.5112,1.5624,1.5674,1.5672,1.5588,1.4971,1.5152,1.5543,1.4971,1.4801,1.4879,1.5375,1.5533,1.5527,1.5303,1.5382,1.5328,1.4395,1.4286,1.4198,1.3243,0.0,0.0,0.0,0.0,1.2145,0.0,0.0,0.0,0.0,0.0,0.0,0.0,0.0,0.0,0.0,0.0,0.0,0.0,0.0,0.0,0.0,0.0,0.0,0.0,0.0,0.0,0.0,0.0,0.8518,0.8562,0.8717,0.8778,0.8804,0.8791,0.8798,0.8831,0.8831,0.8838,0.8858,0.9084,0.9216,0.9256,0.986,0.9947,0.9726,0.9987,0.9933,0.9713,1.0007,1.0127,1.0207,1.0768,1.1156,1.1403,1.6333,1.6773,1.72,0.0,1.7589,1.8003,0.0,0.0,0.0,0.0,2.2447,2.3037,2.2736,2.2975,2.2472,2.0857,2.0903,0.0,0.0,0.0,0.0,2.0439,2.0577,2.0075,1.8844,1.8907,1.8568,1.7777,0.0,0.0,1.607,0.0,0.0,0.0,0.0,0.0,1.1585,1.3718,1.4624,1.4641,1.4829,1.5203,1.5662,0.0,1.5948,1.6238,1.6107,1.6151,1.6238,1.6107,1.6064,1.6061,1.616,1.6185,1.6138,1.6081,1.6148,1.6002,1.5351,1.5186,1.5114,1.4752,1.4247,1.3804,0.0,0.0,0.0,0.0,0.0,0.0,0.0,0.0,0.0,0.0,0.0,0.0,0.0,0.0,0.0,0.9427,0.0,0.0,0.0,0.0,0.0,0.0,0.0,0.0,0.0,0.0,0.0,0.922,0.8904,0.8749,0.8804,0.8597,0.8704,0.907,0.907,0.9245,0.9459,0.9539,0.9686,0.9886,0.9826,0.9873,0.9993,0.9853,0.9753,0.9713,1.0007,1.0254,1.0461,1.0678,1.0855,1.1069,1.6898,1.735,1.7915,1.8468,0.0,0.0,2.0062,2.0891,0.0,2.2824,2.3565,0.0,2.3879,2.4167,2.3753,2.2259,2.1732,0.0,2.0928,0.0,0.0,2.1016,2.133,2.0828,1.9397,1.966,0.0,1.8568,0.0,0.0,1.6861,0.0,0.0,0.0,0.0,1.3107,1.2422,1.4379,1.5679,1.6345,1.5807,1.5932,0.0,1.6158,1.6409,1.6923,1.7174,1.6936,1.6559,1.681,1.6898,1.6979,1.7382,1.752,1.7533,1.7451,1.7451,1.7329,1.6416,1.6007,1.5808,1.5474,1.4855,1.4418,1.4539,1.4156,1.3804,0.0,0.0,0.0,0.0,0.0,0.0,0.0,0.0,0.0,0.0,0.0,0.0,0.0,0.9388,0.0,0.0,0.0,0.0,0.0,0.0,0.0,0.0,0.0,0.0,0.9106,0.9306,0.9205,0.8762,0.8612,0.8731,0.9051,0.9051,0.9272,0.9686,0.9686,0.9773,0.992,0.9753,0.978,0.9913,0.9753,0.976,0.99,1.0194,1.0414,1.0638,1.0701,1.0855,1.1009,1.7476,1.794,0.0,0.0,0.0,0.0,0.0,2.1933,0.0,2.4582,0.0,2.4418,2.4682,2.4782,2.4544,2.3841,0.0,2.1794,2.2284,2.1418,2.1091,2.1581,2.1669,2.1179,2.0049,2.0024,1.9761,0.0,0.0,0.0,0.0,0.0,0.0,0.0,0.0,0.0,0.0,1.5065,1.6321,1.7438,1.6861,1.6936,1.7338,1.6911,1.7049,1.7551,1.8028,1.7576,1.681,1.7313,1.7488,1.7664,1.8694,1.8983,1.8971,1.8887,1.8949,1.8846,1.7618,1.6982,1.6502,1.5879,1.5348,1.4926,1.4835,1.4835,1.4835,1.4835,1.4755,1.462,0.0,0.0,0.0,0.0,0.0,0.0,0.0,0.0,0.0,0.0,0.0,0.0,0.0,0.0,0.0,0.0,0.0,0.0,0.0,0.0,0.0,0.8788,0.9636,0.9679,0.8901,0.0,0.895,0.9038,0.9065,0.9336,0.98,0.98,0.98,0.9793,0.9719,0.9706,0.974,0.9699,0.988,1.02,1.0461,1.0624,1.0658,1.0882,1.0995,1.1076,1.7978,1.8505,0.0,0.0,0.0,2.1958,2.3351,2.4305,2.4858,2.482,2.5523,2.5548,2.428,2.4556,2.4217,2.2736,2.2334,0.0,0.0,0.0,0.0,2.2171,2.2598,2.2322,2.1217,2.1192,2.0928,0.0,0.0,0.0,0.0,0.0,0.0,0.0,0.0,0.0,1.6584,1.552,0.0,1.8016,1.7451,1.73,1.7426,1.7777,1.7978,1.8078,1.8179,1.8078,1.7928,1.8028,1.8053,1.8179,1.8819,1.8983,1.9083,1.9494,1.9633,1.9521,1.882,1.8288,1.7741,1.7202,1.6613,1.6051,1.5555,1.5454,1.5454,1.5454,1.5062,1.4812,1.526,0.0,0.0,0.0,0.0,0.0,0.0,0.0,0.0,0.0,0.0,0.9551,0.0,0.0,0.0,0.0,0.0,0.0,0.0,0.0,0.0,0.0,0.9104,0.0,0.0,0.0,0.9631,1.0309,1.0321,1.0399,1.047,1.047,1.047,1.0381,0.9893,0.982,1.002,0.978,1.0,1.0551,1.0604,1.0624,1.0658,1.0882,1.0995,1.1042,1.8982,0.0,0.0,0.0,0.0,0.0,0.0,2.5398,2.6176,2.5335,2.5686,2.5711,2.4921,2.482,2.4494,2.369,2.2811,2.2435,2.2723,2.2472,2.2435,2.2723,2.2927,2.2623,2.1506,2.1769,2.1355,2.0213,0.0,0.0,0.0,0.0,0.0,0.0,0.0,1.6183,0.0,0.0,0.0,1.8606,1.8342,1.8242,1.8267,1.853,1.8631,1.8668,1.8932,1.9032,1.8995,1.8719,1.8631,1.8731,1.9258,1.9434,1.9472,1.9723,1.9798,1.9748,1.9497,1.9032,1.8568,1.8304,1.7802,1.7297,1.6999,1.6953,1.6867,1.6585,1.6312,1.5996,1.5703,1.4971,0.0,0.0,0.0,0.0,0.0,0.0,0.0,0.0,0.0,0.0,0.0,0.0,0.0,0.0,0.0,0.7666,0.8311,0.0,0.0,0.0,0.0,0.0,0.0,0.0,0.0,1.01,1.0158,1.0338,1.0618,1.0401,1.0414,1.0591,0.994,0.9933,1.0334,1.0194,1.0369,1.0624,1.0624,1.0624,1.0658,1.0882,1.1089,1.1263,0.0,2.0514,0.0,0.0,2.3163,2.4381,2.4506,2.5988,2.6791,2.59,2.5774,2.5686,2.546,2.5059,2.4682,2.4318,2.3188,2.2573,2.2774,2.2598,2.2623,2.2949,2.3015,2.2723,2.1857,2.2146,2.1656,0.0,0.0,0.0,0.0,0.0,0.0,0.0,0.0,0.0,0.0,0.0,1.9095,1.9196,1.9196,1.9196,1.9196,1.9196,1.9196,1.9246,1.966,1.9798,1.9748,1.9334,1.9196,1.9258,1.9673,1.9798,1.9798,1.9798,1.9798,1.9798,1.9798,1.9422,1.8983,1.8983,1.8618,1.8204,1.8204,1.8204,1.8053,1.7501,1.7287,1.6923,1.6032,1.5396,0.0,0.0,0.0,0.0,0.0,0.0,0.0,0.0,0.0,0.0,1.0097,0.0,0.0,0.0,0.0,0.7783,0.7958,0.8921,0.9583,0.0,0.0,1.075,1.0482,0.0,1.0304,0.996,1.001,1.0227,1.0618,1.0314,1.0341,1.0598,1.0007,1.0033,1.0474,1.0598,1.0624,1.0631,1.0628,1.0719,1.0752,1.0982,1.1229,1.147,0.0,0.0,0.0,0.0,0.0,2.5624,2.6151,2.6471,2.6571,2.6458,2.6445,2.6,2.5008,2.4845,2.4205,2.2686,2.2862,2.2661,2.1707,2.2535,2.2862,2.241,2.2874,2.3027,2.2927,2.2535,2.2234,0.0,0.0,1.9974,0.0,0.0,0.0,0.0,0.0,0.0,0.0,1.8908,1.9296,1.9736,1.9736,1.9736,1.9736,1.9736,1.9736,1.9736,1.9786,1.9798,1.9798,1.9748,1.9736,1.9736,1.9786,1.9798,1.9798,1.9798,1.9798,1.9798,1.9798,1.9422,1.8983,1.8983,1.8618,1.8204,1.8204,1.8204,1.8053,1.7501,1.6961,1.6572,1.6459,1.599,1.5463,0.0,0.0,0.0,0.0,0.0,1.1488,0.9841,0.0,0.0,0.0,0.874,0.0,0.0,0.7676,0.8036,0.8838,0.8994,0.959,1.0752,0.0,1.0862,1.1352,1.1274,1.1085,1.0862,1.0923,1.0831,1.0624,1.0598,1.0598,1.0604,1.0214,1.0107,1.018,1.0448,1.0624,1.0651,1.0848,1.0955,1.0989,1.1276,1.1403,1.147,0.0,0.0,0.0,0.0,0.0,0.0,0.0,2.7017,2.7205,2.6553,2.6533,2.6163,2.5372,2.5008,2.4418,2.3414,2.3213,2.2949,2.251,2.2887,2.2977,2.2811,2.2965,2.3078,2.3078,2.2865,2.2636,0.0,0.0,0.0,0.0,0.0,0.0,0.0,0.0,2.0012,2.0037,2.0363,2.0439,2.0326,2.0326,2.0112,1.9798,1.9798,1.9798,1.9798,1.9798,1.9798,1.9798,1.9798,1.9798,1.9798,1.9798,1.9798,1.9798,1.9798,1.9798,1.9798,1.9798,1.9648,1.9497,1.9497,1.9321,1.9158,1.9158,1.9158,1.9007,1.848,1.7664,1.7036,1.7036,1.6287,1.5581,0.0,0.0,0.0,0.0,0.0,0.0,1.1435,0.0,1.0978,0.0,0.0,0.0,0.0,0.0,0.7958,0.8594,0.8867,0.9707,1.125,0.0,1.1679,1.2737,1.2439,1.2265,1.2226,1.2257,1.2195,1.2035,1.1538,1.1045,1.0618,1.0434,1.0381,1.0394,1.0514,1.0624,1.0651,1.0882,1.0995,1.1029,1.1316,1.1543,1.171,2.5963,0.0,2.6013,0.0,2.7344,2.7532,2.6816,2.7369,2.7457,2.6352,2.642,2.6189,2.5448,2.5172,2.4632,2.359,2.3439,2.3175,2.2686,2.289,2.3002,2.2899,2.305,0.0,2.3078,2.3078,2.2877,2.2548,2.1782,0.0,0.0,0.0,0.0,0.0,2.0828,2.1054,2.0941,2.133,2.1267,2.0957,2.0957,2.0564,2.0049,2.0049,1.9949,1.9798,1.9798,1.9798,1.9798,1.9798,1.9798,1.9798,1.9798,1.9798,1.9798,1.9798,1.9798,1.9798,1.9798,1.9798,1.9798,1.9798,1.9798,1.9798,1.9798,1.9798,1.966,1.9133,1.8279,1.7626,1.7626,1.6811,1.613,1.6203,0.0,0.0,0.0,1.3265,0.0,0.0,1.1776,1.1256,1.1586,1.0153,0.0,0.0,0.0,0.0,0.8721,0.8906,0.9785,0.0,0.0,0.0,1.3381,1.3065,1.2972,1.3166,1.3058,1.3058,1.3157,1.2251,1.1519,1.1051,1.0721,1.0672,1.0752,1.0752,1.0698,1.0672,1.1069,1.1196,1.1169,1.1543,1.1817,1.1997,2.8662,2.8436,2.8423,2.9553,2.9289,2.8536,2.7444,2.7281,2.6892,2.5749,2.6101,2.605,2.4946,2.5285,2.4707,2.2523,2.3351,2.3276,2.1619,2.2523,2.2887,0.0,0.0,2.3078,2.3078,2.3078,2.3078,2.3065,0.0,0.0,2.1468,0.0,2.1179,2.0756,2.1794,2.1995,2.1481,2.1493,2.1493,2.1481,2.1481,2.1154,2.0706,2.0706,2.03,1.9798,1.9798,1.9798,1.9798,1.9798,1.9798,1.9798,1.9798,1.9798,1.9798,1.9798,1.9798,1.9798,1.9798,1.9798,1.9798,1.9798,1.9798,1.9798,1.9798,1.9798,1.966,1.9133,1.8581,1.8191,1.8191,1.7739,1.7363,1.7363,0.0,0.0,0.0,0.0,0.0,1.308,1.1866,1.1197,1.164,1.0432,0.0,0.0,0.0,0.0,0.0,0.0,0.0,1.1547,1.1606,0.0,1.2913,1.2922,1.3102,1.3592,1.3174,1.319,1.3575,1.2352,1.1944,1.2099,1.1051,1.0722,1.0989,1.0989,1.0822,1.0712,1.1523,1.1683,1.149,1.2078,1.2291,1.2298,2.9411,2.9417,2.9454,2.9977,2.9719,2.9139,2.8021,2.7846,2.7444,2.6339,2.6352,2.6176,2.5435,2.5498,2.5172,0.0,2.4004,2.3929,0.0,2.3364,2.3238,2.3452,2.2887,2.2573,2.2573,2.2573,2.2573,2.2573,0.0,0.0,0.0,2.2046,2.2159,2.2359,2.2711,2.2774,2.2611,2.2611,2.2397,2.2046,2.2046,2.1719,2.1192,2.0857,2.0605,2.0338,1.9936,1.9798,1.9798,1.9798,1.9798,1.9798,1.9798,1.9798,1.9798,1.9798,1.9798,1.9798,1.9798,1.9798,1.9798,1.9798,1.9798,1.9798,1.9798,1.9798,1.9761,1.9585,1.9133,1.8769,1.8769,1.8317,1.7815,1.7438,1.6936,0.0,0.0,0.0,1.4167,1.3777,1.2431,1.1681,1.1954,1.0815,0.0,0.0,0.0,0.0,0.0,0.0,0.0,0.0,1.2891,0.0,1.4582,1.4316,1.4402,1.4823,1.4693,1.4396,1.403,1.3925,1.3296,1.2193,1.2211,1.1798,1.1289,1.1289,1.1236,1.1202,1.1683,1.181,1.1777,1.2158,1.2432,1.2579,2.979,2.9774,2.9757,2.9722,2.9579,2.9089,2.7971,2.7795,2.7469,2.6647,2.6533,2.6395,2.5963,2.5925,0.0,2.4883,2.4682,2.4669,2.4808,2.4155,2.3929,2.4293,2.3627,2.3251,2.3251,2.3251,0.0,2.3251,2.3251,2.315,2.2949,2.2949,2.3125,2.3452,2.3226,2.3078,2.3078,2.3078,2.2937,2.2623,2.2623,2.2284,2.1757,2.1418,2.1154,2.0903,2.0338,2.0125,2.0087,1.9874,1.9798,1.9798,1.9798,1.9798,1.9798,1.9798,1.9798,1.9798,1.9798,1.9798,1.9798,1.9798,1.9798,1.9798,1.9798,1.9798,1.9798,1.9798,1.9547,1.9321,1.9321,1.8882,1.8405,1.8053,1.7652,1.725,1.6886,0.0,1.4508,0.0,0.0,0.0,0.0,1.1874,1.1514,0.0,0.0,0.0,0.0,0.0,0.0,1.2978,1.3184,0.0,1.54,1.5146,1.5322,1.5908,1.5908,1.5571,1.4939,1.5031,1.4388,1.3088,1.2937,1.2373,1.159,1.159,1.1523,1.1463,1.187,1.1964,1.1917,1.2318,1.2518,1.2565,2.982,2.9819,2.9603,0.0,2.8963,0.0,2.7557,2.7369,2.7143,2.6659,2.6546,2.6546,2.6584,2.6546,2.6063,2.5071,0.0,0.0,0.0,2.4858,2.4845,2.487,2.4808,2.4757,2.4757,2.4757,2.4757,2.4757,2.472,2.4443,2.3941,2.3941,2.3941,2.3916,2.3376,2.3078,2.3078,2.3078,2.3078,2.3078,2.3078,2.2824,2.2359,2.2322,2.1995,2.1481,2.097,2.0756,2.0643,2.0087,1.9874,1.9811,1.9899,1.9899,1.9849,1.9811,1.9798,1.9798,1.9798,1.9798,1.9798,1.9798,1.9798,1.9798,1.9798,1.9836,1.9849,1.9811,1.9836,1.9849,1.9811,1.9409,1.9083,1.9083,1.8154,1.7413,1.7338,0.0,1.4244,0.0,0.0,0.0,1.3052,1.334,1.3018,0.0,0.0,0.0,0.0,0.0,1.1543,1.2297,1.2783,1.3799,1.5439,1.5459,1.5889,1.6665,1.6665,1.6514,1.6123,1.5769,1.5226,1.4525,1.3564,1.2738,1.204,1.204,1.1807,1.1543,1.2091,1.2138,1.1964,1.2587,1.2552,1.2371,0.0,0.0,2.9821,2.987,2.9718,2.9352,2.8649,2.8185,2.7708,2.7155,2.6716,2.6684,2.7042,2.6716,2.6596,2.6691,2.6025,2.5737,2.605,2.5285,2.4996,2.5398,2.4632,2.4192,2.4192,2.4192,2.4192,2.4192,2.3753,2.3464,2.3339,2.3339,2.3339,2.3339,2.3128,2.3078,2.3078,2.3078,2.3078,2.3078,2.3078,2.299,2.2899,2.2472,2.2234,2.2046,2.1493,2.1071,2.0756,2.0991,2.0514,1.9949,2.0815,2.0803,2.0376,1.9936,1.9798,1.9798,1.9798,1.9798,1.9798,1.9798,1.9798,1.9798,1.9798,2.015,2.0338,1.9899,2.0162,2.0326,1.9874,1.9698,1.9623,1.9623,1.8706,1.7714,1.6848,1.552,1.4559,0.0,1.3689,1.3542,1.41,1.3756,1.3516,0.0,0.0,0.0,0.0,1.374,1.3809,1.364,1.4102,1.4844,1.5898,1.5908,1.6182,1.6665,1.6665,1.668,1.6592,1.6818,1.6449,1.5569,1.5711,1.4808,1.3273,1.3273,1.2797,1.2111,1.2245,1.2258,1.2218,1.2358,1.2505,1.2694,3.0191,3.0008,2.9757,2.9661,2.9466,2.9214,2.8637,2.8084,2.762,2.7318,2.7017,2.6954,2.7256,2.7243,2.7331,2.7632,2.664,2.6126,2.6508,2.59,2.5699,2.5975,2.5435,2.5121,2.5121,2.5121,2.4996,2.4732,2.4406,2.4142,2.3904,2.3653,2.3527,2.3514,2.319,2.3078,2.3078,2.3078,2.3078,2.3078,2.3078,2.3078,2.304,2.2811,2.2686,2.2623,2.2071,2.1506,2.1091,2.1393,2.0916,2.0351,2.1217,2.128,2.0978,2.0665,2.0577,2.0514,2.0263,2.0376,2.0577,2.0577,2.0577,2.0577,2.0577,2.0815,2.0953,2.0639,2.0828,2.0865,2.03,2.02,2.0112,1.9849,1.8468,1.7225,1.6609,1.5354,1.4487,1.4416,1.4896,1.5381,1.5688,1.5627,1.5497,1.5314,1.4532,0.0,1.4697,1.4766,1.4766,1.4717,1.5137,1.5791,1.666,1.666,1.6787,1.7031,1.7031,1.7031,1.7041,1.7471,1.7168,1.6251,1.6468,1.579,1.4386,1.3882,1.3382,1.2893,1.2668,1.2505,1.2538,1.2812,1.2933,1.2953,2.9792,2.9792,2.9641,2.9151,2.9063,2.89,2.8436,2.7883,2.7532,2.7532,2.7457,2.7444,2.7519,2.7871,2.8134,2.8222,2.7293,2.6747,2.6659,2.6502,2.6533,2.6533,2.6533,2.6533,2.6533,2.6445,2.6088,2.5598,2.5523,2.5259,2.4808,2.4255,2.4004,2.3966,2.3389,2.3078,2.3078,2.3078,2.3078,2.3078,2.3078,2.3078,2.3078,2.3078,2.3078,2.3015,2.2611,2.2083,2.1631,2.1707,2.1317,2.0903,2.1543,2.1681,2.1631,2.1707,2.1732,2.1594,2.0966,2.1129,2.1493,2.1493,2.1493,2.1493,2.1493,2.1556,2.1594,2.1506,2.1556,2.1418,2.0832,2.0718,2.0504,1.9798,1.7978,1.6622,1.6522,0.0,1.4635,1.5151,1.6456,1.7396,1.7548,1.786,1.7835,1.722,1.5966,1.5405,1.5851,1.536,1.5273,1.5693,1.6006,1.6553,1.7373,1.7451,1.748,1.748,1.748,1.751,1.7578,1.7881,1.7608,1.6866,1.6811,1.6289,1.5376,1.4585,1.403,1.3704,1.3292,1.2959,1.2956,1.3387,1.3427,1.3247,2.9792,2.9792,2.9767,2.9679,2.9654,2.9628,2.9553,2.9038,2.8674,2.8674,2.8273,2.816,2.8624,2.8335,2.8298,2.8762,2.8222,2.7657,2.718,2.6716,2.6533,2.6533,2.6533,2.6533,2.6533,2.5988,2.5686,2.5598,2.5159,2.4895,2.4808,2.4255,2.4004,2.3966,2.3389,2.3078,2.3078,2.3078,2.3078,2.3078,2.3078,2.3078,2.3078,2.3078,2.3078,2.3065,2.3037,2.2648,2.2259,2.2723,2.2196,2.1543,2.256,2.256,2.2272,2.2736,2.2874,2.2661,2.1631,2.143,2.1493,2.1493,2.1493,2.1493,2.1493,2.1845,2.2046,2.1581,2.1857,2.187,2.0853,2.0718,2.0326,1.9309,1.8078,1.7074,1.6584,0.0,1.6341,1.6948,1.7847,1.8691,1.9171,1.8793,1.8753,1.9387,1.79,1.7319,1.8051,1.7016,1.6631,1.707,1.6787,1.6875,1.7373,1.7734,1.791,1.791,1.791,1.8096,1.8428,1.8144,1.8125,1.8296,1.7938,1.7217,1.6385,1.6581,1.5625,1.4119,1.4369,1.3967,1.3153,1.324,1.3253,1.322,2.9792,2.9792,2.9792,2.9792,2.9528,2.9467,3.0057,2.9628,2.9444,2.9989,3.01,3.0161,3.0427,3.0493,3.0626,3.0904,2.992,2.9215,2.8957,2.771,2.6766,2.6546,2.6533,2.6533,2.6533,2.6201,2.6063,2.6063,2.5511,2.5234,2.5222,2.4695,2.4443,2.4431,2.4167,2.4042,2.4042,2.4042,2.4042,2.4017,2.3715,2.3602,2.3565,2.319,2.3078,2.3078,2.3078,2.2786,2.2397,2.2949,2.2598,2.2071,2.2874,2.2902,2.2862,2.3439,2.3175,2.2648,2.2435,2.2372,2.2447,2.2761,2.3062,2.3288,2.3288,2.3251,2.315,2.2899,2.2786,2.251,2.1707,2.1305,2.0941,2.0439,1.8681,0.0,0.0,1.7426,1.7526,1.779,1.9463,2.0741,2.1055,2.0664,2.0361,2.0272,1.8895,1.8135,1.8243,1.7491,1.7275,1.7705,1.7519,1.7519,1.7715,1.791,1.8125,1.835,1.835,1.8574,1.8984,1.8789,1.8799,1.8975,1.8779,1.8469,1.8033,1.7724,1.7054,1.6196,1.6008,1.5293,1.4315,1.4479,1.4151,1.3681,2.9792,3.0011,3.0139,3.0139,2.9909,3.0034,3.0823,3.0508,3.0468,3.1294,3.1764,3.1986,3.1986,3.2317,3.2593,3.2593,3.1568,3.0842,3.0708,2.9035,2.769,2.6936,2.6716,2.6722,2.6722,2.6596,2.6533,2.6533,2.6013,2.5799,2.5787,2.5247,2.5008,2.4996,2.487,2.482,2.482,2.482,2.482,2.4782,2.4356,2.4192,2.413,2.3552,2.3339,2.3314,2.3128,2.2862,2.2585,2.315,2.305,2.2799,2.3351,2.3527,2.3615,2.4054,2.3577,2.2962,2.3263,2.3366,2.364,2.4079,2.4506,2.482,2.482,2.4494,2.4192,2.4192,2.3841,2.3314,2.2623,2.2159,2.1744,2.1355,0.0,0.0,0.0,1.8656,1.8681,1.8945,2.0953,2.2309,2.2309,2.2261,2.1865,2.1227,2.0042,1.9115,1.8633,1.8151,1.7915,1.8144,1.8154,1.8154,1.8154,1.8262,1.8467,1.8789,1.8789,1.9014,1.9434,1.9336,1.9336,1.9424,1.9326,1.9287,1.9224,1.8629,1.8219,1.7956,1.7553,1.6746,1.5756,1.5688,1.522,1.4412,2.9792,3.0482,3.1106,3.1106,3.1788,3.2324,3.2396,3.2425,3.2398,3.2469,3.251,3.2538,3.2538,3.2579,3.2593,3.2593,3.2494,3.2233,3.1737,3.0744,2.9548,2.8082,2.7494,2.7218,2.7218,2.6716,2.6533,2.6533,2.6483,2.6402,2.6445,2.5812,2.5536,2.5523,2.5034,2.482,2.482,2.482,2.482,2.482,2.4782,2.4757,2.4695,2.4142,2.3941,2.3866,2.3326,2.3053,2.3103,2.374,2.3904,2.3966,2.4519,2.4695,2.4707,2.4745,2.4707,2.4531,2.4067,2.4305,2.4707,2.4745,2.4795,2.482,2.482,2.4795,2.4757,2.4757,2.4732,2.4368,2.3215,2.2977,2.251,2.0978,0.0,0.0,2.0454,2.0024,2.0075,2.1117,2.187,2.2309,2.2309,2.2752,2.3005,2.2944,2.2151,2.1255,2.0462,1.9585,1.9008,1.8574,1.8594,1.8594,1.8594,1.8994,1.9209,1.9238,1.9238,1.9463,1.9853,1.9463,1.9502,1.9844,1.9453,1.9287,1.9316,1.9632,1.9165,1.8285,1.868,1.8186,1.7058,1.6101,1.5621,1.5455,3.0696,3.097,3.118,3.118,3.196,3.282,3.338,3.3449,3.3671,3.4341,3.4409,3.4409,3.4409,3.4409,3.4409,3.4409,3.3822,3.335,3.3192,3.2275,3.0658,2.822,2.8446,2.8235,2.7293,2.767,2.7456,2.6533,2.6533,2.6533,2.6521,2.6239,2.6138,2.6126,2.5925,2.5837,2.5837,2.5837,2.5837,2.5799,2.5448,2.531,2.5247,2.4707,2.4506,2.4481,2.4255,2.418,2.4217,2.4431,2.4506,2.4544,2.4757,2.482,2.482,2.482,2.531,2.5711,2.5146,2.5134,2.531,2.531,2.5573,2.5837,2.5837,2.5561,2.531,2.531,2.5046,2.4695,2.4255,2.3904,2.3577,2.3288,0.0,2.2071,2.2648,2.2548,2.2435,2.2498,2.3012,2.3226,2.2862,2.2952,2.3021,2.2846,2.2555,2.1916,2.0744,1.9823,1.9213,1.9033,1.9297,1.9307,1.9043,1.9209,1.9424,1.9678,1.9678,1.9902,2.0312,2.0156,2.0166,2.0312,2.0146,2.0078,2.0098,2.0254,2.0082,1.9773,1.9934,1.9353,1.831,1.79,1.7334,1.6519,3.1683,3.1888,3.2105,3.2105,3.289,3.3754,3.4394,3.4461,3.4691,3.5424,3.5504,3.5504,3.5504,3.5504,3.5504,3.5504,3.4839,3.4461,3.4461,3.3602,3.1952,2.9626,2.9963,2.9741,2.8742,2.9156,2.8932,2.7884,2.7884,2.776,2.7429,2.7429,2.7303,2.6979,2.6979,2.6879,2.6716,2.6716,2.6615,2.6508,2.6214,2.6025,2.5824,2.5473,2.5222,2.5046,2.4883,2.482,2.4845,2.5008,2.5184,2.536,2.5536,2.5598,2.5561,2.5385,2.5875,2.6445,2.5975,2.5862,2.5862,2.5862,2.6163,2.6533,2.6533,2.6151,2.5862,2.5862,2.5724,2.5485,2.5134,2.4908,2.4782,2.482,2.4167,2.3803,2.4205,2.4255,2.4104,2.3715,2.4017,2.4104,2.3703,2.3603,2.3567,2.3353,2.3377,2.2725,2.1285,1.9981,1.9346,1.9482,1.9766,1.9844,1.9687,1.9687,1.9834,2.0117,2.0117,2.0273,2.0566,2.0566,2.0566,2.0566,2.0566,2.0566,2.0576,2.0713,2.0693,2.0596,2.0869,2.0493,1.9654,1.9443,1.8903,1.7986,3.2593,3.338,3.4027,3.4027,3.4839,3.5504,3.5504,3.5504,3.5504,3.5504,3.5504,3.5504,3.5504,3.5504,3.5504,3.5504,3.5504,3.5504,3.5504,3.4543,3.3602,3.2664,3.2097,3.1847,3.1765,3.1318,3.1013,3.0999,3.0999,3.046,2.9521,2.9521,2.8983,2.8109,2.8109,2.7795,2.7293,2.7293,2.6967,2.6584,2.7067,2.6954,2.6533,2.6533,2.6113,2.5536,2.5034,2.4845,2.4921,2.5435,2.5988,2.6634,2.7118,2.7293,2.718,2.6697,2.6533,2.6533,2.6533,2.6533,2.6533,2.6533,2.6533,2.6533,2.6533,2.6533,2.6533,2.6533,2.6904,2.6942,2.5824,2.6088,2.6113,2.5021,2.4845,2.4833,2.4833,2.4833,2.4833,2.4833,2.4833,2.4833,2.482,2.482,2.482,2.4833,2.4833,2.4001,2.2115,2.0339,1.9492,1.9912,1.9922,2.0137,2.0576,2.0566,2.0566,2.0566,2.0566,2.0566,2.0566,2.0566,2.0566,2.0566,2.0566,2.0566,2.0605,2.1055,2.0977,2.0664,2.1543,2.1621,2.1118,2.0486,2.0196,1.9796,3.3602,3.3808,3.4027,3.4027,3.4839,3.5504,3.5504,3.5504,3.5504,3.5504,3.5504,3.5504,3.5504,3.5504,3.5504,3.5504,3.5504,3.5504,3.5504,3.5213,3.492,3.4639,3.3786,3.2831,3.1847,3.2277,3.2047,3.0999,3.0999,3.0865,3.0528,2.9856,2.9324,2.9054,2.8375,2.8009,2.7858,2.7858,2.777,2.7632,2.7795,2.7532,2.708,2.7469,2.7268,2.6804,2.7042,2.6879,2.6628,2.718,2.7218,2.713,2.7682,2.7858,2.7758,2.7205,2.703,2.6954,2.6634,2.6741,2.6942,2.6553,2.6533,2.6634,2.6954,2.703,2.7155,2.7544,2.7745,2.7758,2.7419,2.718,2.6929,2.6603,2.6226,2.5963,2.5963,2.5963,2.5824,2.541,2.536,2.5222,2.4858,2.482,2.4971,2.5335,2.5105,2.468,2.4097,2.3267,2.2552,2.186,2.1958,2.1883,2.1484,2.0879,2.0566,2.0566,2.0566,2.0566,2.0566,2.0566,2.0566,2.0566,2.0566,2.0742,2.1045,2.1182,2.1338,2.1523,2.1787,2.1807,2.1709,2.1486,2.0726,1.9522,3.461,3.461,3.461,3.461,3.5067,3.5504,3.5504,3.5504,3.5504,3.5504,3.5504,3.5504,3.5504,3.5504,3.5504,3.5504,3.5504,3.5504,3.5504,3.5504,3.5504,3.5504,3.4905,3.4153,3.3264,3.3827,3.3638,3.2772,3.2772,3.2559,3.2196,3.1585,3.0891,3.0138,2.9585,2.8982,2.8436,2.8436,2.8298,2.8122,2.8348,2.8097,2.767,2.8222,2.8084,2.7657,2.7984,2.7896,2.7657,2.7996,2.8034,2.7996,2.8323,2.8436,2.8323,2.777,2.7607,2.7544,2.7205,2.7356,2.7532,2.7193,2.7105,2.7205,2.7532,2.7607,2.7708,2.8034,2.8285,2.836,2.8147,2.7833,2.7544,2.7318,2.6816,2.6533,2.6533,2.6533,2.6327,2.5975,2.5937,2.5812,2.5498,2.5473,2.5598,2.5912,2.5581,2.5302,2.5302,2.4889,2.4326,2.3708,2.3796,2.3634,2.3213,2.2267,2.153,2.1084,2.0908,2.083,2.082,2.0644,2.0566,2.0566,2.0566,2.082,2.125,2.1416,2.165,2.1924,2.2246,2.2178,2.1904,2.207,2.1422,2.0355,3.5504,3.5504,3.5504,3.5504,3.5504,3.5504,3.5504,3.5504,3.5504,3.5504,3.5504,3.5504,3.5504,3.5504,3.5504,3.5504,3.5504,3.5504,3.5504,3.5504,3.5504,3.5504,3.5504,3.5504,3.5504,3.5504,3.5504,3.5504,3.5504,3.5052,3.4095,3.4027,3.3101,3.1462,3.1389,3.0533,2.9214,2.9139,2.8848,2.8432,2.88,2.8674,2.8235,2.8787,2.8662,2.8185,2.8235,2.8222,2.8185,2.8185,2.8549,2.9001,2.9001,2.9001,2.89,2.8348,2.8185,2.8172,2.8122,2.8134,2.8185,2.8185,2.821,2.8247,2.8185,2.8185,2.8197,2.8247,2.8649,2.885,2.8348,2.821,2.7996,2.7444,2.6892,2.6584,2.6533,2.6533,2.6546,2.6596,2.6559,2.6571,2.6603,2.6603,2.6603,2.6603,2.6225,2.6032,2.6032,2.5721,2.5472,2.5394,2.5394,2.5417,2.5306,2.4136,2.3082,2.204,2.1475,2.1289,2.1279,2.0869,2.0664,2.0625,2.0625,2.0859,2.126,2.166,2.1875,2.2012,2.2744,2.2607,2.2031,2.2344,2.2123,2.1549,3.5504,3.5504,3.5504,3.5504,3.5504,3.5504,3.5504,3.5504,3.5504,3.5504,3.5504,3.5504,3.5504,3.5504,3.5504,3.5504,3.5504,3.5504,3.5504,3.5504,3.5504,3.5504,3.5504,3.5504,3.5504,3.5504,3.5504,3.5504,3.5504,3.5359,3.5133,3.4394,3.3808,3.338,3.2593,3.2096,3.1771,3.0995,3.0634,3.0455,2.9834,2.9264,2.8812,2.939,2.9252,2.8812,2.9264,2.9139,2.875,2.875,2.9139,2.9603,2.9603,2.9603,2.949,2.8913,2.875,2.8649,2.8222,2.8423,2.875,2.875,2.9089,2.9315,2.885,2.875,2.8875,2.9327,2.9515,2.9566,2.9453,2.9063,2.8561,2.8009,2.7469,2.6954,2.6584,2.6533,2.6684,2.7055,2.6798,2.6804,2.7657,2.7745,2.7745,2.7745,2.7628,2.7605,2.7605,2.7903,2.7718,2.6835,2.6924,2.672,2.624,2.4794,2.379,2.3111,2.2177,2.1748,2.1748,2.1641,2.1416,2.1094,2.1094,2.1143,2.124,2.1338,2.1768,2.2363,2.2217,2.2451,2.2793,2.2236,2.1425,2.0282,3.5504,3.5504,3.5504,3.5504,3.5504,3.5504,3.5504,3.5504,3.5504,3.5504,3.5504,3.5504,3.5504,3.5504,3.5504,3.5504,3.5504,3.5504,3.5504,3.5504,3.5504,3.5504,3.5504,3.5504,3.5504,3.5504,3.5504,3.5504,3.5504,3.5504,3.5504,3.4986,3.4461,3.3959,3.3518,3.3031,3.2593,3.2105,3.1609,3.118,3.0696,3.0024,2.9377,2.9679,2.9603,2.9377,2.9679,2.9591,2.934,2.934,2.9541,2.9792,2.9792,2.9792,2.9729,2.9428,2.934,2.9277,2.8988,2.9126,2.934,2.934,2.9566,2.9716,2.9415,2.934,2.9428,2.9729,2.9792,2.9792,2.9792,2.9315,2.8837,2.8549,2.8034,2.757,2.7281,2.7243,2.7356,2.7645,2.7419,2.7469,2.8047,2.8109,2.8109,2.8109,2.8348,2.8499,2.8499,2.9038,2.9085,2.8521,2.8533,2.8421,2.8051,2.6214,2.5142,2.4881,2.3081,2.2187,2.2168,2.1768,2.1445,2.1221,2.1006,2.1035,2.123,2.123,2.1621,2.2207,2.2197,2.2207,2.2227,2.2197,2.1697,2.0764,3.5504,3.5504,3.5504,3.5504,3.5504,3.5504,3.5504,3.5504,3.5504,3.5504,3.5504,3.5504,3.5504,3.5504,3.5504,3.5504,3.5504,3.5504,3.5504,3.5504,3.5504,3.5504,3.5504,3.5504,3.5504,3.5504,3.5504,3.5504,3.5504,3.5504,3.5504,3.5504,3.5067,3.4245,3.4245,3.3808,3.3101,3.289,3.2321,3.1462,3.1241,3.062,2.9792,2.9792,2.9792,2.9792,2.9792,2.9792,2.9792,2.9792,2.9792,2.9792,2.9792,2.9792,2.9792,2.9792,2.9792,2.9792,2.9792,2.9792,2.9792,2.9792,2.9792,2.9792,2.9792,2.9792,2.9792,2.9792,2.9792,2.9792,2.9792,2.9402,2.9038,2.895,2.8549,2.821,2.8122,2.8109,2.8134,2.8235,2.8335,2.836,2.826,2.8335,2.8398,2.8398,2.8812,2.9076,2.9076,2.9528,2.9792,2.9792,2.9792,2.9792,2.9792,2.7799,2.6719,2.6472,2.4021,2.2778,2.2598,2.1807,2.1416,2.1318,2.0869,2.0889,2.123,2.123,2.1533,2.2021,2.2295,2.206,2.1641,2.2275,2.2246,2.1792,3.5504,3.5504,3.5504,3.5504,3.5504,3.5504,3.5504,3.5504,3.5504,3.5504,3.5504,3.5504,3.5504,3.5504,3.5504,3.5504,3.5504,3.5504,3.5504,3.5504,3.5504,3.5504,3.5504,3.5504,3.5504,3.5504,3.5504,3.5504,3.5504,3.5504,3.5504,3.5504,3.5439,3.5294,3.5294,3.5213,3.5067,3.4177,3.3241,3.2321,3.1536,3.062,2.9792,2.9792,2.9792,2.9792,2.9792,2.9792,2.9792,2.9792,2.9792,2.9792,2.9792,2.9792,2.9792,2.9792,2.9792,2.9792,2.9792,2.9792,2.9792,2.9792,2.9792,2.9792,2.9792,2.9792,2.9792,2.9792,2.9792,2.9792,2.9792,2.9729,2.9515,2.9001,2.8863,2.8649,2.8172,2.8109,2.8285,2.8762,2.9264,2.9365,2.8863,2.9264,2.9566,2.9566,2.9628,2.9679,2.9679,2.9754,2.9792,2.9792,2.9792,2.9792,2.9792,2.853,2.7441,2.6472,2.5157,2.3957,2.3037,2.2559,2.2139,2.1777,2.1338,2.1182,2.123,2.123,2.1709,2.2402,2.209,2.2344,2.2852,2.2598,2.2246,2.1885,3.5504,3.5504,3.5504,3.5504,3.5504,3.5504,3.5504,3.5504,3.5504,3.5504,3.5504,3.5504,3.5504,3.5504,3.5504,3.5504,3.5504,3.5504,3.5504,3.5504,3.5504,3.5504,3.5504,3.5504,3.5504,3.5504,3.5504,3.5504,3.5504,3.5504,3.5504,3.5504,3.5504,3.5504,3.5504,3.5504,3.5439,3.5052,3.4259,3.331,3.2393,3.1402,3.0558,2.9998,2.9792,2.9792,2.9792,2.9792,2.9792,2.9792,2.9792,2.9792,2.9792,2.9792,2.9792,2.9792,2.9792,2.9792,2.9792,2.9792,2.9792,2.9792,2.9792,2.9792,2.9792,2.9792,2.9792,2.9792,2.9792,2.9792,2.9792,2.9792,2.9704,2.9453,2.9415,2.9327,2.9076,2.9051,2.9139,2.9377,2.9641,2.9691,2.944,2.9641,2.9792,2.9792,2.9792,2.9792,2.9792,2.9792,2.9792,2.9792,2.9792,2.9792,2.9792,2.8688,2.7844,2.736,2.6295,2.4798,2.3125,2.2705,2.2412,2.2207,2.1787,2.1455,2.125,2.1494,2.168,2.1826,2.2119,2.2607,2.3086,2.2666,2.2539,2.2588]}]]